No downloads here. Check the wiki to understand what this site is about.

PRE DATA

Datetime Release
2017-01-22 00:01:42 NHL.2017.01.20.Carolina.vs.Pittsburgh.HDTV.x264-GAMETiME
2017-01-22 00:04:40 Loud_Lucy-Breathe-CD-FLAC-1995-FLACME
2017-01-22 00:08:32 Deutschlands.Krieger.Die.Bundeswehr.und.ihre.Minister.E05.Gerhard.Stoltenberg.German.DOKU.720p.HDTV.x264-BTVG
2017-01-22 00:08:56 Deutschlands.Krieger.Die.Bundeswehr.und.ihre.Minister.E05.Gerhard.Stoltenberg.German.DOKU.HDTVRiP.x264-BTVG
2017-01-22 00:09:44 Deutschlands.Krieger.Die.Bundeswehr.und.ihre.Minister.E06.Rudolf.Scharping.German.DOKU.720p.HDTV.x264-BTVG
2017-01-22 00:10:10 Deutschlands.Krieger.Die.Bundeswehr.und.ihre.Minister.E06.Rudolf.Scharping.German.DOKU.HDTVRiP.x264-BTVG
2017-01-22 00:10:19 NHL.2017.01.20.Carolina.vs.Pittsburgh.720p.HDTV.x264-GAMETiME
2017-01-22 00:11:13 4.Smoldering.Straight.Girl.Seductions.XXX.2015.HDTV.720p.x264-SHDXXX
2017-01-22 00:11:28 4.Smoldering.Straight.Girl.Seductions.XXX.2015.HDTV.1080p.x264-SHDXXX
2017-01-22 00:11:44 Lesbians.In.Training.Lick.Wet.Cooch.XXX.2016.HDTV.720p.x264-SHDXXX
2017-01-22 00:12:04 Lesbians.In.Training.Lick.Wet.Cooch.XXX.2016.HDTV.1080p.x264-SHDXXX
2017-01-22 00:12:22 New.Beginnings.XXX.2015.HDTV.720p.x264-SHDXXX
2017-01-22 00:12:39 New.Beginnings.XXX.2015.HDTV.1080p.x264-SHDXXX
2017-01-22 00:20:45 Kaiserdisco-Seismic-EP-WEB-2016-BB8
2017-01-22 00:21:42 Modern.Marvels.S15E26.Iron.REPACK.720p.HDTV.x264-REGRET
2017-01-22 00:24:29 NOS.Studio.Sport.Eredivisie.2016-2017.Samenvattingen.Speelronde.19.Zaterdag.DUTCH.720p.HDTV.x264-NSN
2017-01-22 00:26:29 Justin_Robertson_Presents_Revtone-Everpresent-the_Brightest_Thing-Vinyl-2003-BLA
2017-01-22 00:27:19 Editors-Smokers_Outside_The_Hospital_Doors-CDS-FLAC-2007-FLACME
2017-01-22 00:33:04 Deutschlands.Krieger.Die.Bundeswehr.und.ihre.Minister.E04.Franz.Josef.Strauss.German.DOKU.HDTVRiP.x264-BTVG
2017-01-22 00:49:09 Hackman-The_New_Normal-CD-FLAC-2007-FLACME
2017-01-22 00:52:12 The.A-Team.S02E14.1080p.BluRay.x264-TAXES
2017-01-22 00:52:51 Mesternes.Mester.S08E02.NORWEGiAN.720p.HDTV.x264-TvNORGE
2017-01-22 00:54:43 The.A-Team.S02E15.1080p.BluRay.x264-TAXES
2017-01-22 00:56:21 The.A-Team.S02E16.1080p.BluRay.x264-TAXES
2017-01-22 00:57:45 Fred_Simon-Since_Forever-CD-FLAC-2009-FLACME
2017-01-22 00:57:56 The.A-Team.S02E17.1080p.BluRay.x264-TAXES
2017-01-22 00:59:31 The.A-Team.S02E18.1080p.BluRay.x264-TAXES
2017-01-22 01:00:13 Match.Of.The.Day.2017.01.21.720p.HDTV.x264-FTP
2017-01-22 01:02:00 The.A-Team.S02E19.1080p.BluRay.x264-TAXES
2017-01-22 01:02:04 Lorie_Line-The_Heritage_Collection-Volume_1_Piano_Orchestrations-CD-FLAC-1994-FLACME
2017-01-22 01:03:29 The.A-Team.S02E20.1080p.BluRay.x264-TAXES
2017-01-22 01:04:45 The.A-Team.S02E21.1080p.BluRay.x264-TAXES
2017-01-22 01:05:52 The.A-Team.S02E22.1080p.BluRay.x264-TAXES
2017-01-22 01:07:06 The.A-Team.S02E23.1080p.BluRay.x264-TAXES
2017-01-22 01:12:00 Teens.Love.Anal.4.XXX.DVDRip.x264-UPPERCUT
2017-01-22 01:12:47 Brantley_Gilbert-Halfway_To_Heaven-CD-FLAC-2011-FLACME
2017-01-22 01:15:22 Alison_Krauss-Now_That_Ive_Found_You_A_Collection-CD-FLAC-1995-FLACME
2017-01-22 01:17:57 Breaks_Co-Op-The_Sound_Inside-CD-FLAC-2003-FLACME
2017-01-22 01:21:17 HarperCollins.-.Black.Hole.Blues.and.Other.Songs.from.Outer.Space.RETAiL.ePUB.eBOOK-DiSTRiBUTiON
2017-01-22 01:21:55 Ken.Horowitz.-.Playing.at.the.Next.Level.2016.RETAiL.ePUB.eBOOK-DiSTRiBUTiON
2017-01-22 01:22:18 Lonely.Planet.-.Nicaragua.Travel.Guide.Edition.4.2016.RETAiL.ePUB.eBOOK-DiSTRiBUTiON
2017-01-22 01:27:27 Section.de.Recherches.S11E06.FRENCH.720p.HDTV.x264-AMB3R
2017-01-22 01:27:37 Section.de.Recherches.S11E06.FRENCH.HDTV.x264-AMB3R
2017-01-22 01:49:35 SHL.2017.01.21.Djurgarden.vs.Leksand.SWEDiSH.720p.HDTV.x264-PRiNCE
2017-01-22 01:52:21 American.Horror.Story.S06E09.SPANiSH.1080p.HDTV.x264-ENDURANCE
2017-01-22 01:52:27 American.Horror.Story.S06E09.SPANiSH.720p.HDTV.x264-ENDURANCE
2017-01-22 01:52:35 American.Horror.Story.S06E09.SPANiSH.HDTV.x264-ENDURANCE
2017-01-22 01:53:34 Magnum.P.I.S02E15.720p.BluRay.x264-CiNEFiLE
2017-01-22 01:53:44 HarperCollins.-.Black.Hole.Blues.and.Other.Songs.from.Outer.Space.2016.RETAiL.REPACK.ePUB.eBOOK-DiSTRiBUTiON
2017-01-22 01:59:15 The.Monster.2016.COMPLETE.BLURAY-LAZERS
2017-01-22 02:02:59 Magnum.P.I.S02E16.720p.BluRay.x264-CiNEFiLE
2017-01-22 02:05:21 Magnum.P.I.S02E17.720p.BluRay.x264-CiNEFiLE
2017-01-22 02:08:36 Magnum.P.I.S02E18.720p.BluRay.x264-CiNEFiLE
2017-01-22 02:11:59 Magnum.P.I.S02E19.720p.BluRay.x264-CiNEFiLE
2017-01-22 02:14:53 Taboo.UK.S01E03.INTERNAL.1080p.HDTV.x264-FaiLED
2017-01-22 02:16:59 Palace-Master_Of_The_Universe-2016-gF
2017-01-22 02:28:19 The_Cave_Singers-Banshee-2016-gF
2017-01-22 02:30:04 Black.Ink.Crew.S05E02.Teddys.Playhouse.720p.HDTV.x264-CRiMSON
2017-01-22 02:30:36 Black.Ink.Crew.S05E02.Teddys.Playhouse.HDTV.x264-CRiMSON
2017-01-22 02:31:08 Bring.It.S04E02.Dianna.Said.Knock.You.Out.720p.HDTV.x264-CRiMSON
2017-01-22 02:31:35 The.Rap.Game.S03E02.Like.a.Boss.720p.HDTV.x264-CRiMSON
2017-01-22 02:33:49 Im.Not.Ashamed.2016.COMPLETE.BLURAY-LAZERS
2017-01-22 02:38:28 Timber.Creek.Lodge.S01E07.A.Hard.7.at.Best.720p.HDTV.x264-CRiMSON
2017-01-22 02:43:15 Magnum.P.I.S02E20.720p.BluRay.x264-CiNEFiLE
2017-01-22 02:48:44 Magnum.P.I.S02E21.720p.BluRay.x264-CiNEFiLE
2017-01-22 02:48:45 Total.Divas.S06E09.What.Happens.in.Vegas.720p.HDTV.x264-CRiMSON
2017-01-22 02:50:17 Cops.S29E25.720p.HDTV.x264-KILLERS
2017-01-22 02:50:38 Cops.S29E25.HDTV.x264-KILLERS
2017-01-22 02:51:47 Magnum.P.I.S02E22.720p.BluRay.x264-CiNEFiLE
2017-01-22 02:52:44 Total.Divas.S06E09.What.Happens.in.Vegas.HDTV.x264-CRiMSON
2017-01-22 02:57:58 Married.to.Medicine.S04E11.Coconut.Bras.and.Brawls.HDTV.x264-CRiMSON
2017-01-22 03:00:00 Ransom.S01E03.720p.HDTV.x264-SVA
2017-01-22 03:01:04 Timber.Creek.Lodge.S01E07.A.Hard.7.at.Best.HDTV.x264-CRiMSON
2017-01-22 03:03:03 Ransom.S01E03.HDTV.x264-FLEET
2017-01-22 03:11:02 Dragon.Ball.Super.S01E03.DUBBED.HDTV.x264-W4F
2017-01-22 03:13:32 24.CH.S05E08.FRENCH.720p.HDTV.x264-BAWLS
2017-01-22 03:14:00 24.CH.S05E08.FRENCH.HDTV.x264-BAWLS
2017-01-22 03:22:03 Dragon.Ball.Super.S01E03.DUBBED.720p.HDTV.x264-W4F
2017-01-22 03:22:37 Cops.S29E26.720p.HDTV.x264-KILLERS
2017-01-22 03:27:18 Cops.S29E26.HDTV.x264-KILLERS
2017-01-22 03:29:32 Ronja.Raeubertochter.2014.S01E22.Unser.Sommer.German.DL.ANiME.1080p.BluRay.x264-ATAX
2017-01-22 03:31:04 Ronja.Raeubertochter.2014.S01E22.Unser.Sommer.German.DL.ANiME.720p.BluRay.x264-ATAX
2017-01-22 03:32:29 Ronja.Raeubertochter.2014.S01E22.Unser.Sommer.German.DL.ANiME.BDRiP.x264-ATAX
2017-01-22 03:34:35 Ronja.Raeubertochter.2014.S01E23.Kein.Leben.wegwerfen.German.DL.ANiME.1080p.BluRay.x264-ATAX
2017-01-22 03:36:06 Ronja.Raeubertochter.2014.S01E23.Kein.Leben.wegwerfen.German.DL.ANiME.720p.BluRay.x264-ATAX
2017-01-22 03:37:20 36_Crazyfists-A_Snow_Capped_Romance-CD-FLAC-2004-FATHEAD
2017-01-22 03:37:29 The_Gods_Themselves-Be_My_Animal-WEB-2017-MOHAWK
2017-01-22 03:37:30 Ronja.Raeubertochter.2014.S01E23.Kein.Leben.wegwerfen.German.DL.ANiME.BDRiP.x264-ATAX
2017-01-22 03:39:04 Ronja.Raeubertochter.2014.S01E24.Der.Morgen.des.Duells.German.DL.ANiME.1080p.BluRay.x264-ATAX
2017-01-22 03:39:28 Swallowed.16.11.01.Amara.Romani.Brittany.Shae.Cadence.Lux.Kacie.Kastle.And.Kimber.Woods.XXX.1080p.MP4-KTR
2017-01-22 03:40:34 Rubblebucket-If_U_C_My_Enemies-WEB-2017-MOHAWK
2017-01-22 03:40:45 Swallowed.16.11.05.Karmen.Karma.Layla.Price.And.Virgo.Peridot.XXX.1080p.MP4-KTR
2017-01-22 03:41:05 Ronja.Raeubertochter.2014.S01E24.Der.Morgen.des.Duells.German.DL.ANiME.BDRiP.x264-ATAX
2017-01-22 03:42:19 Swallowed.16.11.09.Adriana.Chechik.Jynx.Maze.And.Megan.Rain.XXX.1080p.MP4-KTR
2017-01-22 03:43:14 Ronja.Raeubertochter.2014.S01E25.Eine.starke.Raeuberbande.German.DL.ANiME.1080p.BluRay.x264-ATAX
2017-01-22 03:43:55 Swallowed.16.11.13.Sarah.Vandella.And.Blair.Williams.XXX.1080p.MP4-KTR
2017-01-22 03:44:55 Ronja.Raeubertochter.2014.S01E25.Eine.starke.Raeuberbande.German.DL.ANiME.720p.BluRay.x264-ATAX
2017-01-22 03:45:40 Swallowed.16.11.17.Cherie.Deville.Dollie.Darko.Rita.Rush.Samia.Duarte.And.Juelz.Ventura.XXX.1080p.MP4-KTR
2017-01-22 03:45:42 Modern.Marvels.S15E26.Iron.REPACK.HDTV.x264-REGRET
2017-01-22 03:45:53 The.1949.1953.and.1961.Presidential.Inaugurations.of.Harry.S.Truman.Dwight.D.Eisenhower.and.John.F.Kennedy.DSR.x264-REGRET
2017-01-22 03:46:02 The.1965.and.1969.Presidential.Inaugurations.of.Lyndon.B.Johnson.and.Richard.Nixon.DSR.x264-REGRET
2017-01-22 03:46:07 The.1973.and.1977.Presidential.Inaugurations.of.Richard.Nixon.and.Jimmy.Carter.DSR.x264-REGRET
2017-01-22 03:46:14 The.1989.and.1993.Presidential.Inaugurations.of.George.H.W.Bush.and.Bill.Clinton.DSR.x264-REGRET
2017-01-22 03:46:19 The.1997.and.2001.Presidential.Inaugurations.of.Bill.Clinton.and.George.W.Bush.DSR.x264-REGRET
2017-01-22 03:46:26 The.2005.and.2009.Presidential.Inaugurations.of.President.George.W.Bush.and.Barack.Obama.DSR.x264-REGRET
2017-01-22 03:46:33 The.2013.Presidential.Inauguration.of.President.Barack.Obama.DSR.x264-REGRET
2017-01-22 03:46:40 Tyler.Perrys.Meet.the.Browns.S02E21.720p.HDTV.x264-REGRET
2017-01-22 03:46:45 Ronja.Raeubertochter.2014.S01E25.Eine.starke.Raeuberbande.German.DL.ANiME.BDRiP.x264-ATAX
2017-01-22 03:46:48 Tyler.Perrys.Meet.the.Browns.S02E25.iNTERNAL.720p.HDTV.x264-REGRET
2017-01-22 03:46:56 Tyler.Perrys.Meet.the.Browns.S03E18.720p.HDTV.x264-REGRET
2017-01-22 03:47:24 Swallowed.16.11.21.Abella.Danger.Karmen.Karma.And.Rachael.Madori.XXX.1080p.MP4-KTR
2017-01-22 03:48:57 Ronja.Raeubertochter.2014.S01E26.Fruehlingsschrei.German.DL.ANiME.1080p.BluRay.x264-ATAX
2017-01-22 03:49:13 Swallowed.16.11.25.Alaina.Dawson.Alex.Grey.Anya.Olsen.Lucy.Doll.And.Melissa.Moore.XXX.1080p.MP4-KTR
2017-01-22 03:50:41 Ronja.Raeubertochter.2014.S01E26.Fruehlingsschrei.German.DL.ANiME.720p.BluRay.x264-ATAX
2017-01-22 03:50:47 Swallowed.16.11.29.Ana.Foxxx.Cali.Carter.And.Vicki.Chase.XXX.1080p.MP4-KTR
2017-01-22 03:52:12 Ronja.Raeubertochter.2014.S01E26.Fruehlingsschrei.German.DL.ANiME.BDRiP.x264-ATAX
2017-01-22 03:57:16 Ronja.Raeubertochter.2014.S01E24.Der.Morgen.des.Duells.German.DL.ANiME.720p.BluRay.x264-ATAX
2017-01-22 03:59:34 SOKO.Leipzig.S16E20.Aus.der.Deckung.German.720p.HDTV.x264-ATAX
2017-01-22 04:00:30 PrivateSociety.17.01.21.Ivy.So.Thats.Her.Secret.XXX.720p.MP4-KTR
2017-01-22 04:00:50 Landlady-The_World_Is_A_Loud_Place-WEB-2017-MOHAWK
2017-01-22 04:01:19 SOKO.Leipzig.S16E20.Aus.der.Deckung.German.HDTVRip.x264-ATAX
2017-01-22 04:02:22 VA-No_Mans_Woman-LIMITED_EDITION-2CD-FLAC-2007-FLACME
2017-01-22 04:02:49 WildOnCam.16.09.09.Madelyn.Monroe.And.Missy.Martinez.XXX.1080p.MP4-KTR
2017-01-22 04:03:38 SOKO.Leipzig.S16E21.Ein.Fall.fuer.Rettig.German.720p.HDTV.x264-ATAX
2017-01-22 04:03:58 Chopped.S32E03.Celebrating.Veterans.HDTV.x264-CRiMSON
2017-01-22 04:04:12 VA-Delta_Street_Mission_Presents_Street_FM_Vol_3-2CD-FLAC-2000-FLACME
2017-01-22 04:05:11 WildOnCam.16.09.12.Natasha.Starr.XXX.1080p.MP4-KTR
2017-01-22 04:05:21 SOKO.Leipzig.S16E21.Ein.Fall.fuer.Rettig.German.HDTVRip.x264-ATAX
2017-01-22 04:05:29 The.Star.Trek.25th.Anniversary.Special.1991.DSR.x264-REGRET
2017-01-22 04:06:53 Mara_And_David-Call_It_Freedom-CD-FLAC-2013-FLACME
2017-01-22 04:07:12 SOKO.Stuttgart.S08E15.Wie.du.mir.German.720p.HDTV.x264-ATAX
2017-01-22 04:07:25 WildOnCam.16.09.14.Shane.Blair.XXX.1080p.MP4-KTR
2017-01-22 04:08:50 SOKO.Stuttgart.S08E15.Wie.du.mir.German.HDTVRip.x264-ATAX
2017-01-22 04:09:13 Marina_Raye-Keepers_Of_The_Light-CD-FLAC-2009-FLACME
2017-01-22 04:09:28 WildOnCam.16.09.15.Trinity.St.Clair.XXX.1080p.MP4-KTR
2017-01-22 04:10:23 Mc_Yogi-Only_Love_Is_Real-CD-FLAC-2015-FLACME
2017-01-22 04:11:35 Medeski_Martin_And_Wood-Tonic-CD-FLAC-2000-FLACME
2017-01-22 04:11:39 WildOnCam.16.09.16.Dahlia.Sky.And.Dana.Vespoli.XXX.1080p.MP4-KTR
2017-01-22 04:14:41 Dragon.Ball.Super.E75.WEB.x264-HAiKU
2017-01-22 04:14:54 Nicki_Bluhm-Tobys_Song-CD-FLAC-2008-FLACME
2017-01-22 04:15:56 Dragon.Ball.Super.E75.720p.WEB.x264-HAiKU
2017-01-22 04:17:18 Dragon.Ball.Super.E75.1080p.WEB.x264-HAiKU
2017-01-22 04:17:54 Ottmar_Liebert-Barcelona_Nights_The_Best_Of_Ottmar_Liebert_Volume_One-CD-FLAC-2001-FLACME
2017-01-22 04:19:11 KarupsHA.17.01.21.Alex.Harper.Solo.3.XXX.720p.MP4-KTR
2017-01-22 04:19:33 KarupsHA.17.01.21.Nikki.Black.Solo.5.XXX.720p.MP4-KTR
2017-01-22 04:20:13 KarupsOW.17.01.21.Josephine.Jones.Solo.4.XXX.720p.MP4-KTR
2017-01-22 04:20:25 Over_The_Rhine-Besides-CD-FLAC-1997-FLACME
2017-01-22 04:20:55 KarupsOW.17.01.21.Susie.Jhonson.Solo.3.XXX.720p.MP4-KTR
2017-01-22 04:21:24 KarupsPC.17.01.21.Carly.Rae.Solo.4.XXX.720p.MP4-KTR
2017-01-22 04:22:07 TwistysHard.17.01.22.Alex.Grey.And.Megan.Sage.Fucking.The.Fluffer.XXX.1080p.MP4-KTR
2017-01-22 04:30:32 Chopped.S32E03.Celebrating.Veterans.720p.HDTV.x264-CRiMSON
2017-01-22 04:31:03 AbbyWinters.17.01.21.Ekaterina.And.Leslie.Lesbian.XXX.1080p.MP4-KTR
2017-01-22 04:31:20 OnlyTease.17.01.22.Stephanie.W.XXX.1080p.MP4-KTR
2017-01-22 04:39:06 AbbyWinters.17.01.21.Ekaterina.And.Leslie.Lesbian.BTS.1.XXX.1080p.MP4-KTR
2017-01-22 04:39:40 AbbyWinters.17.01.21.Ekaterina.And.Leslie.Lesbian.BTS.2.XXX.1080p.MP4-KTR
2017-01-22 04:40:34 Diners.Drive.Ins.and.Dives.S26E03.Mega.Mouthfuls.HDTV.x264-CRiMSON
2017-01-22 04:49:47 CzechWifeSwap.17.01.15.Swap.4.XXX.1080p.MP4-KTR
2017-01-22 04:52:35 Duck.Dynasty.S11E10.Carpnado.HDTV.x264-CRiMSON
2017-01-22 04:53:38 CzechWifeSwap.17.01.15.Swap.4.XXX.2160p.MP4-KTR
2017-01-22 04:57:51 MythBusters-The.Search.S01E03.Shooting.Blind.iNTERNAL.720p.HDTV.x264-DHD
2017-01-22 04:59:24 Kono_Vidovic-Dirty_Disco_Radio_200_(Pure_FM)-SBD-01-22-2017-B2RLiVE_INT
2017-01-22 05:05:39 Sunday_Lovers-Endless_Summer_022_(Pure_FM)-SBD-01-22-2017-B2RLiVE_INT
2017-01-22 05:32:33 ArchAngel.My.Ass.3.XXX.1080p.MP4-KTR
2017-01-22 05:49:04 Friday.Night.Tykes.S04E01.Whats.Your.Malfunction.HDTV.x264-CRiMSON
2017-01-22 06:00:02 Babybird-Candy_Girl_EP1-CDEP-FLAC-1997-FATHEAD
2017-01-22 06:00:59 Babybird-Cornershop-CDS-FLAC-1997-FATHEAD
2017-01-22 06:01:56 Babybird-Goodnight-CDS-FLAC-1996-FATHEAD
2017-01-22 06:02:55 Babybird-Theres_Something_Going_On-CD-FLAC-1998-FATHEAD
2017-01-22 06:03:00 Cosmid.17.01.22.Rachel.Lancaster.Rachel.On.The.Couch.XXX.1080p.MP4-YAPG
2017-01-22 06:03:39 21Naturals.17.01.22.Katrin.Tequila.Titillating.Tequila.XXX.1080p.MP4-KTR
2017-01-22 06:03:54 Babybird-Ugly_Beautiful-CD-FLAC-1996-FATHEAD
2017-01-22 06:04:29 DPFanatics.17.01.22.Lara.Onyx.Office.Double-Shift.XXX.1080p.MP4-KTR
2017-01-22 06:04:53 Babybird-Youre_Gorgeous-CDS-FLAC-1996-FATHEAD
2017-01-22 06:05:31 FootsieBabes.17.01.22.Doris.Ivy.These.Feet.Were.Made.For.Fucking.XXX.1080p.MP4-KTR
2017-01-22 06:08:11 EbonySexTapes.17.01.22.Lexi.Rose.Tittyfucks.BFs.Cock.XXX.1080p.MP4-KTR
2017-01-22 06:10:08 BigWetButts.17.01.22.Mercedes.Carrera.Onesie.In.The.Bunsie.XXX.1080p.MP4-KTR
2017-01-22 06:12:14 DoctorAdventures.17.01.22.Chanel.Preston.And.Veruca.James.Nurse.A.Cock.In.Her.XXX.1080p.MP4-KTR
2017-01-22 06:13:02 EuroGirlsOnGirls.17.01.22.Nancy.A.And.Vivien.Bell.XXX.1080p.MP4-KTR
2017-01-22 06:22:12 SweetSinner.The.Masseuse.11.XXX.720p.MP4-KTR
2017-01-22 06:26:16 Dragon.Ball.Super.S01E03.DUBBED.1080p.HDTV.x264-W4F
2017-01-22 06:30:25 SweetSinner.The.Masseuse.11.XXX.1080p.MP4-KTR
2017-01-22 06:32:30 ATKHairy.17.01.22.Isabella.Diana.Interview.XXX.1080p.MP4-KTR
2017-01-22 06:33:23 ATKHairy.17.01.22.Natasha.Moon.Masturbation.XXX.1080p.MP4-KTR
2017-01-22 06:37:28 PornstarPlatinum.17.01.22.Jesse.Rhodes.And.Savana.Styles.3.Way.Fun.XXX.1080p.MP4-KTR
2017-01-22 06:42:07 Broad.City.S01E09.SUBFRENCH.720p.HDTV.x264-SH0W
2017-01-22 06:42:26 Broad.City.S01E09.SUBFRENCH.HDTV.x264-SH0W
2017-01-22 06:42:51 Broad.City.S01E10.FiNAL.SUBFRENCH.720p.HDTV.x264-SH0W
2017-01-22 06:43:13 Broad.City.S01E10.FiNAL.SUBFRENCH.HDTV.x264-SH0W
2017-01-22 06:44:25 Broad.City.S02E01.SUBFRENCH.720p.HDTV.x264-SH0W
2017-01-22 06:44:59 Broad.City.S02E01.SUBFRENCH.HDTV.x264-SH0W
2017-01-22 06:45:53 Broad.City.S02E02.SUBFRENCH.720p.HDTV.x264-SH0W
2017-01-22 06:46:38 Broad.City.S02E02.SUBFRENCH.HDTV.x264-SH0W
2017-01-22 06:47:19 L.Emission.D.Antoine.2017.01.21.FRENCH.720p.HDTV.x264-SH0W
2017-01-22 06:47:36 AllFineGirls.17.01.20.Taisia.Shanti.A.Girl.Led.Astray.XXX.2160p.MP4-KTR
2017-01-22 06:48:02 L.Emission.D.Antoine.2017.01.21.FRENCH.HDTV.x264-SH0W
2017-01-22 06:49:56 WowGirls.17.01.21.Lovenia.And.Kristy.Black.Romantic.Bed.Games.XXX.2160p.MP4-KTR
2017-01-22 06:51:28 WowPorn.17.01.22.Gina.Gerson.And.Mia.Shes.Got.A.Hold.On.Me.XXX.2160p.MP4-KTR
2017-01-22 06:55:33 Il.Corriere.Della.Sera.01.22.2017.iTALiAN.RETAiL.eBook-DiVER
2017-01-22 06:58:03 ATKGirlfriends.17.01.22.Penelope.Reed.XXX.2160p.MP4-KTR
2017-01-22 06:59:31 ATKGirlfriends.17.01.22.Piper.Perri.XXX.1080p.MP4-KTR
2017-01-22 07:00:05 PlayboyPlus.17.01.22.Mashup.Saucy.Aussies.Vol.2.XXX.1080p.MP4-KTR
2017-01-22 07:00:52 Thailand.Earths.Tropical.Paradise.S01E03.HDTV.x264-PLUTONiUM
2017-01-22 07:03:44 FemJoy.17.01.22.Kiara.L.Pool.Pleasure.XXX.1080p.MP4-KTR
2017-01-22 07:10:26 Thailand.Earths.Tropical.Paradise.S01E03.720p.HDTV.x264-PLUTONiUM
2017-01-22 07:13:02 Thailand.Earths.Tropical.Paradise.S01E03.1080p.HDTV.x264-PLUTONiUM
2017-01-22 07:14:52 EuroSexParties.17.01.22.Ornella.Morgan.And.Nikky.Perry.Wild.Times.XXX.1080p.MP4-KTR
2017-01-22 07:15:35 Brooklyn.Nine.Nine.S04E05.POLISH.720p.HDTV.x264-ProPLTV
2017-01-22 07:15:48 StreetBlowJobs.17.01.22.Blossom.Fill.To.The.Brim.XXX.1080p.MP4-KTR
2017-01-22 07:17:59 Brooklyn.Nine.Nine.S04E06.POLISH.720p.HDTV.x264-ProPLTV
2017-01-22 07:21:41 EPL.2017.01.21.Liverpool.Vs.Swansea.City.HDTV.x264-PLUTONiUM
2017-01-22 07:22:05 Saturday.Night.Live.S42E12.Aziz.Ansari.720p.HDTV.x264-CROOKS
2017-01-22 07:22:19 Frontier.2016.S01E01.POLISH.720p.WEBRip.x264-ProPLTV
2017-01-22 07:25:51 EPL.2017.01.21.Liverpool.Vs.Swansea.City.720p.HDTV.x264-PLUTONiUM
2017-01-22 07:26:44 Frontier.2016.S01E02.POLISH.720p.WEBRip.x264-ProPLTV
2017-01-22 07:31:02 Frontier.2016.S01E03.POLISH.720p.WEBRip.x264-ProPLTV
2017-01-22 07:33:28 EPL.2017.01.21.Liverpool.Vs.Swansea.City.1080p.HDTV.x264-PLUTONiUM
2017-01-22 07:35:27 Grimm.S05E05.POLISH.720p.HDTV.x264-ProPLTV
2017-01-22 07:38:48 La.Gazzetta.Dello.Sport.01.22.2017.iTALiAN.RETAiL.eBook-DiVER
2017-01-22 07:45:46 Celebrity.Big.Brother.S19E22.HDTV.x264-PLUTONiUM
2017-01-22 07:50:01 Celebrity.Big.Brother.S19E22.720p.HDTV.x264-PLUTONiUM
2017-01-22 08:01:38 NubileFilms.17.01.22.Antonia.Sainz.True.Passion.XXX.1080p.MP4-KTR
2017-01-22 08:03:12 Anilos.17.01.22.Luba.Love.Curvy.Busty.Babe.XXX.1080p.MP4-KTR
2017-01-22 08:03:58 Nubiles.17.01.22.Danni.Ferrer.The.Way.She.Moves.XXX.1080p.MP4-KTR
2017-01-22 08:06:16 Saturday.Night.Live.S42E12.Aziz.Ansari.HDTV.x264-CROOKS
2017-01-22 08:06:21 Leilas.Supermat.S01E01.SWEDiSH.720p.WEB.h264-SAAB
2017-01-22 08:06:36 808_State-Blueprint_(The_Best_Of)-(DDSALV052)-WEB-2011-ENSLAVE
2017-01-22 08:06:52 808_State-Don_Solaris_(Deluxe_Edition)-BONUS_TRACKS-(DDSALVOD045)-WEB-1996-ENSLAVE
2017-01-22 08:07:08 808_State-State_to_State_2-(AWD272088)-WEB-2016-ENSLAVE
2017-01-22 08:07:23 808_State-State_to_State_3-(AWD272134)-WEB-2016-ENSLAVE
2017-01-22 08:07:39 Blood_Vibes-Bounce_To_The__Rinse_Cycle-(CCS2141)-WEB-2016-ENSLAVE
2017-01-22 08:07:50 Boxing.2017.01.21.Mick.Hall.vs.Jack.Arnfield.720p.HDTV.x264-VERUM
2017-01-22 08:07:55 David_Temessi-Black-WEB-2013-ENSLAVE
2017-01-22 08:08:07 Leilas.Supermat.S01E02.SWEDiSH.720p.WEB.h264-SAAB
2017-01-22 08:08:13 David_Temessi-Bow_Down-(DSR157)-WEB-2012-ENSLAVE
2017-01-22 08:08:25 David_Temessi-Bow_Down_(Dance_Motherfcker)_Minimal_Remixes-(DSR186)-WEB-2012-ENSLAVE
2017-01-22 08:08:40 David_Temessi-Bow_Down_(Dance_Motherfcker)_Techno_Remixes-(DSRD139)-WEB-2012-ENSLAVE
2017-01-22 08:08:57 David_Temessi-Dirty_People-(DSRD193)-WEB-2014-ENSLAVE
2017-01-22 08:09:13 Leilas.Supermat.S01E03.SWEDiSH.720p.WEB.h264-SAAB
2017-01-22 08:09:15 David_Temessi-Dirty_People_Remixes-(DSRD244)-WEB-2014-ENSLAVE
2017-01-22 08:09:29 David_Temessi-Enigma-(EMBRION036)-WEB-2014-ENSLAVE
2017-01-22 08:09:43 David_Temessi-Fuckin_Clown_Stephen_Advance_2012_Remix-(OTR011)-WEB-2012-ENSLAVE
2017-01-22 08:09:58 David_Temessi-Gashouder-(DSRD241)-WEB-2014-ENSLAVE
2017-01-22 08:10:15 David_Temessi-Gashouder_Remixes-(NHD0013)-WEB-2015-ENSLAVE
2017-01-22 08:10:16 Leilas.Supermat.S01E04.SWEDiSH.720p.WEB.h264-SAAB
2017-01-22 08:10:29 David_Temessi-Mata_Hari-(DSR092)-WEB-2011-ENSLAVE
2017-01-22 08:10:45 David_Temessi-Needs-(DSRD271)-WEB-2015-ENSLAVE
2017-01-22 08:11:02 David_Temessi-Phobia-(DSRD168)-WEB-2013-ENSLAVE
2017-01-22 08:11:14 Leilas.Supermat.S01E05.SWEDiSH.720p.WEB.h264-SAAB
2017-01-22 08:11:16 David_Temessi-Reaktor-(RSTRU004)-WEB-2012-ENSLAVE
2017-01-22 08:11:27 Alberto_Ruiz-7_Elements-WEB-2016-BB8
2017-01-22 08:11:34 David_Temessi-Remixed-(DSRD279)-WEB-2015-ENSLAVE
2017-01-22 08:11:47 David_Temessi-Remixed-WEB-2016-ENSLAVE
2017-01-22 08:11:49 Alberto_Ruiz-Black_List-WEB-2016-BB8
2017-01-22 08:12:02 David_Temessi-Reworks-(DSRDRWRKS1)-WEB-2016-ENSLAVE
2017-01-22 08:12:09 Leilas.Supermat.S01E06.SWEDiSH.720p.WEB.h264-SAAB
2017-01-22 08:12:18 David_Temessi-Run_Me-(DSRD218)-WEB-2014-ENSLAVE
2017-01-22 08:12:33 David_Temessi-Sequence_17-(DVTR017)-WEB-2016-ENSLAVE
2017-01-22 08:12:50 David_Temessi-Shift-(PLMIN024)-WEB-2015-ENSLAVE
2017-01-22 08:13:04 David_Temessi-Sirocco__Venum-(DSRD133)-WEB-2012-ENSLAVE
2017-01-22 08:13:12 Leilas.Supermat.S01E07.SWEDiSH.720p.WEB.h264-SAAB
2017-01-22 08:13:21 David_Temessi-Slamraid-WEB-2013-ENSLAVE
2017-01-22 08:13:36 David_Temessi-To_My_Beat-(DSRD282)-WEB-2015-ENSLAVE
2017-01-22 08:13:51 David_Temessi-Vektor__Enigma-(DSRD177)-WEB-2013-ENSLAVE
2017-01-22 08:14:06 David_Temessi_And_Frank_Savio-Logical_State-(DSRD157)-WEB-2013-ENSLAVE
2017-01-22 08:14:07 Leilas.Supermat.S01E08.SWEDiSH.720p.WEB.h264-SAAB
2017-01-22 08:14:22 David_Temessi_And_Frank_Savio-Logical_State_Remixes-(DSRD160)-WEB-2013-ENSLAVE
2017-01-22 08:14:37 David_Temessi_And_Frank_Savio-Protector-(DSR126)-WEB-2012-ENSLAVE
2017-01-22 08:14:53 David_Temessi_Giovanni_Carozza-Dust__Supernova-(ORANGE049)-WEB-2016-ENSLAVE
2017-01-22 08:15:08 Leilas.Supermat.S01E09.SWEDiSH.720p.WEB.h264-SAAB
2017-01-22 08:15:10 David_Temessi_Steve_Shaden-Wonk-(DSRD320)-WEB-2016-ENSLAVE
2017-01-22 08:15:24 David_Temessi_Zareh_Kan-Nottie-(FBR034)-WEB-2011-ENSLAVE
2017-01-22 08:15:40 Dolby_D_David_Temessi-Into_The_Groove_EP-(PH071)-WEB-2014-ENSLAVE
2017-01-22 08:15:56 Lord_Of_The_Isles-301C_Symphony-(PERMVAC113-1)-WEB-2014-ENSLAVE
2017-01-22 08:16:03 Leilas.Supermat.S01E10.SWEDiSH.720p.WEB.h264-SAAB
2017-01-22 08:16:13 Lord_Of_The_Isles-Clearness_of_Love-(PERMVAC141-1)-WEB-2015-ENSLAVE
2017-01-22 08:16:26 Lord_Of_The_Isles-Galaxy_Near_You-Part_One-(LS002)-WEB-2015-ENSLAVE
2017-01-22 08:16:43 Lord_Of_The_Isles-Greane__Gigha-(PHONICA013)-WEB-2014-ENSLAVE
2017-01-22 08:16:57 Lord_Of_The_Isles-Hot_Blobs_EP-(LS001)-WEB-2015-ENSLAVE
2017-01-22 08:17:13 Lord_of_the_Isles-Futures-(UNTHANK003)-WEB-2013-ENSLAVE
2017-01-22 08:17:29 OTF_And_David_Temessi-Dark_Solar-EP-(MDR011)-WEB-2013-ENSLAVE
2017-01-22 08:17:45 Steve_Shaden-Acid_Mind-(YYR129)-WEB-2015-ENSLAVE
2017-01-22 08:18:00 Steve_Shaden-Avenger_Ep-(TLR0040)-WEB-2014-ENSLAVE
2017-01-22 08:18:15 Steve_Shaden-Criminal_Madhouse_EP-(NLD357)-WEB-2016-ENSLAVE
2017-01-22 08:18:31 Steve_Shaden-Frantic_Mind-(YYR172)-WEB-2016-ENSLAVE
2017-01-22 08:18:47 Steve_Shaden-Kelevra-(ITADI203)-WEB-2014-ENSLAVE
2017-01-22 08:19:04 Steve_Shaden-Monarch_EP-(DM019)-WEB-2016-ENSLAVE
2017-01-22 08:19:17 Steve_Shaden-My_Beats_EP-(NLD321)-WEB-2015-ENSLAVE
2017-01-22 08:19:34 Steve_Shaden-No_Future-(FNDEP045)-WEB-2015-ENSLAVE
2017-01-22 08:19:49 Steve_Shaden-Revenge-EP-(PR028)-WEB-2016-ENSLAVE
2017-01-22 08:19:53 Negativ-Bastion-DAB-08-01-2017-AFO
2017-01-22 08:20:05 Steve_Shaden-The_Blindspot-(TMM189)-WEB-2016-ENSLAVE
2017-01-22 08:20:20 Steve_Shaden-The_Heavyweight-(ELEK306)-WEB-2016-ENSLAVE
2017-01-22 08:20:36 Steve_Shaden_And_Kristina_Lalic-Hydra-(NLD304)-WEB-2015-ENSLAVE
2017-01-22 08:20:41 Till_Von_Sein-Bastion-DAB-08-01-2017-AFO
2017-01-22 08:20:51 Steve_Shaden_Kristina_Lalic-FellinU-(IAMT103)-WEB-2016-ENSLAVE
2017-01-22 08:21:11 Trevor_Benz-Van_Grutten__Stay_True__Madrid_Street-WEB-2016-ENSLAVE
2017-01-22 08:21:22 VA-Joint_Venture_EP_Vol_12-(NLD299)-WEB-2015-ENSLAVE
2017-01-22 08:21:38 VA-Joint_Venture_EP_Vol_13-(NLD356)-WEB-2016-ENSLAVE
2017-01-22 08:21:53 VA-Joint_Venture_EP_Vol_14-(NLD373)-WEB-2016-ENSLAVE
2017-01-22 08:22:09 VA-Resources-Round_One-(SQT008)-WEB-2014-ENSLAVE
2017-01-22 08:22:24 VA-Slipside-(LGR001)-WEB-2016-ENSLAVE
2017-01-22 08:24:48 ShemalesFromHell.16.12.03.Leticia.Rodrigues.And.Pablo.Montero.XXX.1080p.MP4-oRo
2017-01-22 08:26:27 ShemalesFromHell.16.12.03.Lorena.Di.Castro.And.Marcus.XXX.1080p.MP4-oRo
2017-01-22 08:27:47 TokyoHot.16.11.24.Neat.Beauty.Captured.By.Devils.XXX.720p.MP4-oRo
2017-01-22 08:28:08 Voltron.Legendary.Defender.S02E01.WEB.X264-DEFLATE
2017-01-22 08:29:09 TokyoHot.16.11.30.Fantastic.Beauties.Double.Fuck.XXX.720p.MP4-oRo
2017-01-22 08:29:19 Voltron.Legendary.Defender.S02E02.WEB.X264-DEFLATE
2017-01-22 08:30:22 Voltron.Legendary.Defender.S02E03.WEB.X264-DEFLATE
2017-01-22 08:30:30 TokyoHot.16.12.04.Garlish.Beauty.Splash.Gangbang.XXX.720p.MP4-oRo
2017-01-22 08:31:25 Voltron.Legendary.Defender.S02E04.WEB.X264-DEFLATE
2017-01-22 08:32:28 Voltron.Legendary.Defender.S02E05.WEB.X264-DEFLATE
2017-01-22 08:33:31 Voltron.Legendary.Defender.S02E06.WEB.X264-DEFLATE
2017-01-22 08:34:34 Voltron.Legendary.Defender.S02E07.WEB.X264-DEFLATE
2017-01-22 08:35:04 Celebrity.Big.Brother.S19E22.1080p.HDTV.x264-PLUTONiUM
2017-01-22 08:35:37 Voltron.Legendary.Defender.S02E08.WEB.X264-DEFLATE
2017-01-22 08:36:40 Voltron.Legendary.Defender.S02E09.WEB.X264-DEFLATE
2017-01-22 08:37:43 Voltron.Legendary.Defender.S02E10.WEB.X264-DEFLATE
2017-01-22 08:37:58 Lip.Sync.Battle.UK.S02E03.HDTV.x264-PLUTONiUM
2017-01-22 08:38:46 Voltron.Legendary.Defender.S02E11.WEB.X264-DEFLATE
2017-01-22 08:38:47 Voltron.Legendary.Defender.S02E11.WEBX264-DEFLATE
2017-01-22 08:39:48 Voltron.Legendary.Defender.S02E12.WEB.X264-DEFLATE
2017-01-22 08:39:49 Voltron.Legendary.Defender.S02E12.WEBX264-DEFLATE
2017-01-22 08:40:48 Lip.Sync.Battle.UK.S02E03.720p.HDTV.x264-PLUTONiUM
2017-01-22 08:40:52 Voltron.Legendary.Defender.S02E13.WEB.X264-DEFLATE
2017-01-22 08:41:16 Alberto_Ruiz-Contrast-WEB-2016-BB8
2017-01-22 08:41:49 Alberto_Ruiz-Mod_3-WEB-2016-BB8
2017-01-22 08:41:57 Alberto_Ruiz-Old-WEB-2016-BB8
2017-01-22 08:42:08 Alberto_Ruiz-Remotest_Island_EP-WEB-2016-BB8
2017-01-22 08:42:19 Alberto_Ruiz-Tropico_EP-WEB-2016-BB8
2017-01-22 08:46:35 Alberto_Ruiz-Blackforest_EP-WEB-2015-BB8
2017-01-22 08:47:15 Alberto_Ruiz-Orca-WEB-2015-BB8
2017-01-22 08:48:01 Alberto_Ruiz-Submarino__Sustained-WEB-2015-BB8
2017-01-22 08:48:22 Jazzanova--Kaleidoskop-DVBS-01-21-2017-OMA
2017-01-22 08:48:42 AllFineGirls.17.01.20.Taisia.Shanti.A.Girl.Led.Astray.XXX.1080p.MP4-KTR
2017-01-22 08:49:00 ATKGirlfriends.17.01.22.Penelope.Reed.XXX.1080p.MP4-KTR
2017-01-22 08:49:16 WowGirls.17.01.21.Lovenia.And.Kristy.Black.Romantic.Bed.Games.XXX.1080p.MP4-KTR
2017-01-22 08:49:34 WowPorn.17.01.22.Gina.Gerson.And.Mia.Shes.Got.A.Hold.On.Me.XXX.1080p.MP4-KTR
2017-01-22 08:54:44 Modern.Family.S08E10.SPANiSH.1080p.HDTV.x264-FCC
2017-01-22 08:55:28 Modern.Family.S08E10.SPANiSH.720p.HDTV.x264-FCC
2017-01-22 08:55:55 Modern.Family.S08E10.SPANiSH.HDTV.x264-FCC
2017-01-22 08:58:05 Una.Serie.De.Catastroficas.Desdichas.S01E05.SPANiSH.1080p.WEBRip.x264-FCC
2017-01-22 08:59:05 VA-Buddha-Bar_VI-By_Ravin-PROPER-2CD-2004-BLA
2017-01-22 08:59:22 Una.Serie.De.Catastroficas.Desdichas.S01E05.SPANiSH.720p.WEBRip.x264-FCC
2017-01-22 08:59:50 Una.Serie.De.Catastroficas.Desdichas.S01E05.SPANiSH.WEBRip.x264-FCC
2017-01-22 09:00:42 Die.glorreichen.Sieben.2016.German.DL.1080p.BluRay.x264-ENCOUNTERS
2017-01-22 09:03:16 Una.Serie.De.Catastroficas.Desdichas.S01E06.SPANiSH.1080p.WEBRip.x264-FCC
2017-01-22 09:04:45 Una.Serie.De.Catastroficas.Desdichas.S01E06.SPANiSH.720p.WEBRip.x264-FCC
2017-01-22 09:05:19 Una.Serie.De.Catastroficas.Desdichas.S01E06.SPANiSH.WEBRip.x264-FCC
2017-01-22 09:05:39 BumsBuero.17.01.22.Holly.Banks.GERMAN.XXX.1080p.MP4-KTR
2017-01-22 09:05:48 Voltron.Legendary.Defender.S02E01.720p.WEBRip.X264-DEFLATE
2017-01-22 09:05:55 Lip.Sync.Battle.UK.S02E03.1080p.HDTV.x264-PLUTONiUM
2017-01-22 09:07:35 DiaryOfANanny.17.01.22.Zoe.Clark.XXX.1080p.MP4-KTR
2017-01-22 09:07:50 MyNaughtyAlbum.17.01.22.Lucy.De.Light.XXX.1080p.MP4-KTR
2017-01-22 09:08:33 Una.Serie.De.Catastroficas.Desdichas.S01E07.SPANiSH.1080p.WEBRip.x264-FCC
2017-01-22 09:09:08 Voltron.Legendary.Defender.S02E02.720p.WEBRip.X264-DEFLATE
2017-01-22 09:09:08 QuestForOrgasm.17.01.22.Stacy.Snake.XXX.1080p.MP4-KTR
2017-01-22 09:10:00 Una.Serie.De.Catastroficas.Desdichas.S01E07.SPANiSH.720p.WEBRip.x264-FCC
2017-01-22 09:10:07 TheWhiteBoxxx.17.01.22.Vanessa.Decker.XXX.1080p.MP4-KTR
2017-01-22 09:10:49 Una.Serie.De.Catastroficas.Desdichas.S01E07.SPANiSH.WEBRip.x264-FCC
2017-01-22 09:10:56 Errotica-Archives.17.01.22.Elle.Rose.My.Diary.XXX.1080p.MP4-KTR
2017-01-22 09:11:27 MetArtX.17.01.22.Cara.Mell.Before.Reading.XXX.1080p.MP4-KTR
2017-01-22 09:11:46 RylskyArt.17.01.22.Melissa.Ray.Plesira.XXX.720p.MP4-KTR
2017-01-22 09:12:51 Voltron.Legendary.Defender.S02E03.720p.WEBRip.X264-DEFLATE
2017-01-22 09:13:09 EternalDesire.17.01.22.Gloria.Sol.Aire.XXX.1080p.MP4-KTR
2017-01-22 09:13:58 MetArt.17.01.22.Noel.Monique.Wanderlust.XXX.1080p.MP4-KTR
2017-01-22 09:14:21 MetArt.com_17.01.22.Patritcy.A.Megaen.XXX.iMAGESET-YAPG
2017-01-22 09:14:54 SexArt.17.01.22.Cherry.Bright.Join.Together.XXX.1080p.MP4-KTR
2017-01-22 09:15:29 TheLifeErotic.17.01.22.Ferggy.Alone.2.XXX.1080p.MP4-KTR
2017-01-22 09:16:34 JamesDeen.17.01.22.Abella.Danger.XXX.1080p.MP4-KTR
2017-01-22 09:18:47 Spizoo.17.01.22.Jessa.Rhodes.Personal.Tape.XXX.1080p.MP4-KTR
2017-01-22 09:19:44 MetArt.com_17.01.22.Mia.Sollis.Folme.XXX.iMAGESET-YAPG
2017-01-22 09:20:33 Seven.Lucky.Gods.2014.BDRiP.x264-GUACAMOLE
2017-01-22 09:20:36 DiaryOfANanny.17.01.22.Zoe.Clark.XXX.2160p.MP4-KTR
2017-01-22 09:21:59 MetArt.com_17.01.22.Daniel.Sea.Kenna.XXX.iMAGESET-YAPG
2017-01-22 09:24:22 TheLifeErotic.com_17.01.22.Ferggy.Alone.1.XXX.iMAGESET-YAPG
2017-01-22 09:26:27 EroticBeauty.com_17.01.22.Paris.Devine.Presenting.Paris.Devine.XXX.iMAGESET-YAPG
2017-01-22 09:26:31 Seven.Lucky.Gods.2014.720p.BluRay.x264-GUACAMOLE
2017-01-22 09:33:38 Mystic.Journey.TriPeaks.Solitaire-F4CG
2017-01-22 09:34:07 Seven.Lucky.Gods.2014.1080p.BluRay.x264-GUACAMOLE
2017-01-22 09:36:39 Ley.Y.Orden.UVE.S17E12.SPANiSH.1080p.HDTV.x264-FCC
2017-01-22 09:37:05 Ley.Y.Orden.UVE.S17E12.SPANiSH.720p.HDTV.x264-FCC
2017-01-22 09:37:11 Stjarnorna.Pa.Slottet.S11E04.SWEDiSH.720p.HDTV.x264-xD2V
2017-01-22 09:37:41 Ley.Y.Orden.UVE.S17E12.SPANiSH.HDTV.x264-FCC
2017-01-22 09:37:55 Ley.Y.Orden.UVE.S17E13.SPANiSH.1080p.HDTV.x264-FCC
2017-01-22 09:38:24 Ley.Y.Orden.UVE.S17E13.SPANiSH.720p.HDTV.x264-FCC
2017-01-22 09:38:53 Ley.Y.Orden.UVE.S17E13.SPANiSH.HDTV.x264-FCC
2017-01-22 09:39:04 Una.Serie.De.Catastroficas.Desdichas.S01E08.SPANiSH.1080p.WEBRip.x264-FCC
2017-01-22 09:39:50 Una.Serie.De.Catastroficas.Desdichas.S01E08.SPANiSH.720p.WEBRip.x264-FCC
2017-01-22 09:40:25 Una.Serie.De.Catastroficas.Desdichas.S01E08.SPANiSH.WEBRip.x264-FCC
2017-01-22 09:44:04 Dick.Drunk.XXX.720p.WEBRip.MP4-VSEX
2017-01-22 09:45:09 Art.Ninja.S02E01.720p.WEB.h264-ROFL
2017-01-22 09:45:10 Art.Ninja.S02E01.WEB.h264-ROFL
2017-01-22 09:45:13 Art.Ninja.S02E02.WEB.h264-ROFL
2017-01-22 09:45:15 Art.Ninja.S02E02.720p.WEB.h264-ROFL
2017-01-22 09:45:18 Art.Ninja.S03E01.WEB.h264-ROFL
2017-01-22 09:45:21 Art.Ninja.S03E01.720p.WEB.h264-ROFL
2017-01-22 09:45:25 Big.Dreams.Small.Spaces.S03E02.720p.WEB.h264-ROFL
2017-01-22 09:45:26 Big.Dreams.Small.Spaces.S03E02.WEB.h264-ROFL
2017-01-22 09:45:29 Delete.Delete.Delete.S02E03.WEB.h264-ROFL
2017-01-22 09:45:33 Charlie.Rose.The.Week.2017.01.06.1080p.WEB.h264-ROFL
2017-01-22 09:45:34 Charlie.Rose.The.Week.2017.01.06.720p.WEB.h264-ROFL
2017-01-22 09:45:37 Charlie.Rose.The.Week.2017.01.06.WEB.h264-ROFL
2017-01-22 09:45:42 Charlie.Rose.The.Week.2017.01.13.1080p.WEB.h264-ROFL
2017-01-22 09:45:43 Charlie.Rose.The.Week.2017.01.13.720p.WEB.h264-ROFL
2017-01-22 09:45:44 Charlie.Rose.The.Week.2017.01.13.WEB.h264-ROFL
2017-01-22 09:45:52 Dawn.French.Live.30.Million.Minutes.WEB.h264-ROFL
2017-01-22 09:45:52 Delete.Delete.Delete.S02E02.WEB.h264-ROFL
2017-01-22 09:45:54 Common.Sense.S01E01.WEB.h264-ROFL
2017-01-22 09:45:55 Common.Sense.S01E02.WEB.h264-ROFL
2017-01-22 09:45:59 Dawn.French.Live.30.Million.Minutes.720p.WEB.h264-ROFL
2017-01-22 09:55:58 ET.Canada.2017.01.19.WEB.h264-ROFL
2017-01-22 09:55:58 ET.Canada.2017.01.20.WEB.h264-ROFL
2017-01-22 09:56:06 Football.Focus.2017.01.21.720p.WEB.h264-ROFL
2017-01-22 09:56:07 Football.Focus.2017.01.21.WEB.h264-ROFL
2017-01-22 09:56:13 Gang.Girls.720p.WEB.h264-ROFL
2017-01-22 09:56:14 Gang.Girls.WEB.h264-ROFL
2017-01-22 09:56:18 In.Trump.We.Trust.720p.WEB.h264-ROFL
2017-01-22 09:56:20 In.Trump.We.Trust.WEB.h264-ROFL
2017-01-22 09:56:22 Innuendo.Bingo.2017.01.10.Lower.Than.Atlantis.720p.WEB.h264-ROFL
2017-01-22 09:56:23 Innuendo.Bingo.2017.01.10.Lower.Than.Atlantis.WEB.h264-ROFL
2017-01-22 09:56:26 Innuendo.Bingo.2017.01.17.Tom.Kerridge.720p.WEB.h264-ROFL
2017-01-22 09:56:26 Innuendo.Bingo.2017.01.17.Tom.Kerridge.WEB.h264-ROFL
2017-01-22 09:56:30 Innuendo.Bingo.2017.01.17.Will.Best.720p.WEB.h264-ROFL
2017-01-22 09:56:31 Innuendo.Bingo.2017.01.17.Will.Best.WEB.h264-ROFL
2017-01-22 09:56:34 Innuendo.Bingo.2017.01.19.Conor.Maynard.720p.WEB.h264-ROFL
2017-01-22 09:56:34 Innuendo.Bingo.2017.01.19.Conor.Maynard.WEB.h264-ROFL
2017-01-22 09:56:39 Let.It.Shine.2017.S01E02.720p.WEB.h264-ROFL
2017-01-22 09:56:40 Let.It.Shine.2017.S01E02.WEB.h264-ROFL
2017-01-22 09:56:41 Let.It.Shine.2017.S01E03.720p.WEB.h264-ROFL
2017-01-22 09:56:42 Let.It.Shine.2017.S01E03.WEB.h264-ROFL
2017-01-22 09:58:29 Die.glorreichen.Sieben.2016.DUAL.COMPLETE.BLURAY-GMB
2017-01-22 10:00:30 Die.glorreichen.Sieben.German.2016.AC3.BDRiP.x264-XF
2017-01-22 10:04:03 AlunaGeorge-I_Remember-2016-C4
2017-01-22 10:05:06 Shapov-Beats_Do_Work-(MNMRK003)-WEB-2017-KiEF
2017-01-22 10:06:08 Nikki_Yanofsky-Solid_Gold-(EP)-2016-C4
2017-01-22 10:06:46 M83_Ft._Mai_Lan-Go_(KC_Lights_Remix)-(BLV2993123)-WEB-2017-KiEF
2017-01-22 10:08:16 Ben_Liebrand_-_In_the_Mix-CABLE-01-21-2017-TALiON
2017-01-22 10:09:30 Dana_Dawson-Romantic_World-12INCH_VINYL-FLAC-1990-LoKET
2017-01-22 10:09:31 Die.Sieben.Gluecksgoetter.Der.Preis.der.Freiheit.2014.German.DL.1080p.BluRay.MPEG2-ARMO
2017-01-22 10:09:43 Shermanology-Movin_Too_Fast_Remixes_Part_II-(ARMAS1175R1)-WEB-2017-DJ
2017-01-22 10:09:47 Danaeh-Gone_Away-12INCH_VINYL-FLAC-1992-LoKET
2017-01-22 10:10:04 Darkman-Yabba_Dabba_Doo-12INCH_VINYL-FLAC-1993-LoKET
2017-01-22 10:10:21 Mary_Davis-Have_You_Been_Loved-12INCH_VINYL-FLAC-1990-LoKET
2017-01-22 10:10:36 Nancy_Davies-If_You_Belonged_To_Me-12INCH_VINYL-FLAC-1992-LoKET
2017-01-22 10:11:35 The_Katherines-To_Bring_You_My_Heart-2017-C4
2017-01-22 10:14:52 Dick.Drunk.XXX.1080p.WEBRip.MP4-VSEX
2017-01-22 10:15:29 Neal.Brennan.3.Mics.2017.720p.WEBRip.X264-DEFLATE
2017-01-22 10:17:34 Blutsbande.S02E04.German.HDTVRip.x264-ARC
2017-01-22 10:18:18 Blutsbande.S02E05.German.HDTVRip.x264-ARC
2017-01-22 10:18:49 Blutsbande.S02E06.German.HDTVRip.x264-ARC
2017-01-22 10:19:36 Blutsbande.S02E04.German.HDTV.720p.x264-ARC
2017-01-22 10:20:18 Blutsbande.S02E05.German.HDTV.720p.x264-ARC
2017-01-22 10:20:59 Blutsbande.S02E06.German.HDTV.720p.x264-ARC
2017-01-22 10:21:04 Mary_J._Blige-Im_Goin_Down-Promo_CDS-1995-OSC
2017-01-22 10:21:11 The.Shadow.Of.A.Milf.XXX.720p.WEBRip.MP4-VSEX
2017-01-22 10:21:43 VA_-_Pure_Trance_Progressive_Extended-(PTP016)-WEB-2017-MMS
2017-01-22 10:23:32 Sinbad.and.the.War.of.the.Furies.3D.2016.1080p.BluRay.x264-UNVEiL
2017-01-22 10:24:22 BangBrosClips.17.01.22.Jessa.Rhodes.XXX.1080p.MP4-KTR
2017-01-22 10:27:53 Neal.Brennan.3.Mics.2017.WEBRip.X264-DEFLATE
2017-01-22 10:29:23 Weet.Ik.Veel.S05E02.DUTCH.720p.HDTV.x264-iFH
2017-01-22 10:35:05 Rupture.2016.German.720p.BluRay.x264-ROOR
2017-01-22 10:35:32 Rupture.German.2016.BDRip.x264-ROOR
2017-01-22 10:36:46 Rupture.2016.German.DL.1080p.BluRay.x264-ROOR
2017-01-22 10:37:58 Moby--Remixes-(2DIY1417)-WEB-2016-dh
2017-01-22 10:38:08 Ma.Ma.Der.Ursprung.der.Liebe.2015.DUAL.COMPLETE.BLURAY-ROOR
2017-01-22 10:38:38 Nicone--Luxation_Remix_EP-(KATER133)-WEB-2016-dh_int
2017-01-22 10:39:11 Sailor_And_I--Leave_The_Light_On-(UL6566)-WEB-2015-dh
2017-01-22 10:39:20 Sailor_And_I--Leave_The_Light_On_(Remixes)-(UL6458)-WEB-2015-dh
2017-01-22 10:39:33 Deutschland.sucht.den.Superstar.S14E06.GERMAN.720p.HDTV.x264-RTL
2017-01-22 10:39:44 Mobile.Suit.Gundam.Unicorn.Re.0096.E03.DUBBED.720p.HDTV.x264-CRiMSON
2017-01-22 10:40:01 Mobile.Suit.Gundam.Unicorn.Re.0096.E03.DUBBED.HDTV.x264-CRiMSON
2017-01-22 10:40:20 Live.Lounge.2017.01.10.You.Me.At.Six.720p.WEB.h264-ROFL
2017-01-22 10:40:22 Live.Lounge.2017.01.10.You.Me.At.Six.WEB.h264-ROFL
2017-01-22 10:40:23 Live.Lounge.2017.01.13.The.xx.720p.WEB.h264-ROFL
2017-01-22 10:40:23 Live.Lounge.2017.01.13.The.xx.WEB.h264-ROFL
2017-01-22 10:40:28 Oscar_Wilde_Und_Mycroft_Holmes-07_Ritual_Des_Grauens-DE-AUDIOBOOK-CD-FLAC-2017-VOLDiES
2017-01-22 10:40:37 Live.Lounge.2017.01.19.Naughty.Boy.720p.WEB.h264-ROFL
2017-01-22 10:40:39 Live.Lounge.2017.01.19.Naughty.Boy.WEB.h264-ROFL
2017-01-22 10:40:40 Lost.Kingdoms.of.Central.America.S01E03.WEB.h264-ROFL
2017-01-22 10:40:46 MOTD.Kickabout.2017.01.14.Ronaldo.Special.WEB.h264-ROFL
2017-01-22 10:40:47 MOTD.Kickabout.2017.01.14.Ronaldo.Special.720p.WEB.h264-ROFL
2017-01-22 10:40:48 Lost.Kingdoms.of.Central.America.S01E03.720p.WEB.h264-ROFL
2017-01-22 10:40:50 MOTD.Kickabout.2017.01.21.720p.WEB.h264-ROFL
2017-01-22 10:40:51 MOTD.Kickabout.2017.01.21.WEB.h264-ROFL
2017-01-22 10:40:54 Revolting.S01E02.WEB.h264-ROFL
2017-01-22 10:40:54 Revolting.S01E03.WEB.h264-ROFL
2017-01-22 10:40:59 SciTech.Now.S03E14.1080p.WEB.h264-ROFL
2017-01-22 10:41:07 SciTech.Now.S03E14.720p.WEB.h264-ROFL
2017-01-22 10:41:10 SciTech.Now.S03E15.WEB.h264-ROFL
2017-01-22 10:41:11 SciTech.Now.S03E14.WEB.h264-ROFL
2017-01-22 10:41:11 SciTech.Now.S03E15.1080p.WEB.h264-ROFL
2017-01-22 10:41:12 SciTech.Now.S03E15.720p.WEB.h264-ROFL
2017-01-22 10:41:26 DP.Masters.4.XXX.1080p.WEBRiP.MP4-GUSH
2017-01-22 10:41:57 Deutschland.sucht.den.Superstar.S14E06.GERMAN.HDTV.x264-RTL
2017-01-22 10:43:07 Gladiatorerna.S11E03.SWEDiSH.720p.HDTV.x264-xD2V
2017-01-22 10:43:12 All.You.Need.Is.Love.S26E02.DUTCH.720p.HDTV.x264-iFH
2017-01-22 10:45:39 Ich.bin.ein.Star.Holt.mich.hier.raus.S11E09.GERMAN.720p.HDTV.x264-RTL
2017-01-22 10:46:46 Ich.bin.ein.Star.Holt.mich.hier.raus.S11E09.GERMAN.HDTV.x264-RTL
2017-01-22 10:50:37 Gods.Pocket.2014.PL.DUAL.720p.BluRay.x264-FLAME
2017-01-22 10:58:04 Ben_Liebrand-In_The_Mix_(Radio_10)-DAB-21-01-2017-SC
2017-01-22 10:58:49 Wayne_Arnold-Tough_Life-CD-1992-SC
2017-01-22 10:59:12 Wayne_Arnold-Tough_Life-CD-FLAC-1992-SCF
2017-01-22 11:01:30 Boxing.2017.01.21.Zoltan.Szabo.vs.Robbie.Davies.Jnr.720p.HDTV.x264-VERUM
2017-01-22 11:02:09 Jake_Bugg-Rock_En_Seine_Festival-DVBS-2014-JUST
2017-01-22 11:05:30 Jiri.Glet.-.Turisticky.pruvodce.I.zajimavosti.z.ceskych.hradu.a.zamku.2016.CZECH.RETAiL.eBook-MoCB
2017-01-22 11:07:12 Jiri.Glet.-.Turisticky.pruvodce.II.zajimavosti.z.ceskych.hradu.a.zamku.2016.CZECH.RETAiL.eBook-MoCB
2017-01-22 11:07:41 Frank_Leicher_-_Live_at_Clubbers_Paradise-CABLE-01-21-2017-XDS
2017-01-22 11:07:56 Jiri.Glet.-.Turisticky.pruvodce.III.zajimavosti.z.ceskych.hradu.a.zamku.2016.CZECH.RETAiL.eBook-MoCB
2017-01-22 11:08:18 Jiri.Glet.-.Turisticky.pruvodce.II.zajimavosti.z.ceskych.hradu.a.zamku.2016.CZECH.RETAiL.ePUB.eBook-MoCB
2017-01-22 11:09:19 Kingdom_Come-Twilight_Cruiser-(33_008-423)-CD-FLAC-1995-RUiL
2017-01-22 11:10:33 Sound.of.Musicals.with.Neil.Brand.S01E01.720p.WEB.h264-ROFL
2017-01-22 11:10:35 Sound.of.Musicals.with.Neil.Brand.S01E01.WEB.h264-ROFL
2017-01-22 11:10:39 Sound.of.Musicals.with.Neil.Brand.S01E02.720p.WEB.h264-ROFL
2017-01-22 11:10:40 Sound.of.Musicals.with.Neil.Brand.S01E02.WEB.h264-ROFL
2017-01-22 11:10:42 Talking.Pictures.2013.S02E22.Alan.Rickman.720p.WEB.h264-ROFL
2017-01-22 11:10:43 Talking.Pictures.2013.S02E22.Alan.Rickman.WEB.h264-ROFL
2017-01-22 11:10:46 Talking.Pictures.2013.S02E23.Debbie.Reynolds.WEB.h264-ROFL
2017-01-22 11:10:51 The.Dengineers.S02E06.720p.WEB.h264-ROFL
2017-01-22 11:10:53 The.Dengineers.S02E07.WEB.h264-ROFL
2017-01-22 11:10:53 The.Dengineers.S02E07.720p.WEB.h264-ROFL
2017-01-22 11:10:59 The.Dengineers.S02E08.720p.WEB.h264-ROFL
2017-01-22 11:10:59 The.Dengineers.S02E08.WEB.h264-ROFL
2017-01-22 11:10:59 The.Dog.Ate.My.Homework.S04E07.720p.WEB.h264-ROFL
2017-01-22 11:11:00 The.Dog.Ate.My.Homework.S04E07.WEB.h264-ROFL
2017-01-22 11:11:05 The.Dengineers.S02E06.WEB.h264-ROFL
2017-01-22 11:11:06 The.Dog.Ate.My.Homework.S04E08.720p.WEB.h264-ROFL
2017-01-22 11:11:11 The.Dog.Ate.My.Homework.S04E08.WEB.h264-ROFL
2017-01-22 11:11:13 The.National.Lottery.Draws.2017.01.21.720p.WEB.h264-ROFL
2017-01-22 11:11:14 The.National.Lottery.Draws.2017.01.21.WEB.h264-ROFL
2017-01-22 11:11:18 The.Paper.Thistle.200.Years.of.the.Scotsman.WEB.h264-ROFL
2017-01-22 11:11:20 Tourettes.Teenage.Tics.720p.WEB.h264-ROFL
2017-01-22 11:11:20 Tourettes.Teenage.Tics.WEB.h264-ROFL
2017-01-22 11:11:26 The.National.Lottery.Draws.2017.01.14.WEB.h264-ROFL
2017-01-22 11:11:30 The.National.Lottery.Draws.2017.01.14.720p.WEB.h264-ROFL
2017-01-22 11:11:34 DJ_Target_-_BBC_Radio1__Incl_Jaguar_Skillz_Guestmix-SAT-01-22-2017-TALiON
2017-01-22 11:12:27 Diplo_-_Diplo_and_Friends-SAT-01-22-2017-TALiON
2017-01-22 11:14:03 Dave_Clarke_-_White_Noise_577-SAT-01-22-2017-TALiON
2017-01-22 11:15:09 Phil_Ochs-I_Aint_Marching_Anymore-BONUS_TRACK-WEB-1965-ENTiTLED
2017-01-22 11:15:25 Rust_on_the_Rails-Talisman-WEB-2017-ENTiTLED
2017-01-22 11:15:42 Frustkiller-Treibgut-WEB-DE-2017-ENTiTLED
2017-01-22 11:16:12 Eddie_Halliwell_-_Fire_it_Up-SAT-01-22-2017-TALiON
2017-01-22 11:18:30 Grand.Pigeons.Duty-ALiAS
2017-01-22 11:18:50 The_Colts-Hard_to_Handle-WEB-2013-ENTiTLED
2017-01-22 11:20:21 Zero.Escape.Zero.Time.Dilemma-DARKSiDERS
2017-01-22 11:22:46 Angerhead-Fueled_by_Rage-WEB-2016-ENTiTLED
2017-01-22 11:27:29 1642.Beats.Future.House.Tools.Vol.1.MULTiFORMAT-MASCHiNE
2017-01-22 11:27:43 1642.Beats.Tropical.House.Tools.Vol.1.MULTiFORMAT-MASCHiNE
2017-01-22 11:27:53 Big.Fish.Audio.Southern.Grillin.MULTiFORMAT-MASCHiNE
2017-01-22 11:28:16 Metal_Witch-Tales_from_the_Underground-WEB-2016-ENTiTLED
2017-01-22 11:29:24 Kyros-Vox_Humana-WEB-2016-ENTiTLED
2017-01-22 11:30:26 Der.Aethiopier.German.2015.AC3.DVDRip.x264-OMGtv
2017-01-22 11:32:33 Glitter.Glanz.eines.Stars.2001.German.AC3D.DL.720p.BluRay.x264-OMGtv
2017-01-22 11:34:04 Airport.Madness.3D-SiMPLEX
2017-01-22 11:34:35 Callin_Tommy-Sweet_Toxin-WEB-2016-ENTiTLED
2017-01-22 11:34:49 Callin_Tommy-One_of_the_Gang-WEB-2013-ENTiTLED
2017-01-22 11:35:05 Cairo-Say-WEB-2016-ENTiTLED
2017-01-22 11:36:06 Blackish.S03E08.SPANiSH.1080p.HDTV.x264-FERiCE
2017-01-22 11:36:18 Captain.Future.E12.REMASTERED.FRENCH.720p.BluRay.x264-SHiNiGAMi
2017-01-22 11:36:46 Blackish.S03E08.SPANiSH.720p.HDTV.x264-FERiCE
2017-01-22 11:37:10 Blackish.S03E08.SPANiSH.HDTV.x264-FERiCE
2017-01-22 11:37:16 Shinjuku.Triad.Society.1995.Rainy.Dog.1997.COMPLETE.BLURAY-UNRELiABLE
2017-01-22 11:38:22 House.S05E13.SPANiSH.1080p.HDTV.x264-FERiCE
2017-01-22 11:38:51 Glitter.Glanz.eines.Stars.2001.German.AC3D.DL.1080p.BluRay.x264-OMGtv
2017-01-22 11:39:16 House.S05E13.SPANiSH.720p.HDTV.x264-FERiCE
2017-01-22 11:39:46 P3.Guld.2017.SWEDiSH.720p.HDTV.x264-KAFFEREP
2017-01-22 11:39:48 House.S05E13.SPANiSH.HDTV.x264-FERiCE
2017-01-22 11:40:37 Die.glorreichen.Sieben.2016.German.720p.BluRay.x264-ENCOUNTERS
2017-01-22 11:40:56 House.S05E14.SPANiSH.1080p.HDTV.x264-FERiCE
2017-01-22 11:40:59 Captain.Future.E12.REMASTERED.MULTi.1080p.BluRay.x264-SHiNiGAMi
2017-01-22 11:41:48 House.S05E14.SPANiSH.720p.HDTV.x264-FERiCE
2017-01-22 11:42:17 House.S05E14.SPANiSH.HDTV.x264-FERiCE
2017-01-22 11:42:57 Mom.S04E08.SPANiSH.1080p.HDTV.x264-FERiCE
2017-01-22 11:43:31 Mom.S04E08.SPANiSH.720p.HDTV.x264-FERiCE
2017-01-22 11:43:45 DP.Masters.4.XXX.720p.WEBRiP.MP4-GUSH
2017-01-22 11:43:59 Mom.S04E08.SPANiSH.HDTV.x264-FERiCE
2017-01-22 11:44:38 PornstarPlatinum.17.01.22.Savana.Styles.In.3.Way.Fun.With.Jessa.Rhodes.XXX.1080p.MP4-FaiLED
2017-01-22 11:45:04 PornstarPlatinum.com_17.01.22.Savana.Styles.In.3.Way.Fun.With.Jessa.Rhodes.XXX.iMAGESET-FaiLED
2017-01-22 11:45:42 Captain.Future.E12.REMASTERED.SUBFRENCH.720p.BluRay.x264-SHiNiGAMi
2017-01-22 11:46:02 Rekkorder-Breaking_Silence-WEB-2016-ENTiTLED
2017-01-22 11:49:14 Journey.with.Dylan.Dreyer.S01E10.720p.WEB.x264-HEAT
2017-01-22 11:49:15 ADSR.Sounds.808s.and.Sub.Bass.Masterclass.TUTORiAL-DYNAMiCS
2017-01-22 11:53:47 Auddict.Celestial.Voices.Ceres.KONTAKT-DYNAMiCS
2017-01-22 11:54:08 Auddict.Drums.of.the.Deep.Vol.1.KONTAKT-DYNAMiCS
2017-01-22 11:55:07 The.Voyager.with.Josh.Garcia.S01E10.720p.WEB.x264-HEAT
2017-01-22 11:57:08 Auddict.Master.Brass.Trombones.KONTAKT-DYNAMiCS
2017-01-22 11:57:25 Auddict.Octohorn.KONTAKT-DYNAMiCS
2017-01-22 11:58:53 Guerreros.De.Antanyo.1994.SPANiSH.BDRip.x264-TORO
2017-01-22 11:59:20 Guerreros.De.Antanyo.1994.SPANiSH.MULTi.720p.BluRay.x264-TORO
2017-01-22 11:59:56 Ley.Lines.1999.COMPLETE.BLURAY-UNRELiABLE
2017-01-22 12:00:25 Die.Mafia.Story.Kinofassung.German.1973.AC3.BDRiP.x264-ARMO
2017-01-22 12:00:34 Audiofreq_-_Welcome_To_The_Future_(Chain_Reaction_Remix)-(APHET005)-WEB-2017-MMS
2017-01-22 12:00:49 Eddie_Lung_-_Sirius-(RDX222)-WEB-2017-MMS
2017-01-22 12:00:59 Rebourne_-_Right_Now-(WER076)-WEB-2017-MMS
2017-01-22 12:01:13 Sephyx_and_Bonnie_X_Clyde_-_Where_It_Hurts-WEB-2017-MMS
2017-01-22 12:01:34 Amine_Maxwell_-_None_2017-(SUBMISSION049)-WEB-2017-MMS
2017-01-22 12:01:55 Greg_Thomas_-_Across_The_Sky_(Incl._Edit)-(FLASHTR051)-WEB-2017-MMS
2017-01-22 12:02:10 Skinrush_-_Aftermath_Of_Dreams-(ENZYME069)-WEB-2017-MMS
2017-01-22 12:02:29 Mike_Squillo_and_Dennis_Pedersen_-_Walking_Away-(TAR1702)-WEB-2017-MMS
2017-01-22 12:02:54 LNY_TNZ_-_Burn_It_Down_(The_Un4given_Remix)-WEB-2017-MMS
2017-01-22 12:03:03 Ucast_and_Magnus_-_Echo_(Incl._Edit)-(FSOE211A)-WEB-2017-MMS
2017-01-22 12:03:38 Kiran_M_Sajeev_-_Outbreak-(MARA023)-WEB-2017-MMS
2017-01-22 12:04:08 Matthew_Duncan_-_A_Walk_At_Sunset__Here_Now-(AVA159)-WEB-2017-MMS
2017-01-22 12:04:35 Allan_Morrow_-_Adjusted_Mind__To_The_Bone-(OUT062)-WEB-2017-MMS
2017-01-22 12:04:47 Auddict.Virtuosic.Violin.KONTAKT-DYNAMiCS
2017-01-22 12:04:59 Row_Rocka_-_Blackbird-(REVR298)-WEB-2017-MMS
2017-01-22 12:05:00 Arman_Bahrami_-_Nova_(Amos_and_Riot_Night_Remix)-(AVAW007)-WEB-2017-MMS
2017-01-22 12:05:05 Row_Rocka_-_Blackbird-(REVR298)-WEB-2012017-MMS
2017-01-22 12:05:08 Row_Rocka_-_Blackbird-(REV8)-WEB-2012012017-MMS
2017-01-22 12:05:08 Row_Rocka_lackbird-(REVR298)-WEB-2012012017-MMS
2017-01-22 12:05:32 Corti_Organ_and_Dan_Thompson_-_Vortex-(CR8S0031)-WEB-2017-MMS
2017-01-22 12:05:42 Sample.Logic.Cinematic.Guitars.Organic.Atmospheres.KONTAKT-DYNAMiCS
2017-01-22 12:05:44 VA-Go_Deeva_DJs_Exclusive_Vol_7_(BPM_Edition_2017)-WEB-2017-BPM
2017-01-22 12:05:49 Die.Mafia.Story.1973.Kinofassung.German.720p.BluRay.x264-ARMO
2017-01-22 12:06:33 48.Hours.S29E21.720p.WEB.x264-HEAT
2017-01-22 12:06:44 ATFC-It_Aint_Whatchu_Got-(ATFC017)-WEB-2017-ENSLAVE
2017-01-22 12:06:58 Mike_Saint-Jules_vs_Danilo_Ercole_-_Mars_Rover-(CR80241)-WEB-2017-MMS
2017-01-22 12:07:05 BRZLN_AIR-Chicago_Street-(FOK010)-WEB-2017-ENSLAVE
2017-01-22 12:07:12 Hotte_And_Cyberpunkz-Provoke-(LOGIN111)-WEB-2017-ENSLAVE
2017-01-22 12:07:22 Arnej_vs_8_Wonders_-_Together_We_Will_Rise_(Jak_Aggas_Remix)-(RIELISM035)-WEB-2017-MMS
2017-01-22 12:07:26 Matthew_Matheson-Liquid_Melody-(INM138)-WEB-2017-ENSLAVE
2017-01-22 12:07:39 Plattenleger-Disaster-WEB-2017-ENSLAVE
2017-01-22 12:07:43 Estigma_-_Augurey-(UNR031)-WEB-2017-MMS
2017-01-22 12:07:47 Rob_Harris_And_GSP-Here_Comes_the_Rain_Again_(The_Remixes)-(QHM124)-WEB-2017-ENSLAVE
2017-01-22 12:08:04 Top.Notch.Pussies.XXX.DVDRip.x264-CiCXXX
2017-01-22 12:08:05 Roland_Clark-To_The_Sky-(DELETE033)-WEB-2017-ENSLAVE
2017-01-22 12:08:18 Stranger_Danger-Whatever_She_Wants-(EMBYS105)-WEB-2017-ENSLAVE
2017-01-22 12:08:37 Tonbe-Sweet_Love-(FF021)-WEB-2017-ENSLAVE
2017-01-22 12:08:45 VAEN-Hydrogene-(RMR023)-WEB-2017-ENSLAVE
2017-01-22 12:09:10 Guerreros.De.Antanyo.1994.SPANiSH.MULTi.1080p.BluRay.x264-TORO
2017-01-22 12:10:22 Dimitri_Vegas_and_Like_Mike_-_Smash_the_House-CABLE-01-21-2017-TALiON
2017-01-22 12:10:41 Store_N_Forward_and_Neev_Kennedy_-_Brought_Me_Back_To_Life_(Incl._Edit)-(RNMR055)-WEB-2017-MMS
2017-01-22 12:10:46 VA-House_Trigger-The_House_Music_Collection_Vol_1-WEB-2017-BPM
2017-01-22 12:10:59 Mo.Farah.No.Easy.Mile.2016.DVDRip.x264-GHOULS
2017-01-22 12:12:18 Charlotte_de_Witte_-_Switch_Playground_(Studio_Brussel)-CABLE-01-21-2017-TALiON
2017-01-22 12:12:46 Die.Mafia.Story.1973.Kinofassung.German.1080p.BluRay.x264-ARMO
2017-01-22 12:14:18 Martin_Buttrich_-_Switch_Playground_(Studio_Brussel)-CABLE-01-22-2017-TALiON
2017-01-22 12:15:44 Antonio_Ruscito-Visitors_Projections-(EDITSELECT29LP1)-WEB-2017-ENSLAVE
2017-01-22 12:15:54 Devil_Dragon_Tatoo-Future_Breaks_Waves-(AS075)-WEB-2017-ENSLAVE
2017-01-22 12:16:08 Once.Were.Warriors.1994.MULTiCOMPLETE.BLURAY-COJONUDO
2017-01-22 12:16:10 Erbo-Magic-(TS015)-WEB-2017-ENSLAVE
2017-01-22 12:16:20 Sheridan_-_In_The_Mix_(Studio_Brussel)-CABLE-01-22-2017-TALiON
2017-01-22 12:16:28 Solarstone_and_Alex_Karweit_-_Breakaway_(John_Askew_Remix)-(PURETRANCE057)-WEB-2017-MMS
2017-01-22 12:16:39 Marco_Silvestri-Analog_Waterfalls-(CAT01577)-WEB-2016-ENSLAVE
2017-01-22 12:17:17 VA-Anniversary_20_Years_of_Analog_Trip_(1996-2016)_Best_Of-(EDMU066)-WEB-2017-ENSLAVE
2017-01-22 12:18:17 Goldfox_-_In_The_Mix_(Studio_Brussel)-CABLE-01-22-2017-TALiON
2017-01-22 12:19:11 Ashbourne.Update.v1.0.056.NFOFiX-PLAZA
2017-01-22 12:19:22 48.Hours.S29E22.720p.WEB.x264-HEAT
2017-01-22 12:20:07 Gumkaci.EP65.Kral.Igthorn.Druha.cast.PDTV.x264.SK.iNT-ERPOL
2017-01-22 12:20:15 Kacerovo.S02E01.Cas.znackovania.1988.PDTV.x264.SK.iNT-ERPOL
2017-01-22 12:20:19 Kacerovo.S02E02.Kacer.ktory.sa.stane.kralom.1989.PDTV.x264.SK.iNT-ERPOL
2017-01-22 12:20:22 Spaceandtime_-_The_Boom_Room_137-CABLE-01-21-2017-TALiON
2017-01-22 12:20:28 Kacerovo.S02E03.Bubba.Trubba.1988.PDTV.x264.SK.iNT-ERPOL
2017-01-22 12:20:29 Kacerovo.S02E04.Uhanajuce.kacky.1988.PDTV.x264.SK.iNT-ERPOL
2017-01-22 12:20:39 Kacerovo.S02E05.Ali.Bubbova.jaskyna.1988.PDTV.x264.SK.iNT-ERPOL
2017-01-22 12:20:40 Eskai_and_Snr_ft._Jhana_-_Find_Yourself_(Remixes)-(RIDE042)-WEB-2017-MMS
2017-01-22 12:20:46 Kacerovo.S02E06.Tekute.peniaze.1989.PDTV.x264.SK.iNT-ERPOL
2017-01-22 12:20:53 Kacerovo.S02E07.Zmrazene.peniaze.1989.PDTV.x264.SK.iNT-ERPOL
2017-01-22 12:21:00 Kacerovo.S02E08.Zelezna.kacica.1989.PDTV.x264.SK.iNT-ERPOL
2017-01-22 12:21:05 Brian_Laruso_and_Chris_Creek_ft._Alla_-_On_and_On-(MAGICDEEP020)-WEB-2017-MMS
2017-01-22 12:21:11 Kacerovo.S02E09.Miliardarsky.klub.dlhoprstych.1989.PDTV.x264.SK.iNT-ERPOL
2017-01-22 12:21:12 Kacerovo.S02E10.Peniaze.na.roztrhanie.1989.PDTV.x264.SK.iNT-ERPOL
2017-01-22 12:22:19 Wilderness.Vet.S01E10.720p.WEB.x264-HEAT
2017-01-22 12:22:19 Luuk_van_Dijk_-_The_Boom_Room_137-CABLE-01-22-2017-TALiON
2017-01-22 12:22:48 The.A-Team.S02E14.Grenzschiebereien.German.DL.Dubbed.720p.BluRay.x264-CNHD
2017-01-22 12:23:03 RUPTURE.2016.DUAL.COMPLETE.BLUAY-SiF
2017-01-22 12:23:09 Elias_the_Prophet-Escapement-WEB-2017-BPM
2017-01-22 12:23:20 NCIS.Los.Angeles.S07E19.FRENCH.1080p.HDTV.x264-Ryotox
2017-01-22 12:23:26 Giorgia_Angiuli-New_Skin_EP-WEB-2017-BPM
2017-01-22 12:23:41 Hubert_Gomez-Death_Lurks-WEB-2017-BPM
2017-01-22 12:23:50 God.Eater.2.Rage.Burst-CPY
2017-01-22 12:24:00 Thomas_Thomson-You_Will_Go-WEB-2017-BPM
2017-01-22 12:24:43 Eelke_Kleijn_-_Live_at_BASIS_Part_2_(Utrecht)-CABLE-01-06-2017-TALiON
2017-01-22 12:25:21 VA-Floating_On_the_River_Vol_01-(CRUMMT001)-WEB-2017-ENSLAVE
2017-01-22 12:26:28 VA-Trance_Awakening-(LEBCOM065)-WEB-2017-ENSLAVE
2017-01-22 12:26:53 VA-Top_from_the_Microbios-(MB014)-WEB-2017-ENSLAVE
2017-01-22 12:27:10 VA_-_Winter_Camp_EP_01-WEB-2017-MMS
2017-01-22 12:27:39 VA-Future_Jukebox_Classics_Vol_2-(SELEKS035)-WEB-2017-ENSLAVE
2017-01-22 12:27:55 Jochem_Hamerling_-_Slam_A.M._172-CABLE-01-22-2017-TALiON
2017-01-22 12:28:40 VA-Gaston_Zani_Pres_Best_of_2016-(AD022)-WEB-2017-ENSLAVE
2017-01-22 12:28:50 DJ_Jean_-_At_Work_(Decibel)-CABLE-01-22-2017-TALiON
2017-01-22 12:29:24 VA-Best_of_Nuevadeep_Year_4-(NDP101)-WEB-2017-ENSLAVE
2017-01-22 12:30:20 VA-Conjured_Retrospective_2016-(CR011)-WEB-2017-ENSLAVE
2017-01-22 12:30:52 Eric_van_Kleef_-_Clubbin__Incl_Boris_Smith_Guestmix_(Decibel)-CABLE-01-21-2017-TALiON
2017-01-22 12:31:02 VA-Anthems_2017-(ZULU905C)-WEB-2017-ENSLAVE
2017-01-22 12:31:49 VA-Wind_in_the_Field_(Downtempo_Series)_Vol_012-(PHMC025)-WEB-2017-ENSLAVE
2017-01-22 12:32:30 Mr_Belt_and_Wezol_-_Music_Club_(Decibel)-CABLE-01-22-2017-TALiON
2017-01-22 12:32:35 VA_-_Decade_Of_Darkness_Sampler_1-(NUTTY060)-WEB-2017-MMS
2017-01-22 12:32:51 Kingdom_Come-Master_Seven-(290.25.002)-CD-FLAC-1997-RUiL
2017-01-22 12:33:19 David_Puentez_and_Rolvario_-_Fukka-WEB-2017-MMS
2017-01-22 12:33:30 Fussball.1.Bundesliga.2016-2017.17.Spieltag.VfL.Wolfsburg.vs.Hamburger.SV.GERMAN.720p.HDTV.x264-SAPH1R
2017-01-22 12:33:33 Astral_Sines-Piano_Motion-(JS1028)-WEB-2016-wAx
2017-01-22 12:34:30 Dannic_-_Clubbin_VIP_Room_(Decibel)-CABLE-01-22-2017-TALiON
2017-01-22 12:36:24 James_Slaven-Basement_Bombs_EP-WEB-2017-BPM
2017-01-22 12:36:38 Bob_Sinclar_-_The_Bob_Sinclar_Show-CABLE-01-22-2017-TALiON
2017-01-22 12:36:44 Khainz-Diagonal_EP-WEB-2017-BPM
2017-01-22 12:37:05 Kit_Mason-Life_Goals_And_Sessions_EP-WEB-2017-BPM
2017-01-22 12:37:25 Fussball.1.Bundesliga.2016-2017.17.Spieltag.VfL.Wolfsburg.vs.Hamburger.SV.GERMAN.WS.HDTVRip.x264-SAPH1R
2017-01-22 12:38:02 Macromism-Regression-WEB-2017-BPM
2017-01-22 12:38:02 Nasser_Baker-Gramercy_EP-WEB-2017-BPM
2017-01-22 12:38:06 Saam-Reform-EP-WEB-2017-BPM
2017-01-22 12:38:27 VA-Fight_4_Hard_Techno-WEB-2017-BPM
2017-01-22 12:38:45 Nicole_Moudaber_-_In_the_Mood_144__Live_at_BPM_Festival_2016_(Playa_del_Carmen)-SAT-01-22-2017-TALiON
2017-01-22 12:39:00 Adolfo_Velayos-Nothing_To_Do_EP-(VYM031)-WEB-2017-ENSLAVE
2017-01-22 12:39:18 Daho-Infinity_EP-(HDR192)-WEB-2017-ENSLAVE
2017-01-22 12:39:36 Domestic_Technology-Roller_Girl-(SUN041)-WEB-2017-ENSLAVE
2017-01-22 12:39:49 Gregorio_Soave-Machine_Circuit_EP-(NWR006)-WEB-2017-ENSLAVE
2017-01-22 12:40:05 Jens_Lewandowski-Lines_of_Synth_EP-(SEN060)-WEB-2017-ENSLAVE
2017-01-22 12:40:20 Midian_Calls-Keep_Movin-(SDR026)-WEB-2017-ENSLAVE
2017-01-22 12:40:39 Warind-Basix-(AD002)-WEB-2017-ENSLAVE
2017-01-22 12:41:01 Yamil_Farag_And_Number9-Freaking_Lights-(MHR195)-WEB-2017-ENSLAVE
2017-01-22 12:41:28 VA-VA-Best_of_Hive_Audio_2016-WEB-2017-BPM
2017-01-22 12:44:22 Sephyx_and_Bonnie_X_Clyde_-_Where_It_Hurts-REPACK-WEB-2017-MMS
2017-01-22 12:46:20 Christ_Burstein-Niemeyer-(SS054)-WEB-2017-ENSLAVE
2017-01-22 12:46:36 Ekstendia-Roots-(MW002)-WEB-2017-ENSLAVE
2017-01-22 12:46:51 Emiliano_Martini-About_Time-(SPR202)-WEB-2017-ENSLAVE
2017-01-22 12:47:08 Mario_Romero-Harmonic_Theory-EP-(INVA006)-WEB-2017-ENSLAVE
2017-01-22 12:47:21 Nae-Tago-Red_Tree_(Remixed)-(BQ215)-WEB-2017-ENSLAVE
2017-01-22 12:47:35 Pochy72-B_Sides-(CC037)-WEB-2017-ENSLAVE
2017-01-22 12:47:50 Sebastian_Mora-Wade-(WLT099)-WEB-2017-ENSLAVE
2017-01-22 12:48:03 VA-Shelf_Life_Music_Vol_1-(SLM001)-WEB-2017-ENSLAVE
2017-01-22 12:48:45 DJ_T-1000-Distorter-WEB-2017-BPM
2017-01-22 12:49:00 Imagine_Souls-Constantino-WEB-2017-BPM
2017-01-22 12:49:24 Mystery.Men.1999.DUAL.COMPLETE.BLURAY-VEiL
2017-01-22 12:50:51 Greg_Thomas_-_Across_The_Sky_(Extended_Mix)-(FLASHTR051)-WEB-2017-MMS
2017-01-22 12:51:19 Petrocelli.S01E01.Naechtliche.Spiele.GERMAN.FS.DVDRip.x264-OldsMan
2017-01-22 12:52:31 NCIS.Los.Angeles.S07E20.FRENCH.1080p.HDTV.x264-Ryotox
2017-01-22 12:52:57 The.A-Team.S02E15.Die.neue.Dame.German.DL.Dubbed.720p.BluRay.x264-CNHD
2017-01-22 12:54:09 Claas_Herrmann-Kappa-(BLACKSR042)-WEB-2017-ENSLAVE
2017-01-22 12:54:28 Gemini_Brothers-Thesalli_Noir-(SKINT327)-WEB-2017-ENSLAVE
2017-01-22 12:54:46 Konstantin_Yoodza-Lotus-(FNDEP106)-WEB-2017-ENSLAVE
2017-01-22 12:55:02 Max_Volkholz-InHouse_Series_Max_Volkholz-(DWRR015)-WEB-2017-ENSLAVE
2017-01-22 12:55:03 Love.At.First.Bite.1979.COMPLETE.BLURAY-COJONUDO
2017-01-22 12:55:15 Stefan_Lazarevic-MarsXXX-(GLR077)-WEB-2017-ENSLAVE
2017-01-22 12:55:50 Tech_C-The_Artic-(ROB89)-WEB-2017-ENSLAVE
2017-01-22 12:55:50 VA-Spliced_Techno_Vol_22-(SVRVA053)-WEB-2017-ENSLAVE
2017-01-22 12:57:03 Mistol_Team-Circus-(ETREE209)-WEB-2017-ENSLAVE
2017-01-22 12:58:21 Ashley_Wallbridge_-_Goa-WEB-2017-MMS
2017-01-22 12:59:58 Shaun_Frank_ft._Ashe_-_Let_You_Get_Away_(Live_Mix)-WEB-2017-MMS
2017-01-22 13:00:25 Die.Mafia.Story.1968.German.DL.1080p.BluRay.AVC-ARMO
2017-01-22 13:04:09 Amor.Al.Primer.Mordisco.1979.SPANiSH.BDRip.x264-TORO
2017-01-22 13:05:24 Amor.Al.Primer.Mordisco.1979.SPANiSH.MULTi.720p.BluRay.x264-TORO
2017-01-22 13:08:00 VA-From_My_Mind_To_Yours-(PLUS825STEMS)-WEB-2015-ENSLAVE_iNT
2017-01-22 13:08:57 Die.Mafia.Story.1973.Kinofassung.German.1080p.BluRay.AVC-ARMO
2017-01-22 13:09:50 Amor.Al.Primer.Mordisco.1979.SPANiSH.MULTi.1080p.BluRay.x264-TORO
2017-01-22 13:10:37 Will_The_Funkboss-Tomorrows_Music-(SBK089)-WEB-2016-ENSLAVE
2017-01-22 13:20:36 Conviction.2016.S01E10.SPANiSH.1080p.HDTV.x264-FCC
2017-01-22 13:21:09 Conviction.2016.S01E10.SPANiSH.720p.HDTV.x264-FCC
2017-01-22 13:21:25 Conviction.2016.S01E10.SPANiSH.HDTV.x264-FCC
2017-01-22 13:21:37 Dice.S01E06.SPANiSH.1080p.HDTV.x264-FCC
2017-01-22 13:22:07 Dice.S01E06.SPANiSH.720p.HDTV.x264-FCC
2017-01-22 13:22:22 Dice.S01E06.SPANiSH.HDTV.x264-FCC
2017-01-22 13:23:46 Dirty9-Broward_County_Metro_Area-(DEEP0114)-WEB-2017-ENSLAVE
2017-01-22 13:24:02 VA-Reset-(PD040)-WEB-2017-ENSLAVE
2017-01-22 13:25:14 David_Walliams-Pan_Smradoch-WEB-CZ-2016-I_KnoW_INT
2017-01-22 13:26:16 Felon_ft._Hayley_May_-_Bittersweet-WEB-2017-MMS
2017-01-22 13:26:29 Ashley_Wallbridge_-_Goa_(Incl._Extended_Mix)-WEB-2017-MMS
2017-01-22 13:27:23 Das.Alter.der.Erde.2016.German.720p.HDTV.x264-muhHD
2017-01-22 13:28:20 Lets.Play.XXX.DVDRip.x264-CiCXXX
2017-01-22 13:29:17 CuckoldSessions.17.01.22.Katie.Morgan.XXX.1080p.MP4-KTR
2017-01-22 13:29:49 Strassenflirts.86.German.XXX.DVDRip.x264-CiCXXX
2017-01-22 13:30:56 Deutschlands.Krieger.Die.Bundeswehr.und.ihre.Minister.E04.Franz.Josef.Strauss.German.DOKU.720p.HDTV.x264-ATAX
2017-01-22 13:34:22 Peter_Brown_-_Disco_Paradise_EP-(HFS1701)-WEB-2017-MMS
2017-01-22 13:34:27 Mars_Era-Dharmanaut-WEB-2017-ENTiTLED
2017-01-22 13:34:39 ShadoWhisperS-A_Tincture_of_Gothic_Fiction-EP-WEB-2017-ENTiTLED
2017-01-22 13:35:03 Heroic-Barbar-WEB-2017-ENTiTLED
2017-01-22 13:35:20 Alex_Bassjunkie_and_Brady_-_Exhale-(THD003)-WEB-2017-MMS
2017-01-22 13:35:22 Kitsune_Metaru-New_Order_Kitsune-WEB-JP-2017-ENTiTLED
2017-01-22 13:37:38 Deutschlands.Krieger.Die.Bundeswehr.und.ihre.Minister.E04.Franz.Josef.Strauss.German.DOKU.HDTVRip.x264-ATAX
2017-01-22 13:37:40 UnoMas_and_Teo_Mandrelli_ft._Terri_B_-_Lift_Me_Up-(CABA116)-WEB-2017-MMS
2017-01-22 13:38:18 J.K.O_-_My_Planet-(THD004)-WEB-2017-MMS
2017-01-22 13:40:52 ALSScan.com_17.01.22.Kiara.Lord.and.Mia.Evans.Frisky.Friends.XXX.IMAGESET-GAGBALL
2017-01-22 13:41:33 Luca_Debonaire_and_Chris_Marina_-_Just_Get_Up_and_Dance-(RAWBL021)-WEB-2017-MMS
2017-01-22 13:41:48 ATKPetites.com_17.01.21.Cassidy.Michaels.Amateur.XXX.IMAGESET-GAGBALL
2017-01-22 13:46:18 Esco89-Ride_The_Funkenum-(2JT017)-WEB-2017-CBR_INT
2017-01-22 13:48:19 Fabio_Carry-Revelation-WEB-2016-CBR_INT
2017-01-22 13:49:16 ATKPremium.com_17.01.22.Keegan.Kade.XXX.IMAGESET-GAGBALL
2017-01-22 13:49:28 Clara_Hill-Silent_Roar_Remixes-(KBA015)-WEB-2016-AFO
2017-01-22 13:50:32 Ferbvss-Closer-(DBR040)-WEB-2017-CBR_INT
2017-01-22 13:51:20 Frezel_feat._Triateck-Peyote-(TGNR029)-WEB-2017-CBR_INT
2017-01-22 13:51:25 AuntJudys.com_17.01.21.Cassandra.Cruz.Watersports.XXX.IMAGESET-GAGBALL
2017-01-22 13:53:22 Project_8_-_Willy_Wonka-(FUSION005)-WEB-2017-MMS
2017-01-22 13:53:42 AuntJudys.com_17.01.22.Sheena.Ryder.Toys.And.Masturbation.XXX.IMAGESET-GAGBALL
2017-01-22 13:53:49 Georgie_Porgie-Yes_Yes_We_Dont_Stop-WEB-2017-CBR_INT
2017-01-22 13:54:36 Babes.com_17.01.22.Cherry.Kiss.Handy.Presentation.XXX.IMAGESET-GAGBALL
2017-01-22 13:55:09 Die.Elbphilharmonie.Hamburgs.neues.Wahrzeichen.GERMAN.DOKU.720p.HDTV.x264-TMSF
2017-01-22 13:56:25 Die.Elbphilharmonie.Hamburgs.neues.Wahrzeichen.GERMAN.DOKU.WS.HDTVRip.x264-TMSF
2017-01-22 13:58:43 MetArtX.com_17.01.21.Sapphira.A.View.From.Above.XXX.IMAGESET-GAGBALL
2017-01-22 13:59:24 Xilisoft.DVD.Ripper.Ultimate.SE.v7.8.19.Incl.Keygen-AMPED
2017-01-22 13:59:37 Xilisoft.HEVC.H.265.Converter.v7.8.19.Incl.Keygen-AMPED
2017-01-22 13:59:43 Xilisoft.Video.Converter.Ultimate.v7.8.19.Incl.Keygen-AMPED
2017-01-22 13:59:48 The.A-Team.S02E16.Scheingefechte.German.DL.FS.Dubbed.720p.BluRay.x264-CNHD
2017-01-22 13:59:56 Wie.Steelt.Mijn.Show.S01E03.DUTCH.720p.HDTV.x264-iFH
2017-01-22 14:00:01 PlayboyPlus.com_17.01.21.Alina.Ilyina.Playboy.Ukraine.XXX.IMAGESET-GAGBALL
2017-01-22 14:00:16 PentaLogix.CAMMaster.Designer.v11.12.2-AMPED
2017-01-22 14:00:26 PentaLogix.ViewMate.Pro.v11.12.2-AMPED
2017-01-22 14:00:30 Halv.Atta.Hos.Mig.S17E54.SWEDiSH.720p.WEB.h264-SAAB
2017-01-22 14:01:34 Halv.Atta.Hos.Mig.S17E55.SWEDiSH.720p.WEB.h264-SAAB
2017-01-22 14:02:37 Halv.Atta.Hos.Mig.S17E56.SWEDiSH.720p.WEB.h264-SAAB
2017-01-22 14:07:21 Stunning18.com_17.01.20.Bridget.Presenting.Bridget.XXX.IMAGESET-GAGBALL
2017-01-22 14:09:55 Voltron.Legendary.Defender.S02E04.720p.WEBRip.X264-DEFLATE
2017-01-22 14:12:52 VivThomas.com_17.01.21.Korica.A.Elated.XXX.IMAGESET-GAGBALL
2017-01-22 14:14:11 Black_Mamba_Tiger_-_2017-(BANG298)-WEB-2017-MMS
2017-01-22 14:14:45 Voltron.Legendary.Defender.S02E05.720p.WEBRip.X264-DEFLATE
2017-01-22 14:14:47 VintageFlash.com_17.01.13.Kiana.Kraze.In.The.Kitchen.At.Parties.XXX.IMAGESET-GAGBALL
2017-01-22 14:15:38 Takahiro_Yoshihira_-_Black_Mamba__Tiger-(BANG298)-WEB-2017-MMS
2017-01-22 14:16:06 Andromedha_-_Watching_The_Red_Clouds_Passing_By-(SILKM097)-WEB-2017-MMS
2017-01-22 14:17:29 Voltron.Legendary.Defender.S02E06.720p.WEBRip.X264-DEFLATE
2017-01-22 14:19:55 Voltron.Legendary.Defender.S02E07.720p.WEBRip.X264-DEFLATE
2017-01-22 14:21:38 Butch__Gel_Abril-Juice_Machine_EP-WEB-2015-BB8
2017-01-22 14:22:56 Sequestro.Di.Persona.1968.iTALiAN.BDRip.x264-HEEHAW
2017-01-22 14:24:43 VintageFlash.com_17.01.17.Sophia.Smith.A.Pin.Ups.Tale.XXX.IMAGESET-GAGBALL
2017-01-22 14:27:28 VintageFlash.com_17.01.20.Lucy.Lume.Out.Or.In.You.Decide.XXX.IMAGESET-GAGBALL
2017-01-22 14:27:52 Makaseo_and_Jessika_Dawn_-_Rainfall-(ECT013)-WEB-2017-MMS
2017-01-22 14:28:17 Rupture.2016.German.DL.1080p.BluRay.AVC-XQiSiT
2017-01-22 14:29:25 Voltron.Legendary.Defender.S02E08.720p.WEBRip.X264-DEFLATE
2017-01-22 14:29:36 Sequestro.Di.Persona.1968.iTALiAN.720p.BluRay.x264-HEEHAW
2017-01-22 14:29:43 Architectural-Elastic_Layouts-WEB-2016-BB8
2017-01-22 14:32:03 Sequestro.Di.Persona.1968.iTALiAN.1080p.BluRay.x264-HEEHAW
2017-01-22 14:33:19 Dennis_GRKN_-_AHWHO-(DOT050)-WEB-2017-MMS
2017-01-22 14:34:53 xXx.Die.Rueckkehr.des.Xander.Cage.TS.MD.German.x264-DiRTYDUB
2017-01-22 14:35:12 Dezza-Stratos_-_Cirrus-(FG214)-WEB-2017-SPANK
2017-01-22 14:36:58 Die.glorreichen.Sieben.2016.German.DL.1080p.AVC-AVC4D
2017-01-22 14:37:42 Mobile.Suit.Gundam.Iron.Blooded.Orphans.Second.Season.E14.SUBFRENCH.720p.WEBRip.X264-SLEEPINGFOREST
2017-01-22 14:37:45 Architectural-Amour-WEB-2015-BB8
2017-01-22 14:39:46 Mobile.Suit.Gundam.Iron.Blooded.Orphans.Second.Season.E14.SUBFRENCH.1080p.WEBRip.X264-SLEEPINGFOREST
2017-01-22 14:41:27 Adrian_Alexander-Turnaround_-_Imagine_(The_Remixes)-(ESR308R)-WEB-2017-SPANK
2017-01-22 14:41:35 Zero.Escape.Zero.Time.Dilemma.No.Intro.DOX-RAiN
2017-01-22 14:41:37 Alex_Byrka_And_Keywork-Daydreamers-(ENCANTA067)-WEB-2017-SPANK
2017-01-22 14:41:50 VA-Evolved_Progressions_5-(PD136)-WEB-2017-SPANK
2017-01-22 14:49:08 Thomas_Gold_-_Fanfare_240-SAT-01-21-2017-TALiON
2017-01-22 14:50:57 Nicky_Romero_-_Protocol_Radio_231-SAT-01-21-2017-TALiON
2017-01-22 14:52:46 Stelios_Vassiloudis-Options_and_Futures_EP-WEB-2013-BB8
2017-01-22 14:53:46 Nicky_Romero_-_Protocol_Radio_231-REPACK-SAT-01-21-2017-TALiON
2017-01-22 14:57:14 Steve_Aoki_-_Aokis_House_260-SAT-01-22-2017-TALiON
2017-01-22 14:59:53 Ramon_Tapia-True_Definition-WEB-2015-BB8
2017-01-22 15:00:27 Voltron.Legendary.Defender.S02E09.720p.WEBRip.X264-DEFLATE
2017-01-22 15:01:38 Borgore_-_The_Borgore_Show-SAT-01-22-2017-TALiON
2017-01-22 15:03:09 Deniz_Koyu_-_Soundcheck-SAT-01-22-2017-TALiON
2017-01-22 15:03:38 Gotham.S02E01.German.DVDRip.x264-RWP
2017-01-22 15:06:52 Audiofly_Dance_Spirit-Angel_Eyes-WEB-2016-BB8
2017-01-22 15:06:54 SHL.2017.01.21.Linkoping.vs.Rogle.iNTERNAL.SWEDiSH.720p.WEBRip.x264-sweHD
2017-01-22 15:08:49 RUPTURE.2016.DUAL.COMPLETE.BLURAY.DiRFiX-SiF
2017-01-22 15:10:21 Superlounge-Rotwelch_EP-WEB-2016-BB8
2017-01-22 15:10:49 Voltron.Legendary.Defender.S02E10.720p.WEBRip.X264-DEFLATE
2017-01-22 15:11:20 EDX_-_No_Xcuses_309-SAT-01-21-2017-TALiON
2017-01-22 15:14:24 Borgeous_-_House_of_Borgeous_101-SAT-01-21-2017-TALiON
2017-01-22 15:14:54 Being.Mary.Jane.S04E02.1080p.HDTV.x264-CRAVERS
2017-01-22 15:15:54 Chicago.PD.S04E11.1080p.HDTV.x264-CRAVERS
2017-01-22 15:16:56 Nashville.2012.S05E03.1080p.HDTV.x264-CRAVERS
2017-01-22 15:17:06 Clayton_Steele-Forget-WEB-2016-BB8
2017-01-22 15:17:58 Pure.Genius.S01E11.1080p.HDTV.x264-CRAVERS
2017-01-22 15:19:00 The.Good.Place.S01E11.1080p.HDTV.x264-CRAVERS
2017-01-22 15:21:47 Alex_Cruz_Feat_Gabbi_Lieve_-_Sweet_Child-(7467694)-WEB-2017-ZzZz
2017-01-22 15:23:26 Virtual.Footjobs.XXX.720p.WEBRip.MP4-VSEX
2017-01-22 15:23:46 Antilopen_Gang-Anarchie_Und_Alltag-2CD-DE-2017-SDR
2017-01-22 15:25:08 Dragon.Ball.Z.Kai.S05E03.DUBBED.720p.HDTV.x264-CRiMSON
2017-01-22 15:25:24 Dragon.Ball.Z.Kai.S05E03.DUBBED.HDTV.x264-CRiMSON
2017-01-22 15:29:26 3LAU_-_Bounce_Haus-SAT-01-21-2017-TALiON
2017-01-22 15:29:39 The.A-Team.S02E17.Schwarzbrenner.German.DL.FS.Dubbed.720p.BluRay.x264-CNHD
2017-01-22 15:29:54 Danny_Howard_-_Nothing_Else_Matters_Radio-SAT-01-21-2017-TALiON
2017-01-22 15:30:23 Vice_-_Vice_Airwaves-SAT-01-21-2017-TALiON
2017-01-22 15:30:54 Martin_Garrix_-_The_Martin_Garrix_Radio_Show-SAT-01-21-2017-TALiON
2017-01-22 15:31:34 StoneBridge_-_BPM_Mix-SAT-01-21-2017-TALiON
2017-01-22 15:33:58 Major.Crimes.S04E19.FRENCH.HDTV.x264-AMB3R
2017-01-22 15:38:56 The.A-Team.S02E18.Skorpione.German.DL.FS.Dubbed.720p.BluRay.x264-CNHD
2017-01-22 15:41:10 Moguai_-_1LIVE_DJ_Session-SAT-01-22-2017-TALiON
2017-01-22 15:41:19 HarmonyVision.com_16.12.06.Outland.2.Looking.For.Freedom.Scene.1.XXX.IMAGESET-GUSH
2017-01-22 15:41:38 Adam_Port_-_1LIVE_DJ_Session-SAT-01-22-2017-TALiON
2017-01-22 15:41:46 Voltron.Legendary.Defender.S02E11.720p.WEBRip.X264-DEFLATE
2017-01-22 15:42:09 Solefald-Red_For_Fire_-_An_Icelandic_Odyssey_Part_1-(Digipak)-2005-DCO
2017-01-22 15:42:47 The.Paradise.S02D01.COMPLETE.BLURAY-LCHD
2017-01-22 15:43:45 Kingdom_Come-Live_and_Unplugged-(35_450-425)-2CD-FLAC-1996-RUiL
2017-01-22 15:43:57 Sonya_C-Married_To_The_Mob-1993-SUT_INT
2017-01-22 15:44:24 The.Guardians.S01E03.Stakeout.720p.HDTV.x264-CRiMSON
2017-01-22 15:45:04 Angl_Feat_Gioia_Bruno_-_Boy_Crazy-WEB-2017-FMC
2017-01-22 15:45:35 Amine_Maxwell_-_Legzira-(SUBMISSION049)-DIRFIX-WEB-2017-MMS
2017-01-22 15:45:44 HarmonyVision.com_16.12.13.Outland.2.Looking.For.Freedom.Scene.2.XXX.IMAGESET-GUSH
2017-01-22 15:45:50 Soul_For_Real-Candy_Rain-1995-AMP
2017-01-22 15:46:26 Copamore_Feat_Mikey_Shyne_-_Across_The_Line_(Dualxess_Remix)-WEB-2017-FMC
2017-01-22 15:46:42 The.Guardians.S01E03.Stakeout.HDTV.x264-CRiMSON
2017-01-22 15:47:24 Delayers_And_Mindshake_-_Taka_Taka-WEB-2017-FMC
2017-01-22 15:48:08 Landis_Feat_Davis_Mallory_-_Loud-WEB-2017-FMC
2017-01-22 15:48:36 Annaka_-_Penumbra-(CAT_01102)-WEB-2017-ZzZz
2017-01-22 15:48:55 Soulja_Slim-Give_It_2_Em_Raw-1998-SUT_INT
2017-01-22 15:49:16 Luke_Bauer_And_Cris_Tommasi_-_Put_Your_Fking_Hands_Up-WEB-2017-FMC
2017-01-22 15:50:07 Beati_Sounds_-_Follow_The_Stars-(26129)-WEB-2017-ZzZz
2017-01-22 15:50:11 Maj_-_Symphony-WEB-2017-FMC
2017-01-22 15:50:12 Stephan_Hinz_-_Plattenleger-SAT-01-22-2017-TALiON
2017-01-22 15:50:47 Martin_Eyerer_-_Plattenleger-SAT-01-22-2017-TALiON
2017-01-22 15:51:04 Ryan_Blyth_Feat_Malisha_Bleau_-_Show_Me_(Remixes)-WEB-2017-FMC
2017-01-22 15:51:05 Souls_Of_Mischief-93_Til_Infinity_Instrumentals_(Reissue)-LP-2004-cruel
2017-01-22 15:52:46 HarmonyVision.com_16.12.20.Outland.2.Looking.For.Freedom.Scene.3.XXX.IMAGESET-GUSH
2017-01-22 15:58:55 HarmonyVision.com_16.12.27.Outland.2.Looking.For.Freedom.Scene.4.XXX.IMAGESET-GUSH
2017-01-22 16:01:01 HarmonyVision.com_17.01.03.Outland.2.Looking.For.Freedom.Scene.5.XXX.IMAGESET-GUSH
2017-01-22 16:02:34 Major.Crimes.S04E19.FRENCH.720p.HDTV.x264-AMB3R
2017-01-22 16:03:12 Dazepark_-_Rift_(Incl._Edit)-(FNK013)-WEB-2017-MMS
2017-01-22 16:03:27 FullyClothedPissing.17.01.22.Janie.Sky.XXX.1080p.MP4-KTR
2017-01-22 16:03:28 The.Strain.S03E10.FiNAL.iTALiAN.iNTERNAL.720p.AHDTV.x264-iDiB
2017-01-22 16:03:45 The.Strain.S03E10.FiNAL.iTALiAN.iNTERNAL.AHDTV.x264-iDiB
2017-01-22 16:04:11 Libra-Get_Licked-(WBEP001)-WEB-2017-plAstic
2017-01-22 16:05:04 Under.The.Dome.S03E05.iTALiAN.720p.HDTV.x264-iDiB
2017-01-22 16:05:28 Under.The.Dome.S03E05.iTALiAN.HDTV.x264-iDiB
2017-01-22 16:05:41 ShesNew.17.01.22.Jaye.Summers.XXX.1080p.MP4-KTR
2017-01-22 16:05:42 Voltron.Legendary.Defender.S02E12.720p.WEBRip.X264-DEFLATE
2017-01-22 16:08:31 Star.Trek.Enterprise.S04-RETAIL
2017-01-22 16:08:52 Mike_D_Jais-Hidden_Truths-(NYLO026)-WEB-2017-TREVASKiS
2017-01-22 16:08:52 Disneys.Classic.Cartoon.Plutopie.1951.GERMAN.DL.FS.HDTVRip.x264-TVP
2017-01-22 16:09:05 Disneys.Classic.Cartoon.Donalds.Glueckstag.1939.GERMAN.DL.FS.HDTVRip.x264-TVP
2017-01-22 16:09:17 Disneys.Classic.Cartoon.Donald.Duck.und.der.Gorilla.1944.GERMAN.DL.FS.HDTVRip.x264-TVP
2017-01-22 16:09:29 Lesbea.17.01.22.Paula.Shy.And.Anie.Darling.XXX.1080p.MP4-KTR
2017-01-22 16:09:59 Paulo_Raposo__Marc_Behrens-Further_Consequences_Of_Reinterpretation-CRNICA0082004-WEB-2017-PITY
2017-01-22 16:10:23 VA-Deep_House_Collection_By_Yeiskomp_Records_Vol_5-(YR266)-WEB-2017-TREVASKiS
2017-01-22 16:10:36 DJ_Vais-Gloriosa-(RNR085)-WEB-2017-TREVASKiS
2017-01-22 16:10:43 Secret_Cinema-Silver_EP_1-WEB-2016-BB8
2017-01-22 16:10:52 Relic.Hunter.S03E15.iTALiAN.HDTV.x264-iDiB
2017-01-22 16:11:09 Relic.Hunter.S03E16.iTALiAN.HDTV.x264-iDiB
2017-01-22 16:11:11 VA_-_Uplifting_Only_Top_15_January-(UOMC1701)-WEB-2017-FMC
2017-01-22 16:11:21 Ran_Slavin-Product_Vol_2-CRNICA0092004-WEB-2017-PITY
2017-01-22 16:11:32 Funkadiba-Irradia-(QNP003)-WEB-2017-TREVASKiS
2017-01-22 16:11:33 Relic.Hunter.S03E17.iTALiAN.HDTV.x264-iDiB
2017-01-22 16:11:59 Relic.Hunter.S03E18.iTALiAN.HDTV.x264-iDiB
2017-01-22 16:12:08 T.K.N.Z__Adveniens-Throughout_Dimensions__The_Remixes_Part_I-(BCSSR019)-WEB-2017-TREVASKiS
2017-01-22 16:12:25 Relic.Hunter.S03E19.iTALiAN.HDTV.x264-iDiB
2017-01-22 16:12:26 Robin_Hirte-Staccato-WEB-2017-TREVASKiS
2017-01-22 16:13:40 Wutz-Nobody-(ECLR079)-WEB-2017-TREVASKiS
2017-01-22 16:14:05 Captain.Future.E13.REMASTERED.FRENCH.720p.BluRay.x264-SHiNiGAMi
2017-01-22 16:14:10 Gabu-Sunburst_Impact-(DISU021)-WEB-2017-TREVASKiS
2017-01-22 16:14:14 Star.Trek.Enterprise.S01-RETAIL
2017-01-22 16:14:56 Nikko.z-Girando_EP-WEB-2017-TREVASKiS
2017-01-22 16:14:57 TVO-Wind_Die__You_Die__We_Die-WEB-2017-PITY
2017-01-22 16:15:12 Van_Czar-Pepes_Sky-(IBZ05)-WEB-2017-TREVASKiS
2017-01-22 16:15:17 Dangerous-Get_You_Down__Friend_Or_Foe-TTB54-WEB-2017-PITY
2017-01-22 16:15:47 Self_Aware-The_Stargate_Experiment-WJEP006-WEB-2017-PITY
2017-01-22 16:15:57 Rob_Hes-The_Solution_EP-(TR232)-WEB-2017-TREVASKiS
2017-01-22 16:16:21 Nelver-Morning_Jam_EP-CLS208-WEB-2017-PITY
2017-01-22 16:16:31 Maeb-F002-(UR070)-WEB-2017-TREVASKiS
2017-01-22 16:16:36 Seth_Gueko-Cest_Pas_Pareil_Feat_Kaaris_(Remix)-(WEB)-FR-2017-H5N1
2017-01-22 16:16:46 Oscar_Escapa-TNT-(MKR0019)-WEB-2017-TREVASKiS
2017-01-22 16:16:59 RELOADED-About_Your_Soul-RR0067-WEB-2017-PITY
2017-01-22 16:17:10 Captain.Future.E13.REMASTERED.MULTi.1080p.BluRay.x264-SHiNiGAMi
2017-01-22 16:17:19 Gorh-Hard_Life-(DILIGENTIA042)-WEB-2017-TREVASKiS
2017-01-22 16:18:26 Tutankhamun.S01E03.iNTERNAL.1080p.HDTV.x264-TvD
2017-01-22 16:18:52 FakeTaxi.17.01.22.Amanda.Black.XXX.1080p.MP4-KTR
2017-01-22 16:19:29 703)_863_4357-Lyse-(VOID045)-WEB-2017-TREVASKiS
2017-01-22 16:19:49 VA-Homegrown_Records_1993_Old_Skool_Classics-WEB-2017-PITY
2017-01-22 16:20:02 Oruam_Zior-Preludio-WEB-2017-TREVASKiS
2017-01-22 16:20:22 Alberto_Ruiz-Tap-(SCR056)-WEB-2017-TREVASKiS
2017-01-22 16:20:26 Edlan-Lone_Pine_EP-FOKUZ16035-WEB-2017-PITY
2017-01-22 16:20:54 Critical_Event-Winter_Dream_EP-INFLUENZA162-WEB-2017-PITY
2017-01-22 16:21:05 Staniz-Jungle_EP-(CHR119)-WEB-2017-TREVASKiS
2017-01-22 16:21:22 Digid-Gun_Talk_EP-HM014-WEB-2017-PITY
2017-01-22 16:21:32 Captain.Future.E13.REMASTERED.SUBFRENCH.720p.BluRay.x264-SHiNiGAMi
2017-01-22 16:21:34 FemaleFakeTaxi.17.01.22.Yenna.XXX.1080p.MP4-KTR
2017-01-22 16:21:46 HowBoutNo-On_Fire-CAT04671-WEB-2017-PITY
2017-01-22 16:21:55 Marc_DePulse-By_Your_Side-(EINMUSIKA091)-WEB-2017-TREVASKiS
2017-01-22 16:22:00 Sekam-Mes_Nakes_Feat_Mala-(WEB)-FR-2017-H5N1
2017-01-22 16:22:10 Still_A_Bud-Lazerlight-FSH001-WEB-2017-PITY
2017-01-22 16:22:31 Steady_Mobbn-Pre_Meditated_Drama-1997-SUT_INT
2017-01-22 16:22:32 Sklayz-Time_To_Think-DEU266-WEB-2017-PITY
2017-01-22 16:23:27 Stone_Temple_Pilots-Creep-CDM-1993-EOS
2017-01-22 16:23:52 VA-Rezept_Konkret_X1-(KNKYEAR01)-WEB-2017-TREVASKiS
2017-01-22 16:24:35 Annix_TM-Parabola-WEB-2017-TREVASKiS
2017-01-22 16:25:16 Cedric_Lass_-_PMR-(MTD_011)-WEB-2017-ZzZz
2017-01-22 16:25:22 Crocetti-Alternate-(LMTRAX067)-WEB-2017-TREVASKiS
2017-01-22 16:25:37 DJ_Baloo-The_Last_Game_60_Points-WEB-2017-TREVASKiS
2017-01-22 16:26:26 Nyquist-Phenoxy-(AMREC008)-WEB-2017-TREVASKiS
2017-01-22 16:27:12 Brand.New.Girls.XXX.DVDRip.x264-CiCXXX
2017-01-22 16:27:26 Umba-Mental-(STRIKT007)-WEB-2017-TREVASKiS
2017-01-22 16:27:48 MykeMyth-Opposite_Contrasts-(TOXIC170)-WEB-2017-TREVASKiS
2017-01-22 16:28:20 Tito_K.-Sodom-(EUT010)-WEB-2017-TREVASKiS
2017-01-22 16:29:09 A.Question.of.Sport.S46E21.1080p.HDTV.x264-FEET
2017-01-22 16:29:10 A.Question.of.Sport.S46E21.720p.HDTV.x264-FEET
2017-01-22 16:29:12 A.Question.of.Sport.S46E21.HDTV.x264-FEET
2017-01-22 16:29:16 Click.UK.2017.01.21.1080p.HDTV.x264-FEET
2017-01-22 16:29:16 Click.UK.2017.01.21.720p.HDTV.x264-FEET
2017-01-22 16:29:17 Click.UK.2017.01.21.HDTV.x264-FEET
2017-01-22 16:29:24 Spy.in.the.Wild.S01E02.HDTV.x264-FEET
2017-01-22 16:29:25 Only.Connect.S12E26.PROPER.720p.HDTV.x264-FEET
2017-01-22 16:29:26 Spy.in.the.Wild.S01E01.HDTV.x264-FEET
2017-01-22 16:29:26 Only.Connect.S12E26.PROPER.HDTV.x264-FEET
2017-01-22 16:29:26 Only.Connect.S12E26.1080p.HDTV.x264-FEET
2017-01-22 16:29:36 VA-Rewind_Selecta_Vol_5-WEB-2017-PITY
2017-01-22 16:29:42 Volodia_Rizak-Do_It-(KRR050)-WEB-2017-TREVASKiS
2017-01-22 16:29:55 Whitworth-She_Was_A_Flower-CAT01071-WEB-2017-PITY
2017-01-22 16:30:11 Forest_Weed-Serenity-(BF136)-WEB-2017-TREVASKiS
2017-01-22 16:30:28 Curvy.Girls.8.XXX.DVDRip.x264-CiCXXX
2017-01-22 16:30:30 Maxim_Air-Subtraction-GYS953-WEB-2017-PITY
2017-01-22 16:30:38 Jonathan_Colell-Wrong-(VPTR005)-WEB-2017-TREVASKiS
2017-01-22 16:30:54 Motor_Tank-If_God_Exist__Who_Will-(THA172)-WEB-2017-TREVASKiS
2017-01-22 16:30:58 Son_Of_Borneo-Until_The_End-QRV046-WEB-2017-PITY
2017-01-22 16:31:20 Hardklown-Strange_Symphony-LDR0622-WEB-2017-PITY
2017-01-22 16:31:33 Blackout_JA-Unstoppable-URD124-WEB-2017-AUTHORiZED
2017-01-22 16:31:34 Roman_Faero-Faerodaysia_EP-(BFY146)-WEB-2017-TREVASKiS
2017-01-22 16:32:14 SUBMERSIVE-Ready-WEB-2017-PITY
2017-01-22 16:32:20 Funky_Armenico-La_Foule-(WEB)-FR-2017-H5N1
2017-01-22 16:32:42 Yan_Michalevsky-Nexus-WEB-2017-PITY
2017-01-22 16:33:15 PRG__M-Assioma_Geometrico-(SPGR001)-WEB-2017-TREVASKiS
2017-01-22 16:33:39 Kiyoi_and_Eky-Turn_Back_The_Rain-WEB-2017-PITY
2017-01-22 16:34:12 Painkiller_Vs_D_Maniac-Earth_People-NUEP079-WEB-2017-PITY
2017-01-22 16:34:43 Niblewild-Outside_Of_Abundance-KMT008-WEB-2017-PITY
2017-01-22 16:34:59 Bellator.170.720p.HDTV.x264-KYR
2017-01-22 16:35:10 AmKingdom.com_17.01.22.Masturbation.Adrian.Black.XXX.IMAGESET-FuGLi
2017-01-22 16:35:12 Zanio_and_Ryu_Kawamura-Refill-SUNMEL066-WEB-2017-PITY
2017-01-22 16:35:38 Proximuse-Falling_Into_The_Vortex-OZOM006-WEB-2017-PITY
2017-01-22 16:35:57 MEKK.1-Guzheng-EQR003-WEB-2017-PITY
2017-01-22 16:36:31 LekSin-Oceans-DSD173-WEB-2017-PITY
2017-01-22 16:37:00 Members_of_Trance-Members_Of_Trance-FRS025-WEB-2017-PITY
2017-01-22 16:37:04 AmKingdom.com_17.01.22.Masturbation.Kayli.Moon.XXX.IMAGESET-FuGLi
2017-01-22 16:37:23 Seven_Moon-End_Of_The_Road-RRS154-WEB-2017-PITY
2017-01-22 16:37:46 Major.Crimes.S04E20.FRENCH.720p.HDTV.x264-AMB3R
2017-01-22 16:38:13 Audox-Tried_This__Tried_That_(Tried_Everything)-WEB-2017-PITY
2017-01-22 16:38:15 VA-Sonority_Collection_Vol_3__Selection_Of_Techno-(HPFLTD615)-WEB-2017-TREVASKiS
2017-01-22 16:38:20 Suffocation-Despise_the_Sun-1998-HAMMER
2017-01-22 16:38:42 8THSIN_and_Lighters_and_4i20-Cure_Of_The_Nation-ARC137-WEB-2017-PITY
2017-01-22 16:38:48 Major.Crimes.S04E20.FRENCH.HDTV.x264-AMB3R
2017-01-22 16:38:55 AmKingdom.com_17.01.22.Masturbation.Keegan.Kade.XXX.IMAGESET-FuGLi
2017-01-22 16:39:17 Digital_Dreamerz-The_Next_Chapter-PR006-WEB-2017-PITY
2017-01-22 16:40:01 Cold_Project-Dark_Night_Of_The_Soul-BMRDR0127-WEB-2017-PITY
2017-01-22 16:40:06 Voltron.Legendary.Defender.S02E13.720p.WEBRip.X264-DEFLATE
2017-01-22 16:40:25 Save.Our.Shelter.S02E02.San.Gabriel.Valley.Humane.Society.720p.HDTV.x264-CRiMSON
2017-01-22 16:40:35 ITM-Being-RRRNEW010-WEB-2017-PITY
2017-01-22 16:40:43 Save.Our.Shelter.S02E02.San.Gabriel.Valley.Humane.Society.HDTV.x264-CRiMSON
2017-01-22 16:40:57 Spirrin-Touch_The_Stars-IM012-WEB-2017-PITY
2017-01-22 16:41:10 Save.Our.Shelter.S02E06.Angels.and.Paws.Rescue.Inc.720p.HDTV.x264-CRiMSON
2017-01-22 16:41:16 AmKingdom.com_17.01.22.Masturbation.Misty.Lovelace.XXX.IMAGESET-FuGLi
2017-01-22 16:41:24 Belter-Sine_Cera-WEB-2017-PITY
2017-01-22 16:41:26 Save.Our.Shelter.S02E06.Angels.and.Paws.Rescue.Inc.HDTV.x264-CRiMSON
2017-01-22 16:41:52 Tommy_Silent-Rerum__Balance-EXIA101-WEB-2017-PITY
2017-01-22 16:42:43 AmKingdom.com_17.01.22.Masturbation.Riylee.Renee.XXX.IMAGESET-FuGLi
2017-01-22 16:44:01 VA-Cafe_Meze_Trance_Time-GS013-WEB-2017-PITY
2017-01-22 16:44:08 VA-Fresh_Otis__The_Best_Of_Collection-(VIP2016)-WEB-2017-TREVASKiS
2017-01-22 16:44:16 Tony_Robert-Recicled-(REXETRECORDS003)-WEB-2017-TREVASKiS
2017-01-22 16:44:59 G_Flame-Bump-(DET050)-WEB-2017-TREVASKiS
2017-01-22 16:45:08 AmKingdom.com_17.01.22.Masturbation.Serenity.Jones.XXX.IMAGESET-FuGLi
2017-01-22 16:45:41 Alessandro_Adriani-Guerrilla_Warfare-(PBD02)-WEB-2017-TREVASKiS
2017-01-22 16:46:14 VA-Winter_Vibes_Music_Vol_3-SLR153-WEB-2017-PITY
2017-01-22 16:46:16 Gast_Waltzing_And_Largo-Unplugged_Live-(WPR)-CD-2016-jAZzMan
2017-01-22 16:46:23 Hive.Jump.RIP-Unleashed
2017-01-22 16:46:51 Ewan_Rill-Roads_EP-ASR109-WEB-2017-PITY
2017-01-22 16:47:25 Anti_P.L.U.R-Toxic_Hippy_Sigh_Trance_Detox-SOLE041-WEB-2017-PITY
2017-01-22 16:47:45 JoJos.Bizarre.Adventure.S01E13.DUBBED.HDTV.x264-W4F
2017-01-22 16:47:55 DJ_Jhonny_Vergel-Believe_In_Him-MLR0068-WEB-2017-PITY
2017-01-22 16:48:05 Technolf-Freiheitszwang-(XTR125)-WEB-2017-TREVASKiS
2017-01-22 16:48:26 4Joann-Nothing_Can_Seperate_Us-CO111-WEB-2017-PITY
2017-01-22 16:48:50 Shake-Preda2r-TESD0123-WEB-2017-PITY
2017-01-22 16:49:03 Volodia_Rizak-Power-(OTR575)-WEB-2017-TREVASKiS
2017-01-22 16:49:16 Cramson_Crew-Morphium-EXPERIMENTAL064-WEB-2017-PITY
2017-01-22 16:49:39 VA_-_Acid_Maker_Vol_1-(BLZ_0026)-WEB-2017-ZzZz
2017-01-22 16:49:49 Raul_Young-Fire-(GRV065)-WEB-2017-TREVASKiS
2017-01-22 16:49:51 A_Ninetyfour__Filippo_Amati-Coffee_Time-MNT195-WEB-2017-PITY
2017-01-22 16:50:16 FemJoy.com_17.01.22.Rena.Sunday.XXX.IMAGESET-FuGLi
2017-01-22 16:50:19 Anthonis-Blind_Haze-MESK025-WEB-2017-PITY
2017-01-22 16:50:24 Nikita_Cano-Ketamine_Dream-WEB-2017-TREVASKiS
2017-01-22 16:50:29 Udkantsmaeglerne.E06.DANiSH.PDTV.x264-SKANK
2017-01-22 16:50:41 Neuromanzer-Blood_Ritual-(MKRS023)-WEB-2017-TREVASKiS
2017-01-22 16:50:45 Father.Brown.2013.S04E01.Die.Maske.des.Daemons.German.WS.DVDRiP.x264-OMGtv
2017-01-22 16:50:55 Soulbridge_feat_Raye_Cole-Got_My_Eyes_On_You-HSR109-WEB-2017-PITY
2017-01-22 16:51:11 DMb-Big_Fat_Move-(OTR576)-WEB-2017-TREVASKiS
2017-01-22 16:51:36 Kevin_Toro_and_Maximiliano_Haas-Never_Settle-PURR106-WEB-2017-PITY
2017-01-22 16:51:41 Il.Piccolo.Principe.2015.iTALiAN.iNTERNAL.720p.HDTV.x264-iDiB
2017-01-22 16:51:43 Gforty-Azymuth-(RES087M)-WEB-2017-TREVASKiS
2017-01-22 16:52:07 Il.Piccolo.Principe.2015.iTALiAN.iNTERNAL.HDTV.x264-iDiB
2017-01-22 16:52:08 Matteo_Ascione-Crying_Blood-NCS032-WEB-2017-PITY
2017-01-22 16:52:20 John_Martz-Dark_Road-(MR00060)-WEB-2017-TREVASKiS
2017-01-22 16:52:33 Hegre.com_17.01.22.Daniela.Domina.XXX.IMAGESET-FuGLi
2017-01-22 16:52:45 Spektral__Deetech__Greck_B-Friends_Vol_2-UF079-WEB-2017-PITY
2017-01-22 16:53:04 Bugle-Ganja_(Feat._Shaggy)-WEB-2017-SSR
2017-01-22 16:53:17 Eek_A_Mouse-Prison-WEB-2017-SSR
2017-01-22 16:53:20 Mark_Cowax-Tatendrank-(VIP034)-WEB-2017-TREVASKiS
2017-01-22 16:53:27 Modstrom-The_Proof_EP-WEB-2017-PITY
2017-01-22 16:53:29 Modstrom-The_Proof_EP-WEB-201-PITY
2017-01-22 16:53:32 Lyricson-Burning-WEB-2017-SSR
2017-01-22 16:53:35 Modstrom-The_roof_EP-WEB-2017-PITY
2017-01-22 16:53:44 Mr._Duke-No_Partiality-WEB-2016-SSR
2017-01-22 16:53:49 Naruto.Shippuden.S06E30.DUBBED.HDTV.x264-W4F
2017-01-22 16:54:05 Shattered_Mind-Exodus-WEB-2017-PITY
2017-01-22 16:54:33 Alberto_Costas-I_Am_Free-WEB-2017-PITY
2017-01-22 16:54:58 Roman_Faero-Mode_Machine-(EYERECORDS39)-WEB-2017-TREVASKiS
2017-01-22 16:55:02 Nubiles.net_17.01.22.Nimfa.Russian.Cutie.XXX.IMAGESET-FuGLi
2017-01-22 16:55:05 BRTS-Metropolitain_EP-JZV004-WEB-2017-PITY
2017-01-22 16:55:35 Zak_Gee-Sunset_In_Talaia-MFR193-WEB-2017-PITY
2017-01-22 16:55:49 Jorge_Flores-Bolo-(UL033)-WEB-2017-TREVASKiS
2017-01-22 16:56:16 Tony_Robert__Treisor_Luke_and_Sergio_Castilla-Utopia-REXETRECORDS002-WEB-2017-PITY
2017-01-22 16:56:30 Van_Dexter-Daddy_Remixes_2017-(HBR014)-WEB-2017-TREVASKiS
2017-01-22 16:56:46 Doublethink-Libertarianism-(CAT94922)-WEB-2017-TREVASKiS
2017-01-22 16:56:49 Mickel_DJ_feat_Marinella_Pink-Rise_Up-NNR028-WEB-2017-PITY
2017-01-22 16:57:12 Vem.Vet.Mest.S18E05.SWEDiSH.720p.WEB.h264-SweWR
2017-01-22 16:57:16 Twins_Project-Dependency-(EAR010)-WEB-2017-TREVASKiS
2017-01-22 16:57:23 Santiago_De_Gesus-Freak_Inside-SPM019-WEB-2017-PITY
2017-01-22 16:57:34 Father.Brown.2013.S04E01.Die.Maske.des.Daemons.GERMAN.DL.DUBBED.720p.BluRay.x264-OMGtv
2017-01-22 16:57:35 Naruto.Shippuden.S06E30.DUBBED.720p.HDTV.x264-W4F
2017-01-22 16:57:44 Nubiles.net_17.01.22.Cleo.Marie.First.Timer.XXX.IMAGESET-FuGLi
2017-01-22 16:57:54 Ice_X_Diaz-Bubbles-HR008-WEB-2017-PITY
2017-01-22 16:58:04 Tony_Robert__Treisor_Luke_and_Sergio_Castilla-Diverso-(REXETRECORDS001)-WEB-2017-TREVASKiS
2017-01-22 16:58:16 Trempid-E.V.O-ALYSSEUM045-WEB-2017-PITY
2017-01-22 16:58:23 Vem.Vet.Mest.S18E06.SWEDiSH.720p.WEB.h264-SweWR
2017-01-22 16:58:45 Antonio_Ariano-Illusion_Mind-CNS029-WEB-2017-PITY
2017-01-22 16:58:54 Dave_Simon-Traib_EP-(PRRUKD063)-WEB-2017-TREVASKiS
2017-01-22 16:59:23 Loris_Brega-Hellur-HNGVR029-WEB-2017-PITY
2017-01-22 16:59:29 Father.Brown.2013.S04E01.Die.Maske.des.Daemons.GERMAN.DL.DUBBED.1080p.BluRay.x264-OMGtv
2017-01-22 16:59:31 Vem.Vet.Mest.S18E07.SWEDiSH.720p.WEB.h264-SweWR
2017-01-22 16:59:55 Bitrocka_Feat_Freedah_Soul_-_Men_From_Mars_(Remixed)-(ENRR_30R)-WEB-2016-ZzZz
2017-01-22 17:00:04 Tito_K.-Slaughterhouse-(NCR016)-WEB-2017-TREVASKiS
2017-01-22 17:00:22 Dario_BianKi-Solar_Sequence_Around_Your_Grace-WEB-2017-TREVASKiS
2017-01-22 17:00:33 Vem.Vet.Mest.S18E08.SWEDiSH.720p.WEB.h264-SweWR
2017-01-22 17:00:50 NaughtyAmerica.com_17.01.22.Zoe.Clark.Johnny.Castle.Diary.Of.A.Nanny.XXX.IMAGESET-FuGLi
2017-01-22 17:01:38 Penthouse.com_17.01.20.Tanya.Turner.Lets.Get.Physical.XXX.IMAGESET-FuGLi
2017-01-22 17:01:45 VA-Ultra_Tone_Selected_Cuts_Compilation-UTR020-WEB-2017-PITY
2017-01-22 17:02:11 Overloque-Insomnia-YOD041-WEB-2017-PITY
2017-01-22 17:02:47 Arzuk-Eris_and_Dionys-MFR189-WEB-2017-PITY
2017-01-22 17:02:54 Tawa_Girl-Spirit_Voice__Remixes_2017-(DTT029)-WEB-2017-TREVASKiS
2017-01-22 17:03:02 Seroplexx-Baguette-(SR538)-WEB-2017-TREVASKiS
2017-01-22 17:03:13 Vem.Vet.Mest.S18E09.SWEDiSH.720p.WEB.h264-SweWR
2017-01-22 17:03:20 Ron_Costa-Let_Me_See-(OER2017002)-WEB-2017-TREVASKiS
2017-01-22 17:03:34 Rio.De.Janeiro.2016.Giochi.Della.31a.Olimpiade.Notte.Pre.Olimpica.iTALiAN.HDTV.x264-iDiB
2017-01-22 17:03:35 JoJos.Bizarre.Adventure.S01E13.DUBBED.720p.HDTV.x264-W4F
2017-01-22 17:03:54 Kreisel_and_Sisko_Electrofanatik-Octopus-(CSMD090)-WEB-2017-TREVASKiS
2017-01-22 17:04:01 Penthouse.com_17.01.20.Angela.Sommers.Jayden.Cole.Pet.Retreat.4.XXX.IMAGESET-FuGLi
2017-01-22 17:04:17 Vem.Vet.Mest.S18E10.SWEDiSH.720p.WEB.h264-SweWR
2017-01-22 17:04:47 KGIV-Mockingbird-WEB-2017-TREVASKiS
2017-01-22 17:04:55 Penthouse.com_17.01.21.Bianca.Breeze.Victor.Couplicity.4.XXX.IMAGESET-FuGLi
2017-01-22 17:04:56 Greys.Anatomy.S12E12.FRENCH.720p.HDTV.x264-AMB3R
2017-01-22 17:05:39 Mark_Cowax_Vs_Anthony_Gorden-Klang_Der_Zeit-(PR043)-WEB-2017-TREVASKiS
2017-01-22 17:06:11 EPL.2017.01.22.Southampton.vs.Leicester.City.720p.HDTV.x264-VERUM
2017-01-22 17:06:29 Drug4u__Repton-Fear_Of_Consiousness_EP-(PTR128)-WEB-2017-TREVASKiS
2017-01-22 17:06:41 Penthouse.com_17.01.22.Aaron.Wilcoxxx.Bianca.Breeze.Power.House.4.XXX.IMAGESET-FuGLi
2017-01-22 17:06:46 VA-Reflect_House_Vol_47-WEB-2017-PITY
2017-01-22 17:06:52 Se7en.1995.iTALiAN.iNTERNAL.720p.HDTV.x264-iDiB
2017-01-22 17:06:55 One.Piece.E376.DUBBED.720p.HDTV.x264-W4F
2017-01-22 17:07:06 Se7en.1995.iTALiAN.iNTERNAL.HDTV.x264-iDiB
2017-01-22 17:07:14 Disclaimer-Disclaimer_001-(DSCLM001)-WEB-2017-TREVASKiS
2017-01-22 17:07:19 Rio.De.Janeiro.2016.Giochi.Della.31a.Olimpiade.Notte.Pre.Olimpica.iTALiAN.720p.HDTV.x264-iDiB
2017-01-22 17:07:24 One.Piece.E376.DUBBED.HDTV.x264-W4F
2017-01-22 17:07:58 Hunter.X.Hunter.2011.S01E35.DUBBED.HDTV.x264-W4F
2017-01-22 17:08:29 Corey_Biggs-The_Prayers_Of_Paheri-(PRS39)-WEB-2017-TREVASKiS
2017-01-22 17:09:12 True.Legend.2010.iTALiAN.720p.HDTV.x264-iDiB
2017-01-22 17:09:31 Oscar_L-Wasp-(STICKWASP153)-WEB-2017-TREVASKiS
2017-01-22 17:09:55 Saturday.Night.Live.S42E12.Aziz.Ansari.1080p.HDTV.x264-CROOKS
2017-01-22 17:10:02 True.Legend.2010.iTALiAN.HDTV.x264-iDiB
2017-01-22 17:10:29 Billy_Niko-Micro_Suns-WEB-2017-TREVASKiS
2017-01-22 17:10:54 Ryan_Michael_Robbins-Steamy-(FRCNML194)-WEB-2017-TREVASKiS
2017-01-22 17:11:07 I.Gi.HJack.S02E16.SPANiSH.720p.HDTV.x264-Aapult
2017-01-22 17:11:59 Quadrant.Complete.MULTI7-POSTMORTEM
2017-01-22 17:12:14 VA-Se_Lek_Radio_Rotations_Vol_1-SELEKS034-WEB-2017-PITY
2017-01-22 17:12:37 Christian_Tamberger_-_Winter-(10117171)-WEB-2017-ZzZz
2017-01-22 17:12:43 Kubot-Extract-PTNTR020-WEB-2017-PITY
2017-01-22 17:13:13 Glitter-I_Say_No-PU296-WEB-2017-PITY
2017-01-22 17:13:41 Lee_Guthrie-On_The_Double-MSR045-WEB-2017-PITY
2017-01-22 17:13:55 Suomen.Urheilugaala.2017.FiNNISH.720p.HDTV.x264-KAAPELiTV
2017-01-22 17:14:05 DJ_Dreijer-Psycho_Sound-WEB-2017-PITY
2017-01-22 17:14:40 Terry_Lex__Rio_Dela_Duna-You_Told_Me_To_Stay-WEB-2017-PITY
2017-01-22 17:15:11 JOnO-Nocturnal_City-SUBLAB09-WEB-2017-PITY
2017-01-22 17:15:19 Hunter.X.Hunter.2011.S01E35.DUBBED.720p.HDTV.x264-W4F
2017-01-22 17:15:53 Lezcano-Forbidden_Arcadia-MYC458-WEB-2017-PITY
2017-01-22 17:15:58 911.S02E14.FRENCH.HDTV.x264-BAWLS
2017-01-22 17:16:27 911.S02E14.FRENCH.720p.HDTV.x264-BAWLS
2017-01-22 17:16:37 Dan_Labshock-Emergence_EP-MJ186-WEB-2017-PITY
2017-01-22 17:17:03 SPRKZ-Easy-USA201703-WEB-2017-PITY
2017-01-22 17:17:55 Joe_Drummer-Spring-HCM024-WEB-2017-PITY
2017-01-22 17:18:01 Code.111.S01E14.FRENCH.720p.HDTV.x264-BAWLS
2017-01-22 17:18:12 Pinball.Parlor.RIP-Unleashed
2017-01-22 17:18:34 Code.111.S01E14.FRENCH.HDTV.x264-BAWLS
2017-01-22 17:18:47 DJ_Stiven-Trance_Lights-BSR078-WEB-2017-PITY
2017-01-22 17:18:56 VA_-_No_Brainer_Nuggets_Vol.2-WEB-2012-BiLDERBERG
2017-01-22 17:19:21 Tiziano_Clima-I_Hold_You_EP-LP374-WEB-2017-PITY
2017-01-22 17:19:54 Xexu_Lopez-Save_All-WEB-2017-PITY
2017-01-22 17:20:35 A_Skitzo-Atlantis-SV037-WEB-2017-PITY
2017-01-22 17:20:43 DJ_Drob_-_Break-(GYS_950)-WEB-2017-ZzZz
2017-01-22 17:21:10 Eyelash-Wana_Ni_Djembe-WEB-2017-PITY
2017-01-22 17:21:39 Helvedes.Hus.S01E06.DANiSH.720p.HDTV.x264-SKANK
2017-01-22 17:21:42 Benno_Blome-Drop_Out-SEND1004-WEB-2017-PITY
2017-01-22 17:22:15 Simply.Ming.S14E13.Orjan.Johannessen.HDTV.x264-CRiMSON
2017-01-22 17:22:19 Christian_Monique-Odyssey-IFMR165-WEB-2017-PITY
2017-01-22 17:22:36 Simply.Ming.S14E13.Orjan.Johannessen.720p.HDTV.x264-CRiMSON
2017-01-22 17:22:45 JUDE-Various_Thoughts-ETM381-WEB-2017-PITY
2017-01-22 17:23:16 Nacim_Ladj-Layer_By_Layer-NASIMUS075-WEB-2017-PITY
2017-01-22 17:23:38 Adam_Morris_-_I_See_You_EP-(VH_099)-WEB-2017-ZzZz
2017-01-22 17:23:46 Winning_Team-Dranken-VENTCD10-WEB-2017-PITY
2017-01-22 17:24:08 DJ_Favorite_And_Laura_Grig_-_Last_Christmas_(Included_DJ_Tpaul_Sax_Mix)-(SBR_001)-WEB-2016-ZzZz_INT
2017-01-22 17:24:11 Helvedes.Hus.S01E06.DANiSH.HDTV.x264-SKANK
2017-01-22 17:24:16 Rusharn_and_Masters_Of_The_Underground-Collections_Vol_4_B_Side-PPC04B-WEB-2017-PITY
2017-01-22 17:24:44 Dispel-Liberation-LW020-WEB-2017-PITY
2017-01-22 17:25:09 Nistad-Breeze__Alcudia-PHW249-WEB-2017-PITY
2017-01-22 17:25:45 Rabo-Crossing_Borders-SO189-WEB-2017-PITY
2017-01-22 17:26:19 Tomohiro_Yano-Binaural_Fruits-WEB-2017-PITY
2017-01-22 17:26:41 Dawn_Ahenk-I_Want_You_To_Know-MNN064-WEB-2017-PITY
2017-01-22 17:27:08 Dainpeace-Chapeau_(Pushing_On)-WEB-2017-PITY
2017-01-22 17:27:43 Ellez-Aura-EUANTHE013-WEB-2017-PITY
2017-01-22 17:28:45 Gotham.S02E02.German.DVDRip.x264-RWP
2017-01-22 17:29:29 Zero.Escape.Zero.Time.Dilemma.RIP-SiMPLEX
2017-01-22 17:29:31 Gotham.S02E03.German.DVDRip.x264-RWP
2017-01-22 17:30:16 Gotham.S02E04.German.DVDRip.x264-RWP
2017-01-22 17:31:02 Gotham.S02E05.German.DVDRip.x264-RWP
2017-01-22 17:31:48 Gotham.S02E06.German.DVDRip.x264-RWP
2017-01-22 17:32:29 Dragon.Ball.Z.Kai.S05E03.DUBBED.1080p.HDTV.x264-W4F
2017-01-22 17:32:34 Gotham.S02E07.German.DVDRip.x264-RWP
2017-01-22 17:33:20 Gotham.S02E08.German.DVDRip.x264-RWP
2017-01-22 17:34:06 Gotham.S02E09.German.DVDRip.x264-RWP
2017-01-22 17:34:33 VA-Best_Of_Progressive_House_2017_Vol_01-EDMC150-WEB-2017-PITY
2017-01-22 17:34:50 Gotham.S02E10.German.DVDRip.x264-RWP
2017-01-22 17:34:53 Power.Rangers.S24E01.HDTV.x264-W4F
2017-01-22 17:35:05 Dimi_D-Handmade-LG046-WEB-2017-PITY
2017-01-22 17:35:31 Good_Voodoo_Society-Nobody_Domineeky_House_Mix-GVM077-WEB-2017-PITY
2017-01-22 17:35:37 Gotham.S02E11.German.DVDRip.x264-RWP
2017-01-22 17:35:55 Flam_Department-Whats_Up-NF068-WEB-2017-PITY
2017-01-22 17:36:20 Ronee-The_Flight_Of_The_Soul-CAT01558-WEB-2017-PITY
2017-01-22 17:36:23 Gotham.S02E12.German.DVDRip.x264-RWP
2017-01-22 17:36:43 Claborg-My_Head_Stronger-BCR030-WEB-2017-PITY
2017-01-22 17:37:08 Gotham.S02E13.German.DVDRip.x264-RWP
2017-01-22 17:37:16 The_Loco-Tameless-FST77-WEB-2017-PITY
2017-01-22 17:37:54 Gotham.S02E14.German.DVDRip.x264-RWP
2017-01-22 17:37:57 Matias_Carafa-Esas_Pequenas_Cosas-NLM015-WEB-2017-PITY
2017-01-22 17:38:23 Fer_J-Dreaming_Awake-MMN012-WEB-2017-PITY
2017-01-22 17:38:39 Gotham.S02E15.German.DVDRip.x264-RWP
2017-01-22 17:38:58 Alfonso_Muchacho-Remind_Me_(Remixes)-WEB-2017-PITY
2017-01-22 17:39:25 Gotham.S02E16.German.DVDRip.x264-RWP
2017-01-22 17:39:33 Guy_Scheiman-Waiting_For_Your_Love-GSM16-WEB-2017-PITY
2017-01-22 17:39:41 Power.Rangers.S24E01.720p.HDTV.x264-W4F
2017-01-22 17:40:08 2streetback-Confess-ROLL023-WEB-2017-PITY
2017-01-22 17:40:12 Gotham.S02E17.German.DVDRip.x264-RWP
2017-01-22 17:40:35 Damolh33-Masterpiece-WEB-2017-PITY
2017-01-22 17:40:59 Gotham.S02E18.German.DVDRip.x264-RWP
2017-01-22 17:41:00 Duskope-Feels-GTR16-WEB-2017-PITY
2017-01-22 17:41:37 E_Spectro_and_Hells_Kitchen-ZigZag-BW023-WEB-2017-PITY
2017-01-22 17:41:43 Gotham.S02E19.German.DVDRip.x264-RWP
2017-01-22 17:42:03 Josh_Nor-Kobra_Flute-WEB-2017-PITY
2017-01-22 17:42:29 Gotham.S02E20.German.DVDRip.x264-RWP
2017-01-22 17:42:34 RoyTson-You_Spin_Me_Round-KSE7023-WEB-2017-PITY
2017-01-22 17:42:49 Zero.Escape.Zero.Time.Dilemma.RIP.SPEECH.ADDON-SiMPLEX
2017-01-22 17:43:01 German_Garcia-Gravel-WEB-2017-PITY
2017-01-22 17:43:25 Bsharry-Get_Down_Get_Loose-ELV515-WEB-2017-PITY
2017-01-22 17:43:49 Multimen-Tomba-LEAD039-WEB-2017-PITY
2017-01-22 17:43:56 Sanne.Soendergaard.Mandehader.DANiSH.HDTV.x264-SKANK
2017-01-22 17:44:20 Two_S-Trust_You-MDR007-WEB-2017-PITY
2017-01-22 17:44:50 Stativ_Connection-The_Return-STATIV006-WEB-2017-PITY
2017-01-22 17:45:18 Draud-Funky_Groove-TG013-WEB-2017-PITY
2017-01-22 17:45:50 Ramon_Bedoya-Animals_EP-WEB-2017-PITY
2017-01-22 17:46:41 Charles_Oliver-Heights-CMP024-WEB-2017-PITY
2017-01-22 17:47:06 Dance_Music_Connection-I_Came_To_Get_Down-DJK0128-WEB-2017-PITY
2017-01-22 17:47:32 Avada-Terror-UIII00758-WEB-2017-PITY
2017-01-22 17:47:54 Azevzir_feat_Egesu-B13-WR027-WEB-2017-PITY
2017-01-22 17:48:38 Louie_J-Overwhelming-STR095-WEB-2017-PITY
2017-01-22 17:49:03 Narkan-Going_Down-CR025-WEB-2017-PITY
2017-01-22 17:49:31 Owersound-Sun_Moon-WEB-2017-PITY
2017-01-22 17:49:54 Matias_Carafa-Esas_PequenasCosas-NLM015-WEB-2017-PITY
2017-01-22 17:49:55 Greys.Anatomy.S12E13.FRENCH.720p.HDTV.x264-AMB3R
2017-01-22 17:50:04 Midnight_Traffic-Pentagram-QR044-WEB-2017-PITY
2017-01-22 17:50:32 Aziz_Roshdy-Fragile_EP-SBR118-WEB-2017-PITY
2017-01-22 17:51:05 Sonic_Box-Fire_In_The_Night_(Sus_Mix)-SB001-WEB-2017-PITY
2017-01-22 17:51:29 Justin_Point-Porgui-KAD093-WEB-2017-PITY
2017-01-22 17:51:55 Saori-Froger-SS018-WEB-2017-PITY
2017-01-22 17:52:30 West_Minds-Cest_La_Vie-HOTL021-WEB-2017-PITY
2017-01-22 17:53:20 DYNOHUNTER-Point_Of_Departure-CAT02028-WEB-2017-PITY
2017-01-22 17:53:53 AudioStorm-Karma-LBR188-WEB-2017-PITY
2017-01-22 17:54:23 NHL.2017.01.21.Winnipeg.vs.St.Louis.HDTV.x264-GAMETiME
2017-01-22 17:54:26 Dinodeuts-Let_The_Spirit_Meet_You-TR71-WEB-2017-PITY
2017-01-22 17:55:13 VA-Infinity__Innuendo-OAE018-WEB-2017-PITY
2017-01-22 17:55:51 Forever_80-Body_Language-SYLIFE1003-WEB-2017-PITY
2017-01-22 17:56:26 Mysterious_Phunky-Have_A_Phunky_Life_EP-CFM00011-WEB-2017-PITY
2017-01-22 17:56:52 Nacim_Ladj-Magic_Mushrooms-NASIMUS070-WEB-2017-PITY
2017-01-22 17:57:23 Miguel_B-Illusions-MRR009-WEB-2017-PITY
2017-01-22 17:57:47 Seventh_Distrikt-Smells_Like_67-HG013-WEB-2017-PITY
2017-01-22 17:57:58 Alex_Numark_-_Moments_Inspiration-(IM_010)-WEB-2017-ZzZz
2017-01-22 17:58:12 Butinger-Reset-WEB-2017-PITY
2017-01-22 17:58:35 Thomas_Reel-Hidden_Peninsula-XTR005-WEB-2017-PITY
2017-01-22 17:59:07 J._Khobb-Halo-HYDRO064-WEB-2017-PITY
2017-01-22 17:59:31 StereoSkopik-Pursuit-SR029-WEB-2017-PITY
2017-01-22 17:59:54 Tomas_Balaz-Go_Back-CTX129-WEB-2017-PITY
2017-01-22 17:59:59 NHL.2017.01.21.Winnipeg.vs.St.Louis.720p.HDTV.x264-GAMETiME
2017-01-22 18:00:00 Zero.Escape.Zero.Time.Dilemma.RIP.MUSIC.ADDON-SiMPLEX
2017-01-22 18:00:44 Sygic.GPS.Navigation.v16.5.1.ANDROiD-rGPDA
2017-01-22 18:03:12 Kobes-Flex-WEB-2017-PITY
2017-01-22 18:03:28 The.A-Team.S02E20.Ein.Kinderspiel.German.DL.FS.Dubbed.720p.BluRay.x264-CNHD
2017-01-22 18:03:38 Dario_Nunez__Julian_the_Angel-West_Voices-WEB-2017-PITY
2017-01-22 18:03:40 Revenge.Body.With.Khloe.Kardashian.S01E02.Softball.Sweethearts.and.Former.Footballer.HDTV.x264-CRiMSON
2017-01-22 18:03:58 Pit.Bulls.and.Parolees.S08E09.Going.the.Distance.720p.HDTV.x264-CRiMSON
2017-01-22 18:04:02 Worthy-Keep_Me_Up-EXP18-WEB-2017-PITY
2017-01-22 18:04:16 Pit.Bulls.and.Parolees.S08E09.Going.the.Distance.HDTV.x264-CRiMSON
2017-01-22 18:04:32 Vanleer-La_Tria-BMSE069-WEB-2017-PITY
2017-01-22 18:04:57 Tritemyo-Ubangi-KLD198-WEB-2017-PITY
2017-01-22 18:05:28 Soulspeed-You_Know_It_EP-LB114-WEB-2017-PITY
2017-01-22 18:06:03 Kissoff-Mechanic-BC2135-WEB-2017-PITY
2017-01-22 18:10:18 Sak_Chaime-Karma-WEB-2017-PITY
2017-01-22 18:10:54 Moicano-Enjoy_The_Trip-KR142-WEB-2017-PITY
2017-01-22 18:11:24 Montw-Nightfall-WEB-2017-PITY
2017-01-22 18:12:09 Ant-Man.2015.German.DL.1080p.BluRay.AVC-ONFiRE
2017-01-22 18:12:14 Alessio_Corasaniti-Electronic_Fusion-WEB-2017-PITY
2017-01-22 18:12:38 3MILIANO4YALA-Limitless-DNC083-WEB-2017-PITY
2017-01-22 18:13:02 Riven_Benavi-Bodymove-LQDD0185-WEB-2017-PITY
2017-01-22 18:13:04 Luci.Horror.Story-ALiAS
2017-01-22 18:13:31 7.40-Calling_Sophie__Sophies_Sofa-CH070-WEB-2017-PITY
2017-01-22 18:13:52 Omar_Newman-Out_Of_Limits-MF00064-WEB-2017-PITY
2017-01-22 18:13:58 Cole_Feat_Gifta-Guiana-Promo-CDS-2004-OGV
2017-01-22 18:14:26 Christian_Drost_P_M_Project__Twono-Evolved_Progressions_5-PD136-WEB-2017-PITY
2017-01-22 18:14:38 Zero.Escape.Zero.Time.Dilemma.No.Intro-RAiN
2017-01-22 18:15:10 Artem_Rubtsov-Submarine-STAZIS89-WEB-2017-PITY
2017-01-22 18:15:16 Homes.Under.The.Hammer.S17E23.HDTV.x264-NORiTE
2017-01-22 18:15:32 Marco_Strous-Ill_Show_You-JUMP0015-WEB-2017-PITY
2017-01-22 18:16:03 Greg_Bejger-Walk_EP-MNR124-WEB-2017-PITY
2017-01-22 18:16:26 Trippy-Young_Spirit-ITR043-WEB-2017-PITY
2017-01-22 18:16:47 Opus_D-Livin_For_The_Moment-CAT04669-WEB-2017-PITY
2017-01-22 18:17:09 Flog.It.S09E03.HDTV.x264-NORiTE
2017-01-22 18:17:21 Angelo_Bass-Undergroove-DCM019-WEB-2017-PITY
2017-01-22 18:17:40 Chiara_Robiony_B2B_Renee_La_Bulgara-Girls_DJ_Club-SAT-21-01-2017-LFA
2017-01-22 18:17:50 Bruno_Knauft-Trust-KIESO085-WEB-2017-PITY
2017-01-22 18:18:18 Manuela_Doriani-Electro_Zone-SAT-21-01-2017-LFA
2017-01-22 18:18:38 Jim.Gaffigan.Cinco.2017.1080p.WEBRip.X264-DEFLATE
2017-01-22 18:18:47 Mattei_and_Omich-Waves-SAT-21-01-2017-LFA
2017-01-22 18:19:04 Cockroach_-_Deconstruction_EP-(CAT_04587)-WEB-2017-ZzZz
2017-01-22 18:19:07 Molella-M2O_Club_Chart-SAT-21-01-2017-LFA
2017-01-22 18:19:32 Paolo_Bolognesi-Stardust_Chart-SAT-21-01-2017-LFA
2017-01-22 18:19:44 VA-Cinematic_Chillout__Wintertime_Collection-MIM439-WEB-2017-PITY
2017-01-22 18:19:54 Prezioso-In_Action-SAT-21-01-2017-LFA
2017-01-22 18:20:27 Martin_Gardoqui-Introspection-HYDRO076-WEB-2017-PITY
2017-01-22 18:21:05 Dan_Smooth_And_Elena_T_-_Hidden_Fantasy-(AZREC_214)-WEB-2017-ZzZz
2017-01-22 18:21:09 KaioBarssalos_and_Wesley_Martins-Caos-UXE087-WEB-2017-PITY
2017-01-22 18:21:32 Dataslave-Uncharted-ADRM041-WEB-2017-PITY
2017-01-22 18:22:17 Tom_Wegert-Met_A_Girl-NAT010-WEB-2017-PITY
2017-01-22 18:22:44 Frenzy_feat_Richard_Wette-Brain_Dead_Party_Music-PSR030-WEB-2017-PITY
2017-01-22 18:23:15 Misc_Mood_and_Alberto_Aguilera-Ultralite_Night_Control-LQDG0177-WEB-2017-PITY
2017-01-22 18:23:43 Relaks-Diskotecha-WEB-2017-PITY
2017-01-22 18:24:07 Jeff_Geiger-Glory_Days-WEB-2017-PITY
2017-01-22 18:24:47 Carkeys-Heaven-CDJ098-WEB-2017-PITY
2017-01-22 18:25:20 Marangoni-Fake_Bitches-CAT00403-WEB-2017-PITY
2017-01-22 18:25:30 WakeUpNFuck.E207.Beatrix.Glover.XXX.1080p.MP4-BIUK
2017-01-22 18:25:48 Funkatomic__Claudio_Caccini-Its_A_House_Thing-WU057-WEB-2017-PITY
2017-01-22 18:27:11 VA-City_Abusers_Arrival_Copy-WEB-2017-PITY
2017-01-22 18:27:22 Lesbea.com_17.01.22.Anie.Darling.and.Paula.Asian.Pussy.Rubbed.On.Teens.Face.XXX.IMAGESET-GAGBALL
2017-01-22 18:27:34 One.Direction.This.Is.Us.3D.2013.EXTENDED.DOCU.1080p.MBluRay.x264-SNTN
2017-01-22 18:27:43 Moe.ritz-President_EP-WEB-2017-PITY
2017-01-22 18:28:14 Eddi_Shkiper-Muutos-CPL087-WEB-2017-PITY
2017-01-22 18:28:40 Mario_Robanno-Bug-WEB-2017-PITY
2017-01-22 18:29:28 WoodmanCastingX.16.10.15.Fira.Ventura.XXX.2160p.MP4-BIUK
2017-01-22 18:32:37 Homes.Under.The.Hammer.S17E23.720p.HDTV.x264-NORiTE
2017-01-22 18:32:43 Four_Eyez-Molecule-CAT01715-WEB-2017-PITY
2017-01-22 18:33:14 BIAGIO_LANA-ITALO-IE177-WEB-2017-PITY
2017-01-22 18:33:39 High_One-Unshakable-IT116-WEB-2017-PITY
2017-01-22 18:34:05 Justin_Point-Pleasure_X-KAD094-WEB-2017-PITY
2017-01-22 18:34:31 Jo_Fridan-Back_To_My_Concept-WEB-2017-PITY
2017-01-22 18:35:06 A._Lacosta__Aleks_Marty-Throwback-UMO001-WEB-2017-PITY
2017-01-22 18:35:28 Ipat_Arch-Break_It_Down-QTZ0188-WEB-2017-PITY
2017-01-22 18:35:42 Freddy_Quinn-Seine_Groessten_Erfolge-DE-PROPER-CD-FLAC-1998-VOLDiES
2017-01-22 18:35:54 Chagochkin-Torro-CAT01524-WEB-2017-PITY
2017-01-22 18:36:12 Idol.Incidents.E03.SUBFRENCH.1080p.WEBRip.X264-SLEEPINGFOREST
2017-01-22 18:36:14 Baxromoff-Immortal-PRM003-WEB-2017-PITY
2017-01-22 18:36:51 Di_Rugerio-Stardust-EPH010-WEB-2017-PITY
2017-01-22 18:37:13 Idol.Incidents.E03.SUBFRENCH.720p.WEBRip.X264-SLEEPINGFOREST
2017-01-22 18:37:15 Jason_Xmoon-Tras_Noche-CAT01501-WEB-2017-PITY
2017-01-22 18:37:47 Nyanko.Days.E03.SUBFRENCH.1080p.WEBRip.X264-SLEEPINGFOREST
2017-01-22 18:37:48 H3-Incantation-LR201636-WEB-2017-PITY
2017-01-22 18:38:05 Nyanko.Days.E03.SUBFRENCH.720p.WEBRip.X264-SLEEPINGFOREST
2017-01-22 18:38:10 Hollmspeed-Somnia-CAT01547-WEB-2017-PITY
2017-01-22 18:38:42 Felipe_Kastegliano-The_Bugle_EP-ZS028-WEB-2017-PITY
2017-01-22 18:39:15 Lazy_Bear-Bodymove_EP-WAR023-WEB-2017-PITY
2017-01-22 18:39:34 Fish_Fugue-Sancy-ST887-WEB-2017-PITY
2017-01-22 18:40:08 Robert_R._Hardy-Aeternum-ST108-WEB-2017-PITY
2017-01-22 18:40:44 Wrighteous-Open_Space-SHBZ142-WEB-2017-PITY
2017-01-22 18:40:59 Dan_Smooth_And_Si_Stevens_-_Hidden_Fantasy-(SC_053)-WEB-2017-ZzZz
2017-01-22 18:41:17 Narkan-Minimal_Kiss-EC00256-WEB-2017-PITY
2017-01-22 18:41:47 Emilove-The_Song_Of_Savannah-LTL024-WEB-2017-PITY
2017-01-22 18:42:18 Halek-Underbox-UFK023-WEB-2017-PITY
2017-01-22 18:42:39 Josh_Rumble-What_The_Funk-WEB-2017-PITY
2017-01-22 18:43:10 Lucas_Ferreyra-Bad_Feeling-BNN017-WEB-2017-PITY
2017-01-22 18:43:31 Dmitry_Bereza-Fire_Away-GYS951-WEB-2017-PITY
2017-01-22 18:44:03 Tale_Cooper-Air_EP-SUPREMUS012-WEB-2017-PITY
2017-01-22 18:44:18 The_Replacements-Sorry_Ma_Forgot_To_Take_Out_The_Trash-DIRFIX-REPACK-REMASTERED-CD-FLAC-1990-FATHEAD
2017-01-22 18:44:26 23h31-The_Messenger-(TRAUMA026)-WEB-2015-USR
2017-01-22 18:44:27 The_Time-What_Time_Is_It-DIRFIX-REPACK-REISSUE-CD-FLAC-1987-FATHEAD
2017-01-22 18:44:33 Rob_Evs-E_and_M-OHR027-WEB-2017-PITY
2017-01-22 18:45:00 Attrition-In_Dark_Dreams_(1980_-_2015)-(10GODSDIG)-WEB-2015-USR
2017-01-22 18:45:10 Missus-Neverending_Story-OTS005-WEB-2017-PITY
2017-01-22 18:45:24 Operation.Chromite.2016.COMPLETE.BluRay-o0o
2017-01-22 18:45:33 Attrition-Live_At_Le_Klub._Paris._2010-(9GODSDIG)-WEB-2014-USR
2017-01-22 18:45:40 Steven_Gonlop-Etap2-WEB-2017-PITY
2017-01-22 18:46:07 Attrition-Live_At_Pushing_Against_The_Wire._1992-(6GODSDIG)-WEB-2014-USR
2017-01-22 18:46:13 Japeboy-A_Couple_Of_Hours_(Remixes)-MCP029-WEB-2017-PITY
2017-01-22 18:46:40 Mind_Necrosis_Factor-Morphogenesis-(TRAUMA014)-WEB-2008-USR
2017-01-22 18:47:13 Moaan_Exis-Invok-(TRAUMA035)-WEB-2016-USR
2017-01-22 18:47:48 Nano_Synthetic-Substance-(NODIVR008)-WEB-2014-USR
2017-01-22 18:48:17 VA-Deep_Side_Visions_Vol_23-CRM096-WEB-2017-PITY
2017-01-22 18:48:21 Signal2-The_Negative-(TRAUMA033)-WEB-2016-USR
2017-01-22 18:48:50 Chris_Schambacher-Dare_To_Dream-ND210-WEB-2017-PITY
2017-01-22 18:48:54 Sonic_Area-Rarities_(2003-2012)-(DIG030)-WEB-2012-USR
2017-01-22 18:49:22 Phillipo_Blake-Mild_Taste-PB064-WEB-2017-PITY
2017-01-22 18:49:27 The_Blood_Of_Others-I_Used_To_Think_Everything_Was_Beautiful-(TRAUMA034)-WEB-2016-USR
2017-01-22 18:49:41 Stokes_CPH-Never_Change-Rerip-2016-iTS
2017-01-22 18:49:57 J_Apollo-Behind_The_Lines_EP-PMK002-WEB-2017-PITY
2017-01-22 18:50:02 VA-Fuck_All_Diseases-(INV001)-WEB-2014-USR
2017-01-22 18:50:37 Dim_Astom-Confusion-MRK17-WEB-2017-PITY
2017-01-22 18:51:09 Javier_Alemany-Lost_In_Berlin-WEB-2017-PITY
2017-01-22 18:51:31 Sherlock.S04D01.COMPLETE.BluRay-o0o
2017-01-22 18:51:55 Malatoid-Some_Balance-CAT00578-WEB-2017-PITY
2017-01-22 18:52:28 Mono.S__Fedorovski-Gimme_Groove_EP-MNC002-WEB-2017-PITY
2017-01-22 18:53:06 Mario_Chris-Time_Traveler-ELK177-WEB-2017-PITY
2017-01-22 18:53:34 Maslin-BIR__IKI_EP-PANDT022-WEB-2017-PITY
2017-01-22 18:54:00 Vansnatch-After_Party_Politics-KR0053-WEB-2017-PITY
2017-01-22 18:54:37 Cesar_Estrella-Mystic_Call_EP-CWA231-WEB-2017-PITY
2017-01-22 18:55:03 LetKolben-Weird_Times-ACHT005D-WEB-2017-PITY
2017-01-22 18:55:56 VA-The_Greatest_Dance_House_Of_All_Time_Vol_2-RIMVA939-WEB-2017-PITY
2017-01-22 18:59:16 VA-Minimal_House_Conference_Vol_13-CONF013-WEB-2017-PITY
2017-01-22 18:59:49 MoonDark-Get_On-WEB-2017-PITY
2017-01-22 18:59:59 Homes.Under.The.Hammer.S17E22.720p.HDTV.x264-NORiTE
2017-01-22 19:00:13 Simonoize-Proton-DNC081-WEB-2017-PITY
2017-01-22 19:00:49 Richard_Wasc-Go_Out_Calmly-CLRHS028-WEB-2017-PITY
2017-01-22 19:01:17 Ivan_Torres-Respect-AHR061-WEB-2017-PITY
2017-01-22 19:01:50 HNSI-Bosco_Nero-UT026-WEB-2017-PITY
2017-01-22 19:02:25 The_Mae-Boreal_Remixes-DK026-WEB-2017-PITY
2017-01-22 19:03:12 Monojoke-The_Garden_Of_Eden_(Remixes)-CLR205-WEB-2017-PITY
2017-01-22 19:03:45 Tommy_Boccuto-My_First_Love-WEB-2017-PITY
2017-01-22 19:04:13 Dilby-The_Things_We_Do-WHHA127-WEB-2017-PITY
2017-01-22 19:04:41 T3rminal-Need_Someone-NC057-WEB-2017-PITY
2017-01-22 19:05:13 Danny_Serrano-Article-EAB013-WEB-2017-PITY
2017-01-22 19:05:41 DJ_Lenny-Blessings-CAT96107-WEB-2017-PITY
2017-01-22 19:06:10 Nuccio_Morris-Deep_In_Paradise-KRO00207-WEB-2017-PITY
2017-01-22 19:06:43 Netzik-Out_Of_Me-MKE129-WEB-2017-PITY
2017-01-22 19:07:17 Alex_Cundari-Baila-KCD17014-WEB-2017-PITY
2017-01-22 19:07:47 Mazurenko-Hard_Opposition-OT058-WEB-2017-PITY
2017-01-22 19:08:16 Stefano_Richetta-The_Force-CR068-WEB-2017-PITY
2017-01-22 19:09:01 Information_Ghetto-Mental_Harp-WEB-2017-PITY
2017-01-22 19:09:35 Flo_Van_O-Lyre_Bird-ATC009-WEB-2017-PITY
2017-01-22 19:09:51 Ivan_Deyanov-Drop_It-SEC11-WEB-2017-PITY
2017-01-22 19:10:23 Robert_Ortiz-Chicka_Fresca-AMM072-WEB-2017-PITY
2017-01-22 19:10:51 Gabriel_Slick-Versatile_EP-SLK134-WEB-2017-PITY
2017-01-22 19:11:34 Guido_Cusani-Analog_Expression-WD009-WEB-2017-PITY
2017-01-22 19:12:03 Wayne_Madiedo-La_Flor-WEB-2017-PITY
2017-01-22 19:12:35 Levitone-Elemental_Drop__Crossroads-MOMA006-WEB-2017-PITY
2017-01-22 19:13:09 Giacomo_De_Falco-Behind-MOIRA055-WEB-2017-PITY
2017-01-22 19:13:27 Skydrum__Soul_Player-Invictus-KSR028-WEB-2017-PITY
2017-01-22 19:14:51 Revenge.Body.With.Khloe.Kardashian.Special.S01E00.Preview.1080p.WEB.x264-TURBO
2017-01-22 19:16:27 Mom.S04E08.REPACK.SPANiSH.HDTV.x264-FERiCE
2017-01-22 19:18:14 Sanne.Soendergaard.Mandehader.DANiSH.720p.HDTV.x264-SKANK
2017-01-22 19:18:53 The.Thundermans.S04E05.720p.HDTV.x264-W4F
2017-01-22 19:19:37 The.Thundermans.S04E05.HDTV.x264-W4F
2017-01-22 19:22:32 Zero.Escape.Zero.Time.Dilemma.Intro.Addon-RAiN
2017-01-22 19:24:00 VA-Marine_House_Party_Ibiza-WEB-2017-PITY
2017-01-22 19:24:12 School.of.Rock.S02E12.720p.HDTV.x264-W4F
2017-01-22 19:24:27 DJ_Jamie-Tribal_Magnetic-WEB-2017-PITY
2017-01-22 19:25:00 Joe_Dymond-Walkabout-LOWPRESSINGS204-WEB-2017-PITY
2017-01-22 19:25:37 Mattia_Pompeo-Second_Shadow-EIN2016-WEB-2017-PITY
2017-01-22 19:25:39 Bargain.Hunt.S42E29.HDTV.x264-DOCERE
2017-01-22 19:25:46 School.of.Rock.S02E12.HDTV.x264-W4F
2017-01-22 19:26:08 Earnest_(Melb)-Era-SFRD099-WEB-2017-PITY
2017-01-22 19:26:36 DJ_Zedo-Melody-ITSNOT249-WEB-2017-PITY
2017-01-22 19:26:58 Alberto_Costas-Body_Temples-ELKBR0201STEMS-WEB-2017-PITY
2017-01-22 19:27:33 Overdose-2ndContact-DNAEMUSIC15-WEB-2017-PITY
2017-01-22 19:27:58 Procopis_Gkouklias-Trophin-RDR101-WEB-2017-PITY
2017-01-22 19:28:40 Natema-Bring_The_Horns__Magical_Dog-HMR054-WEB-2017-PITY
2017-01-22 19:29:09 Krugel-Lights_Out-MIAW018-WEB-2017-PITY
2017-01-22 19:29:33 Jaybox-Bonanza-AOMP31-WEB-2017-PITY
2017-01-22 19:30:14 Drea_(CH)-Lokahi-WTM111-WEB-2017-PITY
2017-01-22 19:31:19 VA-Stormcaster_Vol_54-SCM054-WEB-2017-PITY
2017-01-22 19:31:45 Jean_Luca-My_Silence_Will_Speak_For_Me-WEB-2017-PITY
2017-01-22 19:32:08 Nicolaou-Black_Forest-MM023-WEB-2017-PITY
2017-01-22 19:32:35 Friedhof.der.Kuscheltiere.1989.German.DL.1080p.BluRay.x264-MAJESTiC
2017-01-22 19:32:46 Droff-After_The_New_Year-BB029-WEB-2017-PITY
2017-01-22 19:33:12 Kerem_Selek_and_Ocean_Chad-Karate-KP278-WEB-2017-PITY
2017-01-22 19:33:19 Friedhof.der.Kuscheltiere.1989.German.DL.720p.BluRay.x264-MAJESTiC
2017-01-22 19:33:38 Manora-First_Time-RFCT023-WEB-2017-PITY
2017-01-22 19:33:59 Sondik-Universe-PNR018-WEB-2017-PITY
2017-01-22 19:34:33 Max_Cue_and_William_Forest-A_Surge_Of_Anxiety-SFR239-WEB-2017-PITY
2017-01-22 19:35:02 Roberta_Bai-We_Are_Family__Family_Remake_(Italo_Disco)-ITALY102-WEB-2017-PITY
2017-01-22 19:36:56 Massimo_Santucci-Since_1971-ATL003-WEB-2017-PITY
2017-01-22 19:37:21 Rioz-Pantheon-ELC003-WEB-2017-PITY
2017-01-22 19:37:53 Shocknorte-Acabose-AE004-WEB-2017-PITY
2017-01-22 19:38:30 XOLOTL_feat_THEA-When_We_Fall-UMR001-WEB-2017-PITY
2017-01-22 19:38:54 Conny_Wolf-Haunted-BD1703-WEB-2017-PITY
2017-01-22 19:38:59 Idas.Fristelser.S02E01.NORWEGiAN.720p.WEB.h264-BALUBA
2017-01-22 19:39:22 Savi_Leon__Chris_Garcia-That-GDL1701-WEB-2017-PITY
2017-01-22 19:39:27 Idas.Fristelser.S02E02.NORWEGiAN.720p.WEB.h264-BALUBA
2017-01-22 19:39:44 Naomie_K-Go-WEB-2017-PITY
2017-01-22 19:40:20 Sonny_Francini-Walking_Under_The_Rain-GL015-WEB-2017-PITY
2017-01-22 19:40:48 Idas.Fristelser.S02E03.NORWEGiAN.720p.WEB.h264-BALUBA
2017-01-22 19:40:52 Stanny_Abram-Dont_Give_Up-MRB100-WEB-2017-PITY
2017-01-22 19:41:17 Idas.Fristelser.S02E04.NORWEGiAN.720p.WEB.h264-BALUBA
2017-01-22 19:41:27 Kazak-Autumn-STAZIS88-WEB-2017-PITY
2017-01-22 19:42:03 Aaron_Baron-Run_Massimo_Run_(Remixes)-FANTRUN01-WEB-2017-PITY
2017-01-22 19:42:34 Idas.Fristelser.S02E05.NORWEGiAN.720p.WEB.h264-BALUBA
2017-01-22 19:42:40 Disturbed_Traxx-Exit_Doors-WEB-2017-PITY
2017-01-22 19:42:56 Idas.Fristelser.S02E06.NORWEGiAN.720p.WEB.h264-BALUBA
2017-01-22 19:43:11 Marc_DePulse-By_Your_Side-EINMUSIKA091-WEB-2017-PITY
2017-01-22 19:43:16 One.Day.at.a.Time.2017.S01E12.GERMAN.1080p.WebHD.x264-VoDTv
2017-01-22 19:43:41 One.Day.at.a.Time.2017.S01E12.GERMAN.720p.WebHD.x264-idTV
2017-01-22 19:43:41 Idas.Fristelser.S02E07.NORWEGiAN.720p.WEB.h264-BALUBA
2017-01-22 19:43:44 Skillz_N_Fame-Anthem_EP-CAT01674-WEB-2017-PITY
2017-01-22 19:44:05 Idas.Fristelser.S02E08.NORWEGiAN.720p.WEB.h264-BALUBA
2017-01-22 19:44:06 Israel_Kling-Its_About_Music-WEB-2017-PITY
2017-01-22 19:44:10 One.Day.at.a.Time.2017.S01E12.GERMAN.WEBRiP.x264-idTV
2017-01-22 19:44:21 How.Its.Made.Dream.Cars.S01E01.Morgan.Aero.Coupe.1080p.WEB.h264-EDHD
2017-01-22 19:44:31 Luigi_Egitto-Run-LM014-WEB-2017-PITY
2017-01-22 19:44:59 One.Day.at.a.Time.2017.S01E13.GERMAN.1080p.WebHD.x264-VoDTv
2017-01-22 19:45:02 Matt_McLarrie-Dusty_Vinyl_EP-SIMRED044-WEB-2017-PITY
2017-01-22 19:45:22 One.Day.at.a.Time.2017.S01E13.GERMAN.720p.WebHD.x264-idTV
2017-01-22 19:45:37 Nick_Boults-Visions-INC061-WEB-2017-PITY
2017-01-22 19:46:06 Felipe_Cobos-Control-THM035-WEB-2017-PITY
2017-01-22 19:46:31 One.Day.at.a.Time.2017.S01E13.GERMAN.WEBRiP.x264-idTV
2017-01-22 19:46:31 How.Its.Made.Dream.Cars.S01E02.Porsche.911.1080p.WEB.h264-EDHD
2017-01-22 19:46:37 Sylk_Poletti-The_Game_O-BB0023-WEB-2017-PITY
2017-01-22 19:47:13 Terje_Saether__Malin_Pettersen-Cruise_From_Here-ME068-WEB-2017-PITY
2017-01-22 19:47:39 Jaimo-Autumn_Sun-RAISE376-WEB-2017-PITY
2017-01-22 19:48:13 Delphie-Root_Beer-WEB-2017-PITY
2017-01-22 19:48:30 Z.Nation.S03E14.1080p.BluRay.x264-PANDEMONiUM
2017-01-22 19:48:30 How.Its.Made.Dream.Cars.S01E03.Ferrari.FF.1080p.WEB.h264-EDHD
2017-01-22 19:48:41 Frequent.Flyer-ALiAS
2017-01-22 19:48:42 Luca_Debonaire_and_Leandro_Da_Silva_-_Pumped_Up_Phunk-(BL1633)-WEB-2017-MMS
2017-01-22 19:48:52 Manny_Cuevas-Meet_Me_At_The_Leather_Disco_EP-GUR057-WEB-2017-PITY
2017-01-22 19:49:19 Graeme_Vass-Certified_EP-WEB-2017-PITY
2017-01-22 19:50:58 Haandbold.VM.Herrer.2017.Danmark.vs.Ungarn.DANiSH.720p.HDTV.x264-SKANK
2017-01-22 19:52:37 How.Its.Made.Dream.Cars.S01E04.Audi.R8.1080p.WEB.h264-EDHD
2017-01-22 19:53:01 EPL.2017.01.22.Chelsea.vs.Hull.City.720p.HDTV.x264-VERUM
2017-01-22 19:56:24 How.Its.Made.Dream.Cars.S01E05.Rolls-Royce.Phantom.1080p.WEB.h264-EDHD
2017-01-22 19:56:49 Flog.It.S09E03.720p.HDTV.x264-NORiTE
2017-01-22 19:57:51 Z.Nation.S03E13.1080p.BluRay.x264-PANDEMONiUM
2017-01-22 19:58:02 Homes.Under.The.Hammer.S17E22.HDTV.x264-NORiTE
2017-01-22 19:59:38 Birthday.Wish.2017.HDTV.x264-W4F
2017-01-22 20:00:41 Anna.und.die.wilden.Tiere.S01E39.Stoerfall.an.der.Donau.GERMAN.WS.HDTV.x264-aWake
2017-01-22 20:01:31 Anna.und.die.wilden.Tiere.S01E39.Stoerfall.an.der.Donau.GERMAN.WS.720p.HDTV.x264-aWake
2017-01-22 20:01:56 Haandbold.VM.Herrer.2017.Danmark.vs.Ungarn.DANiSH.HDTV.x264-SKANK
2017-01-22 20:02:23 Der.Hundetrainer.Lucky.Dogs.mit.Brandon.McMillan.S01E21.Bailey.GERMAN.WS.HDTV.x264-aWake
2017-01-22 20:02:45 Alberto_Remondini_Feat._Dino_Brown-ControtenDance-SAT-20-01-2017-LFA
2017-01-22 20:03:15 Der.Hundetrainer.Lucky.Dogs.mit.Brandon.McMillan.S01E21.Bailey.GERMAN.WS.720p.HDTV.x264-aWake
2017-01-22 20:03:33 Alberto_Remondini_Feat._Dino_Brown-Dual_Core-SAT-20-01-2017-LFA
2017-01-22 20:04:07 Chiara_Robiony-Boulevard_Robiony-SAT-20-01-2017-LFA
2017-01-22 20:04:09 Der.Hundetrainer.Lucky.Dogs.mit.Brandon.McMillan.S01E21.Bailey.GERMAN.WS.1080p.HDTV.x264-aWake
2017-01-22 20:04:45 Container.Wars.S01E06.Glueck.auf.Raedern.German.DOKU.1080p.HDTV.x264-ATAX
2017-01-22 20:04:58 Dj_Osso-Happy_Edition_(Short_Version)-SAT-20-01-2017-LFA
2017-01-22 20:04:59 Der.Hundetrainer.Lucky.Dogs.mit.Brandon.McMillan.S01E22.Evan.GERMAN.WS.HDTV.x264-aWake
2017-01-22 20:05:18 Ma.Ma.Der.Ursprung.der.Liebe.2015.German.DL.1080p.BluRay.AVC-XQiSiT
2017-01-22 20:05:23 Dj_Ross-The_Bomb-SAT-20-01-2017-LFA
2017-01-22 20:05:45 Provenzano_DJ_With_Manuela_Doriani_and_Leandro_Da_Silva_Ft._Don_Cash-Music_Zone-SAT-20-01-2017-LFA
2017-01-22 20:05:51 Der.Hundetrainer.Lucky.Dogs.mit.Brandon.McMillan.S01E22.Evan.GERMAN.WS.720p.HDTV.x264-aWake
2017-01-22 20:06:07 Samsara_Crew-One_Of_Us-SAT-21-01-2017-LFA
2017-01-22 20:06:11 Relic.Hunter.S03E20.iTALiAN.HDTV.x264-iDiB
2017-01-22 20:06:33 Relic.Hunter.S03E21.iTALiAN.HDTV.x264-iDiB
2017-01-22 20:06:41 Der.Hundetrainer.Lucky.Dogs.mit.Brandon.McMillan.S01E22.Evan.GERMAN.WS.1080p.HDTV.x264-aWake
2017-01-22 20:07:20 Container.Wars.S01E06.Glueck.auf.Raedern.German.DOKU.720p.HDTV.x264-ATAX
2017-01-22 20:07:26 Pointless.Celebrities.S10E18.HDTV.x264-DOCERE
2017-01-22 20:07:33 Kommissarin.Heller.S01E07.Verdeckte.Spuren.GERMAN.WS.HDTV.x264-aWake
2017-01-22 20:08:18 How.Its.Made.Dream.Cars.S01E06.Maserati.Quattroporte.1080p.WEB.h264-EDHD
2017-01-22 20:08:25 Kommissarin.Heller.S01E07.Verdeckte.Spuren.GERMAN.WS.720p.HDTV.x264-aWake
2017-01-22 20:09:17 Lucha.Underground.S01E09.Krieg.der.Azteken.GERMAN.DL.WS.HDTV.x264-aWake
2017-01-22 20:09:22 Container.Wars.S01E06.Glueck.auf.Raedern.German.DOKU.HDTVRip.x264-ATAX
2017-01-22 20:10:10 Lucha.Underground.S01E09.Krieg.der.Azteken.GERMAN.DL.WS.720p.HDTV.x264-aWake
2017-01-22 20:11:02 Lucha.Underground.S01E09.Krieg.der.Azteken.GERMAN.DL.WS.1080p.HDTV.x264-aWake
2017-01-22 20:11:43 How.Its.Made.Dream.Cars.S01E07.Weismann.MF5.1080p.WEB.h264-EDHD
2017-01-22 20:11:54 Lucha.Underground.S01E10.Gesetz.des.Dschungels.GERMAN.DL.WS.HDTV.x264-aWake
2017-01-22 20:12:48 Lucha.Underground.S01E10.Gesetz.des.Dschungels.GERMAN.DL.WS.720p.HDTV.x264-aWake
2017-01-22 20:13:40 Lucha.Underground.S01E10.Gesetz.des.Dschungels.GERMAN.DL.WS.1080p.HDTV.x264-aWake
2017-01-22 20:14:08 Idas.Fristelser.S02E09.NORWEGiAN.720p.WEB.h264-BALUBA
2017-01-22 20:14:18 Bargain.Hunt.S42E29.720p.HDTV.x264-DOCERE
2017-01-22 20:14:34 Super.4.S02E03B.Von.Drachen.und.Diamanten.GERMAN.WS.HDTV.x264-aWake
2017-01-22 20:14:38 Idas.Fristelser.S02E10.NORWEGiAN.720p.WEB.h264-BALUBA
2017-01-22 20:14:59 Idas.Fristelser.S02E11.NORWEGiAN.720p.WEB.h264-BALUBA
2017-01-22 20:15:24 Super.4.S02E03B.Von.Drachen.und.Diamanten.GERMAN.WS.720p.HDTV.x264-aWake
2017-01-22 20:16:16 Tauben.und.Drachen.S01E13.Wenn.alles.nur.Einbildung.ist.habe.ich.echt.Durst.GERMAN.WS.HDTV.x264-aWake
2017-01-22 20:17:07 Tauben.und.Drachen.S01E13.Wenn.alles.nur.Einbildung.ist.habe.ich.echt.Durst.GERMAN.WS.720p.HDTV.x264-aWake
2017-01-22 20:17:23 Idas.Fristelser.S02E12.NORWEGiAN.720p.WEB.h264-BALUBA
2017-01-22 20:17:59 The.Muppets.2015.S01E15.Die.Sau.ist.raus.GERMAN.WS.HDTV.x264-aWake
2017-01-22 20:18:01 Idas.Fristelser.S02E13.NORWEGiAN.720p.WEB.h264-BALUBA
2017-01-22 20:18:51 The.Muppets.2015.S01E15.Die.Sau.ist.raus.GERMAN.WS.720p.HDTV.x264-aWake
2017-01-22 20:19:12 Idas.Fristelser.S02E14.NORWEGiAN.720p.WEB.h264-BALUBA
2017-01-22 20:19:27 Birthday.Wish.2017.720p.HDTV.x264-W4F
2017-01-22 20:19:43 The.Muppets.2015.S01E15.Die.Sau.ist.raus.GERMAN.WS.1080p.HDTV.x264-aWake
2017-01-22 20:19:50 Idas.Fristelser.S02E15.NORWEGiAN.720p.WEB.h264-BALUBA
2017-01-22 20:20:23 Idas.Fristelser.S02E16.NORWEGiAN.720p.WEB.h264-BALUBA
2017-01-22 20:20:34 The.Muppets.2015.S01E16.Alles.nur.aus.Liebe.GERMAN.WS.HDTV.x264-aWake
2017-01-22 20:21:26 The.Muppets.2015.S01E16.Alles.nur.aus.Liebe.GERMAN.WS.720p.HDTV.x264-aWake
2017-01-22 20:22:16 The.Muppets.2015.S01E16.Alles.nur.aus.Liebe.GERMAN.WS.1080p.HDTV.x264-aWake
2017-01-22 20:22:27 Birthday.Wish.2017.1080p.HDTV.x264-W4F
2017-01-22 20:22:57 Escape.to.the.Country.S15E08.HDTV.x264-DOCERE
2017-01-22 20:23:07 Revenge.Body.With.Khloe.Kardashian.S01E01.1080p.WEB.x264-TURBO
2017-01-22 20:23:20 Andrea_Bocelli-Viaggio_Italiano-1995-DuDE
2017-01-22 20:25:40 Escape.to.the.Country.S15E08.720p.HDTV.x264-DOCERE
2017-01-22 20:32:20 Dead-Voices-CD-2016-D2H_INT
2017-01-22 20:32:27 Pointless.Celebrities.S10E18.720p.HDTV.x264-DOCERE
2017-01-22 20:33:29 Trump-Path.to.the.White.House.2017.720p.HDTV.x264-W4F
2017-01-22 20:34:46 DJ_Larry_Law--Black_Beats-DVBS-01-12-2017-OMA
2017-01-22 20:35:49 Idas.Fristelser.S02E17.NORWEGiAN.720p.WEB.h264-BALUBA
2017-01-22 20:36:11 Idas.Fristelser.S02E18.NORWEGiAN.720p.WEB.h264-BALUBA
2017-01-22 20:36:36 Idas.Fristelser.S02E19.NORWEGiAN.720p.WEB.h264-BALUBA
2017-01-22 20:36:56 Idas.Fristelser.S02E20.NORWEGiAN.720p.WEB.h264-BALUBA
2017-01-22 20:37:18 Six_Ft._Ditch-Faces_Of_Death-(CDM)-2003-BGV
2017-01-22 20:38:19 Skull_Duggery-These_Wicked_Streets-1998-SUT_INT
2017-01-22 20:38:34 DJ_Rob_Bankz--Black_Beats-DVBS-01-12-2017-OMA
2017-01-22 20:39:30 Skull_Dugrey-Hoodlum_Fo_Life-1996-SUT_INT
2017-01-22 20:40:38 Hvem.Trur.Du.At.Du.Er.S04E04.NORWEGiAN.720p.WEB.x264-CURRYKETCHUP
2017-01-22 20:40:47 DJ_Lil_Jay--Black_Beats-DVBS-01-19-2017-OMA
2017-01-22 20:41:32 Samsara_Crew-One_Of_Us-SAT-03-12-2016-LFA
2017-01-22 20:41:34 The.Walking.Dead.S03E10.SPANiSH.1080p.BLURAY.X264-LPH
2017-01-22 20:42:00 Samsara_Crew-One_Of_Us-SAT-07-01-2017-LFA
2017-01-22 20:42:14 Friedhof.der.Kuscheltiere.1989.DUAL.COMPLETE.BLURAY-DARM
2017-01-22 20:42:22 Samsara_Crew-One_Of_Us-SAT-10-12-2016-LFA
2017-01-22 20:42:58 Samsara_Crew-One_Of_Us-SAT-12-11-2016-LFA
2017-01-22 20:43:15 Samsara_Crew-One_Of_Us-SAT-14-01-2017-LFA
2017-01-22 20:43:39 Samsara_Crew-One_Of_Us-SAT-17-12-2016-LFA
2017-01-22 20:43:54 Samsara_Crew-One_Of_Us-SAT-19-11-2016-LFA
2017-01-22 20:44:25 Samsara_Crew-One_Of_Us-SAT-24-12-2016-LFA
2017-01-22 20:44:40 Samsara_Crew-One_Of_Us-SAT-26-11-2016-LFA
2017-01-22 20:46:14 Beyond_Enclosure-Dungeon_Of_Total_Void-CD-2016-D2H
2017-01-22 20:46:47 DJ_Maaleek--Black_Beats-DVBS-01-19-2017-OMA
2017-01-22 20:46:55 Descubriendo.A.Nina.S06E08.SPANiSH.1080p.HDTV.x264-FCC
2017-01-22 20:47:24 Descubriendo.A.Nina.S06E08.SPANiSH.720p.HDTV.x264-FCC
2017-01-22 20:47:54 Descubriendo.A.Nina.S06E08.SPANiSH.HDTV.x264-FCC
2017-01-22 20:48:43 Les_Chasseurs_De_La_Nuit-Nebel_Leben-CD-2016-D2H
2017-01-22 20:49:14 Trump-Path.to.the.White.House.2017.HDTV.x264-W4F
2017-01-22 20:49:45 The.Walking.Dead.S03E11.SPANiSH.1080p.BLURAY.X264-LPH
2017-01-22 20:50:20 Kave-Ominousium-Limited_Edition-CD-2015-D2H
2017-01-22 20:53:27 Outland.2.Looking.For.Freedom.XXX.1080P.WEBRIP.MP4-GUSH
2017-01-22 20:53:58 The.Walking.Dead.S03E11.SPANiSH.720p.BLURAY.X264-LPH
2017-01-22 20:55:50 The.Walking.Dead.S03E11.SPANiSH.BDRIP.X264-LPH
2017-01-22 20:57:35 How.Its.Made.Dream.Cars.S01E08.Lamborghini.Aventador.1080p.WEB.h264-EDHD
2017-01-22 20:58:41 Arvingerne.S03E04.DANiSH.720p.HDTV.x264-DiViSiON
2017-01-22 20:59:05 Sa.Ska.Det.Lata.S22E03.SWEDiSH.720p.HDTV.x264-CCCAM
2017-01-22 20:59:24 How.Its.Made.Dream.Cars.S01E09.Jaguar.F-Type.1080p.WEB.h264-EDHD
2017-01-22 20:59:46 Mozart.In.The.Jungle.S03E05.SPANiSH.1080p.HDTV.x264-FERiCE
2017-01-22 21:00:54 Mozart.In.The.Jungle.S03E05.SPANiSH.720p.HDTV.x264-FERiCE
2017-01-22 21:01:21 Mozart.In.The.Jungle.S03E05.SPANiSH.HDTV.x264-FERiCE
2017-01-22 21:01:40 How.Its.Made.Dream.Cars.S01E10.Bentley.Continental.GT.Speed.1080p.WEB.h264-EDHD
2017-01-22 21:01:54 The.Walking.Dead.S03E12.SPANiSH.1080p.BLURAY.X264-LPH
2017-01-22 21:01:57 Chuckie_-_Dirty_Dutch_Radio_192-SAT-01-21-2017-TALiON
2017-01-22 21:02:25 Pinot.Simple.Flic.1984.iNTERNAL.FRENCH.DVDRip.x264-PHoQUE
2017-01-22 21:03:11 Steffen_Baumann_-_Sixty_Sessions-SAT-01-22-2017-TALiON
2017-01-22 21:04:43 The.Librarians.US.S03E09.SPANiSH.1080p.HDTV.x264-FERiCE
2017-01-22 21:04:50 Coyu_-_Suara_PodCats_154__Live_at_BPM_Festival_2016_(Playa_del_Carmen)-SAT-01-22-2017-TALiON
2017-01-22 21:05:52 The.Librarians.US.S03E09.SPANiSH.720p.HDTV.x264-FERiCE
2017-01-22 21:06:09 The.Walking.Dead.S03E12.SPANiSH.720p.BLURAY.X264-LPH
2017-01-22 21:06:35 The.Librarians.US.S03E09.SPANiSH.HDTV.x264-FERiCE
2017-01-22 21:06:38 Snoop_Dogg-No_Limit_Top_Dogg-1999-SUT_INT
2017-01-22 21:06:45 Eric_Sneo_-_Tronic_234-SAT-01-21-2017-TALiON
2017-01-22 21:08:27 The.Walking.Dead.S03E12.SPANiSH.BDRIP.X264-LPH
2017-01-22 21:08:58 Arvingerne.S03E04.DANiSH.HDTV.x264-RCDiVX
2017-01-22 21:09:02 Matt_Thiel_-_Spinnin_Sessions_193__Incl_Fox_Stevenson_Guestmix-SAT-01-21-2017-TALiON
2017-01-22 21:09:04 Still.Open.All.Hours.S03E05.720p.HDTV.x264-MORiTZ
2017-01-22 21:10:10 NOS.Studio.Sport.Eredivisie.2016-2017.Samenvattingen.Speelronde.19.Zondag.DUTCH.720p.HDTV.x264-NSN
2017-01-22 21:11:01 M.I.K.E._Push_-_Club_Elite_Sessions_497-SAT-01-21-2017-TALiON
2017-01-22 21:11:42 German_TOP100_Single_Charts_(Jahrescharts_2016)-2016-MCG
2017-01-22 21:11:51 German_TOP20_BC_16_01_2017-MCG
2017-01-22 21:12:27 German_TOP50_ODC_09_01_2017-MCG
2017-01-22 21:12:31 German_TOP50_ODC_16_01_2017-MCG
2017-01-22 21:12:38 Monster.Black.Shaft.Workout.XXX.2016.HDTV.720p.x264-SHDXXX
2017-01-22 21:12:41 US_TOP20_Single_Charts_28_01_2017-MCG
2017-01-22 21:12:44 US_TOP20_Single_Charts_21_01_2017-MCG
2017-01-22 21:12:46 M.A.N.D.Y._-_Get_Physical_Radio_275__Incl_Roland_Clark_Guestmix-SAT-01-22-2017-TALiON
2017-01-22 21:12:54 Vice.Principals.S01E07.FRENCH.720p.HDTV.x264-SH0W
2017-01-22 21:13:00 Monster.Black.Shaft.Workout.XXX.2016.HDTV.1080p.x264-SHDXXX
2017-01-22 21:13:16 My.Stepsister.Has.Big.Puffy.Nipples.XXX.2016.HDTV.720p.x264-SHDXXX
2017-01-22 21:13:26 My.Stepsister.Has.Big.Puffy.Nipples.XXX.2016.HDTV.1080p.x264-SHDXXX
2017-01-22 21:14:37 Scuba_-_SCB_Radio_029-SAT-01-22-2017-TALiON
2017-01-22 21:15:43 German_TOP20_BC_23_01_2017-MCG
2017-01-22 21:15:53 The.Walking.Dead.S03E13.SPANiSH.1080p.BLURAY.X264-LPH
2017-01-22 21:16:53 David_Penn_-_Urbana_310-SAT-01-21-2017-TALiON
2017-01-22 21:17:47 Cumhur_Jay-Exaggerated_EP-(HICO006)-WEB-2015-ENSLAVE
2017-01-22 21:18:03 Cumhur_Jay-Result-(HICO001)-WEB-2014-ENSLAVE
2017-01-22 21:18:19 Cumhur_Jay-Rising_EP-(HICO002)-WEB-2014-ENSLAVE
2017-01-22 21:18:35 Marco_Latrach-House_Led-(EG025)-WEB-2016-ENSLAVE
2017-01-22 21:18:49 Marco_Latrach-Las_Flores_Pensantes-(CPL003)-WEB-2014-ENSLAVE
2017-01-22 21:19:06 Sound_Nomaden-Madame-(NB03)-WEB-2014-ENSLAVE
2017-01-22 21:19:23 Sound_Nomaden-Madame_Remixes-(NB04)-WEB-2015-ENSLAVE
2017-01-22 21:19:38 Sound_Nomaden-Snowflake-(NB01)-WEB-2014-ENSLAVE
2017-01-22 21:19:48 The.Walking.Dead.S03E13.SPANiSH.720p.BLURAY.X264-LPH
2017-01-22 21:19:54 Sound_Nomaden-Swing_It-(NB05)-WEB-2015-ENSLAVE
2017-01-22 21:20:07 Sound_Nomaden-Swinguin-(NB07)-WEB-2015-ENSLAVE
2017-01-22 21:20:25 Sound_Nomaden-Warm_Lights-(NB02)-WEB-2014-ENSLAVE
2017-01-22 21:20:40 Stereomonotonie-Rivers-WEB-2015-ENSLAVE
2017-01-22 21:20:55 VA-Al_Palo_2-WEB-2016-ENSLAVE
2017-01-22 21:20:59 3.Op.Reis.S10E18.DUTCH.720p.HDTV.x264-DiFFERENT
2017-01-22 21:22:10 The.Walking.Dead.S03E13.SPANiSH.BDRIP.X264-LPH
2017-01-22 21:22:21 Deadliest.Catch.S12E01.Ticking.Bomb.1080p.WEB.h264-EDHD
2017-01-22 21:26:25 Deadliest.Catch.S12E02.First.Timers.1080p.WEB.h264-EDHD
2017-01-22 21:30:34 Mirage-Jack_Mix_88_The_Best_Of_Mirage_88_Non_Stop_Hits-(SMR_746)-VINYL-FLAC-1987-RUiL
2017-01-22 21:30:59 Was.nicht.passt.wird.passend.gemacht.S01E01.German.FS.DVDRip.x264.iNTERNAL.RERiP-TVARCHiV
2017-01-22 21:32:33 Lie.To.Me.S01D01.MULTi.PAL.DVD9-BFHDVD
2017-01-22 21:33:02 Was.nicht.passt.wird.passend.gemacht.S01E02.German.FS.DVDRip.x264.iNTERNAL.RERiP-TVARCHiV
2017-01-22 21:35:04 Was.nicht.passt.wird.passend.gemacht.S01E03.German.FS.DVDRip.x264.iNTERNAL.RERiP-TVARCHiV
2017-01-22 21:37:05 Was.nicht.passt.wird.passend.gemacht.S01E04.German.FS.DVDRip.x264.iNTERNAL.RERiP-TVARCHiV
2017-01-22 21:39:07 Was.nicht.passt.wird.passend.gemacht.S01E05.German.FS.DVDRip.x264.iNTERNAL.RERiP-TVARCHiV
2017-01-22 21:41:02 Vice.Principals.S01E07.FRENCH.HDTV.x264-AMB3R
2017-01-22 21:41:09 Was.nicht.passt.wird.passend.gemacht.S01E06.German.FS.DVDRip.x264.iNTERNAL.RERiP-TVARCHiV
2017-01-22 21:42:48 Air-Twentyears-2CD-FLAC-2016-Mrflac
2017-01-22 21:43:12 Was.nicht.passt.wird.passend.gemacht.S01E07.German.FS.DVDRip.x264.iNTERNAL.RERiP-TVARCHiV
2017-01-22 21:43:23 Heat-Overnight-CD-FLAC-2017-Mrflac
2017-01-22 21:44:42 Vice.Principals.S01E08.FRENCH.720p.HDTV.x264-SH0W
2017-01-22 21:45:13 Was.nicht.passt.wird.passend.gemacht.S01E08.German.FS.DVDRip.x264.iNTERNAL.RERiP-TVARCHiV
2017-01-22 21:45:28 Peter_Henry_Phillips-The_Origin-CD-FLAC-2015-Mrflac
2017-01-22 21:46:05 Powell-Sport-CD-FLAC-2016-Mrflac
2017-01-22 21:47:17 Was.nicht.passt.wird.passend.gemacht.S01E09.German.FS.DVDRip.x264.iNTERNAL.RERiP-TVARCHiV
2017-01-22 21:47:38 FACERIG.PRO.V1.957-MAGNiTUDE
2017-01-22 21:49:18 Was.nicht.passt.wird.passend.gemacht.S01E10.German.FS.DVDRip.x264.iNTERNAL.RERiP-TVARCHiV
2017-01-22 21:50:41 Gods.Pocket.2014.PL.BDRip.x264-FLAME
2017-01-22 21:50:47 Vec.Po.Oglasih.S01E09.SI.HDTV.x264-RADiOACTiVE
2017-01-22 21:50:48 Vec.Po.Oglasih.S01E09.SI.720p.HDTV.x264-RADiOACTiVE
2017-01-22 21:50:53 Vec.Po.Oglasih.S01E09.SI.1080p.HDTV.H264-RADiOACTiVE
2017-01-22 21:52:08 Moordvrouw.S06E03.DUTCH.720p.HDTV.x264-DiFFERENT
2017-01-22 21:52:34 Gods.Pocket.2014.PL.DUAL.1080p.BluRay.x264-FLAME
2017-01-22 21:52:36 Frontier.S01E02.Kriegerische.Brueder.GERMAN.1080p.WebHD.x264-TVP
2017-01-22 21:53:31 Frontier.S01E02.Kriegerische.Brueder.GERMAN.720p.WebHD.x264-TVP
2017-01-22 21:54:24 Frontier.S01E02.Kriegerische.Brueder.GERMAN.WEBRip.x264-TVP
2017-01-22 21:55:07 R.L.Stines.Monsterville.The.Cabinet.of.Souls.2015.PL.BDRip.x264-FLAME
2017-01-22 21:55:15 Frontier.S01E03.Mushkegowuk.Esquewu.GERMAN.1080p.WebHD.x264-TVP
2017-01-22 21:56:08 Frontier.S01E03.Mushkegowuk.Esquewu.GERMAN.720p.WebHD.x264-TVP
2017-01-22 21:56:38 R.L.Stines.Monsterville.The.Cabinet.of.Souls.2015.PL.DUAL.720p.BluRay.x264-FLAME
2017-01-22 21:57:00 Frontier.S01E03.Mushkegowuk.Esquewu.GERMAN.WEBRip.x264-TVP
2017-01-22 21:57:51 Frontier.S01E04.Woelfe.GERMAN.1080p.WebHD.x264-TVP
2017-01-22 21:58:19 R.L.Stines.Monsterville.The.Cabinet.of.Souls.2015.PL.DUAL.1080p.BluRay.x264-FLAME
2017-01-22 21:58:43 Frontier.S01E04.Woelfe.GERMAN.720p.WebHD.x264-TVP
2017-01-22 21:59:03 Innan.Vi.Dor.S01E02.SWEDiSH.720p.HDTV.x264-CCCAM
2017-01-22 21:59:04 Innan.Vi.Dor.S01E02.SWEDiSH.720p.HDTV.x264-xD2V
2017-01-22 21:59:36 Frontier.S01E04.Woelfe.GERMAN.WEBRip.x264-TVP
2017-01-22 22:00:28 Frontier.S01E05.Der.Schueler.GERMAN.1080p.WebHD.x264-TVP
2017-01-22 22:01:21 Frontier.S01E05.Der.Schueler.GERMAN.720p.WebHD.x264-TVP
2017-01-22 22:01:33 Call.the.Midwife.S06E01.1080p.HDTV.x264-MORiTZ
2017-01-22 22:01:42 Papa_DJ-Buddha_Bar_DJ_Set-DAB-01-21-2017-G4E
2017-01-22 22:02:12 Frontier.S01E05.Der.Schueler.GERMAN.WEBRip.x264-TVP
2017-01-22 22:02:53 3.Op.Reis.S10E18.DUTCH.1080p.HDTV.x264-DiFFERENT
2017-01-22 22:03:06 Frontier.S01E06.Am.Galgen.GERMAN.1080p.WebHD.x264-TVP
2017-01-22 22:03:56 Frontier.S01E06.Am.Galgen.GERMAN.720p.WebHD.x264-TVP
2017-01-22 22:04:28 Origin_-_Moment_Of_Sunrise-(AEP074)-WEB-2012-MMS
2017-01-22 22:04:49 Frontier.S01E06.Am.Galgen.GERMAN.WEBRip.x264-TVP
2017-01-22 22:06:42 David_Rodigan_-_BBC1Xtra-SAT-01-22-2017-TALiON
2017-01-22 22:07:50 Sound_Quelle_-_Endorphin__Alangkah-(AEP090)-WEB-2013-MMS
2017-01-22 22:10:30 Rene_Dale_-_The_Beauty_and_The_Beast-(AEP092)-WEB-2013-MMS
2017-01-22 22:11:02 One.Direction.This.Is.Us.3D.2013.EXTENDED.DOCU.720p.MBluRay.x264-SNTN
2017-01-22 22:11:25 David_Douglas--Higher-(ATM016)-WEB-2014-OMA
2017-01-22 22:12:38 Deadliest.Catch.S12E03.No.Good.Deed.1080p.WEB.h264-EDHD
2017-01-22 22:13:05 Lie.To.Me.S01D02.MULTi.PAL.DVD9-BFHDVD
2017-01-22 22:14:13 John_Talabot--Without_You-(K7312EP1D)-WEB-2015-OMA
2017-01-22 22:14:20 Lie.To.Me.S01D03.MULTi.PAL.DVD9-BFHDVD
2017-01-22 22:15:03 Smeris.S03E01.DUTCH.720p.HDTV.x264-DiFFERENT
2017-01-22 22:15:39 Maas_-_Up__Zipline-(AEP097)-WEB-2013-MMS
2017-01-22 22:15:49 Vice.Principals.S01E09.FiNAL.FRENCH.720p.HDTV.x264-SH0W
2017-01-22 22:16:01 Frankey_and_Sandrino--Ways_Of_The_Sun__Fornax-(DPC0603)-WEB-2016-OMA
2017-01-22 22:17:21 Valkyrien.S01E05.NORWEGiAN.720p.HDTV.x264-CRNTV
2017-01-22 22:17:54 Chicago.Med.S01E13.FRENCH.HDTV.x264-AMB3R
2017-01-22 22:20:16 Freddie.Down.Under.S01E02.HDTV.x264-FaiLED
2017-01-22 22:21:18 Gotham.S02E20.German.DVDRip.x264.REPACK-RWP
2017-01-22 22:21:20 Gotham.S02E21.German.DVDRip.x264-RWP
2017-01-22 22:21:23 Gotham.S02E22.German.DVDRip.x264-RWP
2017-01-22 22:21:26 Vice.Principals.S01E08.FRENCH.HDTV.x264-AMB3R
2017-01-22 22:21:53 A.M.R_ft._Ai_Takekawa_-_Whispers-(AEP100)-WEB-2013-MMS
2017-01-22 22:22:07 Afrika_Bambaataa_And_James_Brown-Unity-WEB-1984-ENRAGED_iNT
2017-01-22 22:22:19 Afrika_Bambaataa_and_Family-The_Decade_of_Darkness_1990-2000-WEB-1991-ENRAGED_iNT
2017-01-22 22:22:36 Alma_Ave-Welcome_to_the_Ave-WEB-2016-ENRAGED
2017-01-22 22:22:50 Atl_Mel-Shake_a_Lil_Sumthin_(feat_Wiz_Badass)-SINGLE-WEB-2016-ENRAGED
2017-01-22 22:23:07 Bell_Biv_DeVoe-Poison_(Expanded)-WEB-1990-ENRAGED
2017-01-22 22:23:22 Birddie_Goonatic-Young_And_Restless-SINGLE-WEB-2016-ENRAGED
2017-01-22 22:23:39 Blanche_Eden-Beautiful_Again-EP-WEB-2015-ENRAGED
2017-01-22 22:23:54 Blanche_Eden-Hustle_Bae-WEB-2016-ENRAGED
2017-01-22 22:24:09 Blanche_Eden-New_Decade-SINGLE-WEB-2017-ENRAGED
2017-01-22 22:24:26 Blanche_Eden-SEXTAPE-EP-WEB-2016-ENRAGED
2017-01-22 22:24:36 Maywave_and_CJ_Seven_-_Euphoria-(AEP102)-WEB-2013-MMS
2017-01-22 22:24:41 Bow_Wow-We_In_Da_Club-SINGLE-WEB-2012-ENRAGED
2017-01-22 22:24:56 Buckshotz-Strap-WEB-2016-ENRAGED
2017-01-22 22:25:13 CRUNK23-Dirty_Bling-WEB-2008-ENRAGED
2017-01-22 22:25:30 CRUNK23-Year_Of_The_Monkey-WEB-2016-ENRAGED
2017-01-22 22:25:44 Cardi_B-GBMV2-WEB-2017-ENRAGED
2017-01-22 22:26:02 Chris_McClenney-Portrait_in_Two-WEB-2017-ENRAGED
2017-01-22 22:26:17 Cristel_Meth-Gucci_(feat_Billionaire_Beezy)-SINGLE-WEB-2016-ENRAGED
2017-01-22 22:26:33 Curt_Digg-All_They_Do_(feat_Emerson_Windy_And_Marka)-SINGLE-WEB-2016-ENRAGED
2017-01-22 22:26:54 Curt_Digg-Bright_Future_(feat_Ahmad)-SINGLE-WEB-2014-ENRAGED
2017-01-22 22:27:03 Curt_Digg-Natalie_(feat_G_Units_Kiddkidd)-SINGLE-WEB-2013-ENRAGED
2017-01-22 22:27:18 Curt_Digg-Only_You_(feat_Ray_Lavendar)-SINGLE-WEB-2013-ENRAGED
2017-01-22 22:27:35 Curt_Digg-Throw_That_Ass_on_Me_(feat_Snoop_Dogg_And_Excel_Beats)-SINGLE-WEB-2016-ENRAGED
2017-01-22 22:27:51 Curt_Digg-Up_Early_(feat_Jean)-SINGLE-WEB-2015-ENRAGED
2017-01-22 22:28:01 Dim_and_Rus_-_Gomel__Dnepr-(AEP104)-WEB-2013-MMS
2017-01-22 22:28:07 Curt_Digg-Wait_(feat_Ahmad)-SINGLE-WEB-2016-ENRAGED
2017-01-22 22:28:18 Gintama.Fourth.Season.E03.SUBFRENCH.1080p.WEBRip.X264-SLEEPINGFOREST
2017-01-22 22:28:25 DJ_BuckShot-DJ_BuckShots_Greatest_Hits_Vol_1-WEB-2013-ENRAGED
2017-01-22 22:28:35 Gintama.Fourth.Season.E03.SUBFRENCH.720p.WEBRip.X264-SLEEPINGFOREST
2017-01-22 22:28:38 DJ_Villain-Villaination_North_2_South_Connection-WEB-2014-ENRAGED
2017-01-22 22:28:55 DJ_Villain-Villaination_Vol_3-Total_Destruction-WEB-2015-ENRAGED
2017-01-22 22:29:10 DJ_Villain-Villaination_Vol_4-The_Chronicles_of_DJ_Villain-WEB-2015-ENRAGED
2017-01-22 22:29:27 Dante_Ryan-Modern_Cleopatra_(feat_Sage_the_Gemini)-SINGLE-WEB-2016-ENRAGED
2017-01-22 22:29:43 Dante_Ryan-Pour_It_Up_(feat_Show_Banga)-SINGLE-WEB-2017-ENRAGED
2017-01-22 22:29:59 Demetria_McKinney-100_(feat_da_Brat)-SINGLE-WEB-2014-ENRAGED
2017-01-22 22:30:13 Demetria_McKinney-Easy-SINGLE-WEB-2017-ENRAGED
2017-01-22 22:30:29 Demetria_McKinney-Trade_It_All-SINGLE-WEB-2015-ENRAGED
2017-01-22 22:30:45 Demetria_Mckinney-Unnecessary_Trouble_(feat_Kandi)-SINGLE-WEB-2015-ENRAGED
2017-01-22 22:31:01 Demetria_Mckinney-Work_With_Me-SINGLE-WEB-2013-ENRAGED
2017-01-22 22:31:17 Dj_Leflare-Leflare_Vol_1-EP-WEB-2017-ENRAGED
2017-01-22 22:31:32 DoapMane-Like_a_Movie-SINGLE-WEB-2016-ENRAGED
2017-01-22 22:31:36 Was.nicht.passt.wird.passend.gemacht.S01E01.German.FS.DVDRip.x264.iNTERNAL.RERiP.NFOFiX-TVARCHiV
2017-01-22 22:31:48 Dylan_Jenet-Bad_One-SINGLE-WEB-2015-ENRAGED
2017-01-22 22:32:05 Dylan_Jenet-Straight_Up-SINGLE-WEB-2016-ENRAGED
2017-01-22 22:32:19 Eric_Bellinger-Eric_B_For_President_Term_1_(Acoustic)-EP-WEB-2017-ENRAGED
2017-01-22 22:32:36 F.A.-All_Closed_Eyes_Aint_Sleep-WEB-2017-ENRAGED
2017-01-22 22:32:51 Ian_McKee-Boomin_(feat_Rexx_Life_Raj)_Remix-SINGLE-WEB-2017-ENRAGED
2017-01-22 22:33:08 Joey_BadaSS-Land_of_the_Free-SINGLE-WEB-2017-ENRAGED
2017-01-22 22:33:25 Tangle_-_All_I_See__Solarity-(AEP105)-WEB-2013-MMS
2017-01-22 22:33:25 Jowell_And_Randy-El_Momento-SP-WEB-2010-ENRAGED_iNT
2017-01-22 22:33:39 KAvett-KAvett_Revelations-WEB-2014-ENRAGED
2017-01-22 22:33:57 Kyo_Itachi-The_Shinigami_Producer-WEB-2017-ENRAGED
2017-01-22 22:34:12 L-Boy-Business_Is_War-WEB-2011-ENRAGED
2017-01-22 22:34:30 L-Boy-Gangster_Government-WEB-2012-ENRAGED
2017-01-22 22:34:44 LES-Free_Game-WEB-2017-ENRAGED
2017-01-22 22:34:59 Mckinley_Ave-Did_Dirt_to_Lay_Pavement-WEB-2017-ENRAGED
2017-01-22 22:35:17 Migos-What_The_Price-SINGLE-WEB-2017-ENRAGED
2017-01-22 22:35:31 Minister_Meek_And_Patrick_Milla-Any_Hood-SINGLE-WEB-2016-ENRAGED
2017-01-22 22:35:48 Minister_Meek_And_Patrick_Milla-Down_to_Sleep-SINGLE-WEB-2016-ENRAGED
2017-01-22 22:36:01 Minister_Meek_And_Patrick_Milla-Fly_High_(feat_K_Avett)-SINGLE-WEB-2015-ENRAGED
2017-01-22 22:36:18 Money_Boy_Vicious-S.A.N_2-WEB-2016-ENRAGED
2017-01-22 22:36:34 Mr_I-35-Interstate_Muzik-WEB-2012-ENRAGED
2017-01-22 22:36:49 Mr_Sche-A_Work_of_Art-WEB-2015-ENRAGED
2017-01-22 22:38:03 Dave_Horne_meets_Econu_-_Padua-(AEP107)-WEB-2013-MMS
2017-01-22 22:38:18 Raze-Break_4_Love-(CHAMP_12-67)-VINYL-FLAC-1988-RUiL
2017-01-22 22:39:06 Planet.Earth.II.S01E04.DUTCH.720p.HDTV.x264-iFH
2017-01-22 22:42:51 Was.nicht.passt.wird.passend.gemacht.S01E02.German.FS.DVDRip.x264.iNTERNAL.RERiP.NFOFiX-TVARCHiV
2017-01-22 22:43:21 Was.nicht.passt.wird.passend.gemacht.S01E03.German.FS.DVDRip.x264.iNTERNAL.RERiP.NFOFiX-TVARCHiV
2017-01-22 22:43:51 Was.nicht.passt.wird.passend.gemacht.S01E04.German.FS.DVDRip.x264.iNTERNAL.RERiP.NFOFiX-TVARCHiV
2017-01-22 22:44:08 Mr_Sche-Choose_Your_Hustle-WEB-2012-ENRAGED
2017-01-22 22:44:17 Moordvrouw.S06E03.DUTCH.1080p.HDTV.x264-DiFFERENT
2017-01-22 22:44:21 AWD_-_Oracle-(AEP108)-WEB-2013-MMS
2017-01-22 22:44:24 Was.nicht.passt.wird.passend.gemacht.S01E05.German.FS.DVDRip.x264.iNTERNAL.RERiP.NFOFiX-TVARCHiV
2017-01-22 22:44:25 Mr_Sche_Killa_Tribe-The_Hunt_Is_On-WEB-2009-ENRAGED
2017-01-22 22:44:43 Mr_Sche_Matthew_Curtis-M-Town_Immortal-WEB-2014-ENRAGED_iNT
2017-01-22 22:44:52 Was.nicht.passt.wird.passend.gemacht.S01E06.German.FS.DVDRip.x264.iNTERNAL.RERiP.NFOFiX-TVARCHiV
2017-01-22 22:44:58 Mr_Sche_Pimpminista-Keep_It_Gangsta-WEB-2009-ENRAGED
2017-01-22 22:45:12 Mr_Skrillz-Wigglenomics-WEB-2008-ENRAGED
2017-01-22 22:45:22 Was.nicht.passt.wird.passend.gemacht.S01E07.German.FS.DVDRip.x264.iNTERNAL.RERiP.NFOFiX-TVARCHiV
2017-01-22 22:45:28 Myles_Hi-Dont_Hit_My_Line-SINGLE-WEB-2017-ENRAGED
2017-01-22 22:45:44 Myles_Hi-Vices-WEB-2015-ENRAGED
2017-01-22 22:45:53 Was.nicht.passt.wird.passend.gemacht.S01E08.German.FS.DVDRip.x264.iNTERNAL.RERiP.NFOFiX-TVARCHiV
2017-01-22 22:46:01 N2Deep-Back_to_the_Hotel-Vallejo_Sessions-EP-WEB-2017-ENRAGED
2017-01-22 22:46:16 New_Edition-Home_Again_(Expanded)-WEB-1996-ENRAGED
2017-01-22 22:46:23 Was.nicht.passt.wird.passend.gemacht.S01E09.German.FS.DVDRip.x264.iNTERNAL.RERiP.NFOFiX-TVARCHiV
2017-01-22 22:46:32 Nicky_Jam-Fenix-SP-WEB-2017-ENRAGED
2017-01-22 22:46:47 No_Saints_And_Stein-Emperors-SINGLE-WEB-2016-ENRAGED
2017-01-22 22:46:53 Was.nicht.passt.wird.passend.gemacht.S01E10.German.FS.DVDRip.x264.iNTERNAL.RERiP.NFOFiX-TVARCHiV
2017-01-22 22:47:03 Orange_Mound_Slimm-Poetic_Pimp-WEB-2013-ENRAGED
2017-01-22 22:47:07 Freddie.Down.Under.S01E02.720p.HDTV.x264-FaiLED
2017-01-22 22:47:20 PIMP-Street_Hustla-WEB-2011-ENRAGED
2017-01-22 22:47:34 Prodigy_of_Mobb_Deep-R.I.P._1-WEB-2017-ENRAGED
2017-01-22 22:47:49 Prodigy_of_Mobb_Deep-R.I.P._2-WEB-2017-ENRAGED
2017-01-22 22:48:07 Reek_Daddy-Dipped_in_Butter-WEB-2013-ENRAGED
2017-01-22 22:48:10 Maas_-_Denver__Aurulent-(AEP110)-WEB-2013-MMS
2017-01-22 22:48:23 Reek_Daddy-Pocket_Full_of_Felonies-WEB-2015-ENRAGED
2017-01-22 22:48:38 Reek_Daddy-Serious_as_Cancer-WEB-2014-ENRAGED
2017-01-22 22:48:55 Roach_Gigz-Btch_Im_a_Player-WEB-2011-ENRAGED
2017-01-22 22:49:10 Roach_Gigz-Buckets_And_Booty_Calls-WEB-2011-ENRAGED
2017-01-22 22:49:25 Roach_Gigz-Bugged_Out-WEB-2012-ENRAGED
2017-01-22 22:49:41 Roach_Gigz-Hot_Air_Balloons_And_Cinnamon_Sticks-WEB-2012-ENRAGED
2017-01-22 22:49:58 Roach_Gigz-Roachy_Balboa-Round_3-WEB-2013-ENRAGED
2017-01-22 22:50:13 Roach_Gigz-Roachy_Balboa-WEB-2010-ENRAGED
2017-01-22 22:50:29 Roach_Gigz-Roachy_Balboa_2-WEB-2011-ENRAGED
2017-01-22 22:50:47 Roach_Gigz-Roachy_Balboa_4-WEB-2015-ENRAGED
2017-01-22 22:51:00 SMOKE-SMOKE_the_EP-WEB-2002-ENRAGED
2017-01-22 22:51:09 Deadliest.Catch.S12E04.Swedish.Twins.1080p.WEB.h264-EDHD
2017-01-22 22:51:18 Sauce_Walka-Sorry_4_the_Sauce_3-EP-WEB-2017-ENRAGED
2017-01-22 22:51:33 Sco-Against_the_Grain-WEB-2012-ENRAGED
2017-01-22 22:51:48 Sco-December_4th-WEB-2016-ENRAGED
2017-01-22 22:52:04 Sco-Grown_Man-WEB-2008-ENRAGED
2017-01-22 22:52:20 Scotty_ATL-Smokin_on_My_Own_Strain_Vol_1-WEB-2017-ENRAGED
2017-01-22 22:52:38 SirCLOUD-Year_of_the_Cloud-WEB-2017-ENRAGED
2017-01-22 22:52:52 Skinny-C-Never_Thirsty_Always_Hungry-WEB-2015-ENRAGED
2017-01-22 22:53:07 Smoke-615_Mafia_Muzik-WEB-2015-ENRAGED
2017-01-22 22:53:22 Smoke-After_Effect-WEB-2013-ENRAGED
2017-01-22 22:53:39 Smoke-After_the_Effect_(The_Lost_Sessions)-WEB-2013-ENRAGED
2017-01-22 22:53:57 Smoke-Back_At_It_Again-WEB-2013-ENRAGED
2017-01-22 22:54:12 Smoke-Best_Kept_Secret-WEB-2015-ENRAGED
2017-01-22 22:54:29 Smoke-Better_Than_Expected-WEB-2014-ENRAGED
2017-01-22 22:54:43 Smoke-Came_Along_Way-WEB-2015-ENRAGED
2017-01-22 22:54:58 Smoke-Cause_And_Effect-WEB-2009-ENRAGED
2017-01-22 22:55:14 Smoke-Motivated_By_Hate-WEB-2011-ENRAGED
2017-01-22 22:55:31 Smoke-Mr_257-WEB-2012-ENRAGED
2017-01-22 22:55:47 Smoke-Remixes_B-Sides-WEB-2012-ENRAGED
2017-01-22 22:56:01 Smoke-Revelations-WEB-2013-ENRAGED
2017-01-22 22:56:18 Smoke-Revelations_Chapter_2-WEB-2014-ENRAGED
2017-01-22 22:56:34 Smoke-That_Real-WEB-2017-ENRAGED
2017-01-22 22:56:50 Southern_Politics-Priorities_(Run_Dat)-SINGLE-WEB-2017-ENRAGED
2017-01-22 22:57:07 St_Kittz-Botany_Valley_(Lord_Infamous_And_Black_Rain_Entertainment_Presents_St_Kittz)-WEB-2011-ENRAGED
2017-01-22 22:57:22 Stitches-Cocaine_Holiday-WEB-2017-ENRAGED
2017-01-22 22:57:37 Stitches_And_Str8_Kash-Brick_Bible-WEB-2015-ENRAGED
2017-01-22 22:57:53 Stitches_And_Supply_and_Demand-Supply_And_Demand-WEB-2015-ENRAGED
2017-01-22 22:58:09 Suga_Ray-Graduated-WEB-2016-ENRAGED
2017-01-22 22:58:25 Symmetry-Cell_Therapy-WEB-2013-ENRAGED
2017-01-22 22:58:38 Endeavour.S04E03.Lazaretto.720p.HDTV.x264-ORGANiC
2017-01-22 22:58:43 Symmetry-Junky-WEB-2013-ENRAGED
2017-01-22 22:58:55 Symmetry-Junky_(Deluxe_Edition)-BONUS_TRACKS-WEB-2013-ENRAGED
2017-01-22 22:59:12 T-Baller-Ballers_Intuition-WEB-2016-ENRAGED
2017-01-22 22:59:27 Apple.Tree.Yard.S01E01.720p.HDTV.x264-ORGANiC
2017-01-22 22:59:30 T-Baller-Ballers_Intuition_2-WEB-2016-ENRAGED
2017-01-22 22:59:35 Vice.Principals.S01E09.FiNAL.FRENCH.HDTV.x264-AMB3R
2017-01-22 22:59:47 T-Baller-Born_Ready-WEB-2014-ENRAGED
2017-01-22 23:00:00 T-Baller-Closer_To_My_Dreams-WEB-2014-ENRAGED
2017-01-22 23:00:15 T-Baller-Forgiveness-WEB-2013-ENRAGED
2017-01-22 23:00:33 T-Baller-I_Rock_Wit_The_Producer-WEB-2014-ENRAGED
2017-01-22 23:00:37 Endeavour.S04E03.Lazaretto.HDTV.x264-ORGANiC
2017-01-22 23:00:48 T-Baller-No_Pressure-WEB-2014-ENRAGED
2017-01-22 23:01:04 T-Baller-Soldiers_Creed-WEB-2016-ENRAGED
2017-01-22 23:01:07 Apple.Tree.Yard.S01E01.HDTV.x264-ORGANiC
2017-01-22 23:01:19 T-Baller-Something_to_Remember_2-WEB-2015-ENRAGED
2017-01-22 23:01:34 T-Baller-The_Sextape_2-WEB-2016-ENRAGED
2017-01-22 23:01:49 T-Baller-The_Throne_Is_Mine-WEB-2016-ENRAGED
2017-01-22 23:02:06 T-Bone-T-Bone_And_the_Gang-WEB-2016-ENRAGED
2017-01-22 23:02:21 TAYLOR_MANE-Revenue_Muzik-WEB-2015-ENRAGED
2017-01-22 23:02:37 TNT_And_Mr_Sche-Juice-WEB-2015-ENRAGED
2017-01-22 23:02:52 Teflon_Don-God_the_Government_the_Game-WEB-2016-ENRAGED
2017-01-22 23:03:08 Thareallion-From_the_Streets_2_the_Beats_(2007-2015)-WEB-2015-ENRAGED
2017-01-22 23:03:22 Thareallion-Real_Life_Situations-WEB-2014-ENRAGED
2017-01-22 23:03:38 Thareallion-Underground_Dweller-WEB-2013-ENRAGED
2017-01-22 23:03:56 Trouble_Funk-E-Flat_Boogie-EP-WEB-2016-ENRAGED
2017-01-22 23:04:09 Tuxedo-Fux_with_the_Tux-EP-WEB-2017-ENRAGED_iNT
2017-01-22 23:04:25 VA-Bluff_City_Classic_(Hy_Lyfe_Inc_Presents)-WEB-2013-ENRAGED
2017-01-22 23:04:41 Victoria_Kimani-Safari-WEB-2016-ENRAGED
2017-01-22 23:04:56 Winston_Warrior-Go_High-SINGLE-WEB-2017-ENRAGED
2017-01-22 23:05:13 Winston_Warrior-Lifeology_101-WEB-2011-ENRAGED
2017-01-22 23:05:28 Winston_Warrior-Lifeology_101_Back_2_School-WEB-2012-ENRAGED
2017-01-22 23:05:44 Xxxtentacion-Look_at_Me-SINGLE-WEB-2016-ENRAGED
2017-01-22 23:06:01 YC_LOPEZ-Rich_Souls-WEB-2017-ENRAGED
2017-01-22 23:06:15 Young_J-Right_Now_(feat_Lazy_Boy_And_Nasae)-SINGLE-WEB-2017-ENRAGED
2017-01-22 23:06:31 Young_J-Young_J_Feat_Splash_x_Rome_Riley_-They_Know-SINGLE-WEB-2015-ENRAGED
2017-01-22 23:06:47 Young_Mezzy-Undeniable-EP-WEB-2017-ENRAGED
2017-01-22 23:07:01 Young_Roddy-Good_Sense_3-WEB-2016-ENRAGED
2017-01-22 23:07:20 Yung_Loz-Bankrupt_(feat_Hot_Boi_Weez_And_DollaS_Up_Nero)-SINGLE-WEB-2017-ENRAGED
2017-01-22 23:13:31 Was.nicht.passt.wird.passend.gemacht.S02E01.German.FS.DVDRip.x264.iNTERNAL.RERiP-TVARCHiV
2017-01-22 23:14:36 Was.nicht.passt.wird.passend.gemacht.S02E02.German.FS.DVDRip.x264.iNTERNAL.RERiP-TVARCHiV
2017-01-22 23:15:37 Was.nicht.passt.wird.passend.gemacht.S02E03.German.FS.DVDRip.x264.iNTERNAL.RERiP-TVARCHiV
2017-01-22 23:16:39 Was.nicht.passt.wird.passend.gemacht.S02E04.German.FS.DVDRip.x264.iNTERNAL.RERiP-TVARCHiV
2017-01-22 23:17:44 Was.nicht.passt.wird.passend.gemacht.S02E05.German.FS.DVDRip.x264.iNTERNAL.RERiP-TVARCHiV
2017-01-22 23:18:45 Was.nicht.passt.wird.passend.gemacht.S02E06.German.FS.DVDRip.x264.iNTERNAL.RERiP-TVARCHiV
2017-01-22 23:19:48 Was.nicht.passt.wird.passend.gemacht.S02E07.German.FS.DVDRip.x264.iNTERNAL.RERiP-TVARCHiV
2017-01-22 23:20:50 Was.nicht.passt.wird.passend.gemacht.S02E08.German.FS.DVDRip.x264.iNTERNAL.RERiP-TVARCHiV
2017-01-22 23:21:51 Was.nicht.passt.wird.passend.gemacht.S02E09.German.FS.DVDRip.x264.iNTERNAL.RERiP-TVARCHiV
2017-01-22 23:22:04 La.Succhiacazzi.2011.iTALiAN.XXX.DVDRip.x264-LVPANARi
2017-01-22 23:22:52 Was.nicht.passt.wird.passend.gemacht.S02E10.German.FS.DVDRip.x264.iNTERNAL.RERiP-TVARCHiV
2017-01-22 23:23:09 Matt_Eray_-_Key_West__Bali-(AEP112)-WEB-2013-MMS
2017-01-22 23:26:18 Tatort.E1008.Schock.GERMAN.720p.HDTV.x264-ACED
2017-01-22 23:28:19 Koka_-_Elliana__Maintenant-(AEP114)-WEB-2013-MMS
2017-01-22 23:30:16 Chicago.Med.S01E13.FRENCH.720p.HDTV.x264-AMB3R
2017-01-22 23:31:58 Blugazer_-_Elvirica__Mindscape-(AEP115)-WEB-2013-MMS
2017-01-22 23:32:21 German_TOP100_Single_Charts_30_12_2016-MCG
2017-01-22 23:34:49 Merlin.2008.S03E11.SPANiSH.1080p.HDTV.x264-FERiCE
2017-01-22 23:36:35 Merlin.2008.S03E11.SPANiSH.720p.HDTV.x264-FERiCE
2017-01-22 23:37:14 Merlin.2008.S03E11.SPANiSH.HDTV.x264-FERiCE
2017-01-22 23:37:32 Spark_-_A_Better_World-(AEP120)-WEB-2013-MMS
2017-01-22 23:38:35 The.Five.S01E09.SPANiSH.1080p.HDTV.x264-FERiCE
2017-01-22 23:39:28 The.Five.S01E09.SPANiSH.720p.HDTV.x264-FERiCE
2017-01-22 23:39:56 The.Five.S01E09.SPANiSH.HDTV.x264-FERiCE
2017-01-22 23:40:27 Smeris.S03E01.DUTCH.1080p.HDTV.x264-DiFFERENT
2017-01-22 23:40:40 Pigface-Washingmachine_Mouth-CD-FLAC-1993-FATHEAD
2017-01-22 23:49:30 The.Witness.For.The.Prosecution.S01E01.DVDRip.x264-OUIJA
2017-01-22 23:52:17 The.Witness.For.The.Prosecution.S01E02.DVDRip.x264-OUIJA
2017-01-22 23:55:25 Chicago.Med.S01E14.FRENCH.720p.HDTV.x264-AMB3R
2017-01-22 23:59:05 Chicago.Med.S01E14.FRENCH.HDTV.x264-AMB3R
2017-01-22 23:59:10 Bricsys.BricsCAD.Platinum.v16.2.17.1.SPANISH.MACOSX-AMPED
2017-01-22 23:59:36 Bricsys.BricsCAD.Platinum.v17.1.16.1.German-AMPED
2017-01-22 23:59:52 Bricsys.BricsCAD.Platinum.v17.1.16.1.German.X64-AMPED